[[{"header":{"parameterUnit":"m.s-1","parameterCategory":1,"la1":30.6,"la2":29.2853,"lo1":-89.7004,"lo2":-87.6739,"dy":0.0162,"dx":0.0183,"nx":112,"ny":82,"refTime":"2023-08-01T12:00:00:Z","depth":0,"parameterNumber":2,"parameterNumberName":"U-component_of_WINDS"},"data":[0.0,0.0,0.0,0.0,0.0,0.0,0.0,0.0,0.0,0.0,0.0,0.0,0.0,0.0,0.0,0.0,0.0,0.0,0.0,0.0,0.0,0.0,0.0,0.0,0.0,0.0,0.0,0.0,0.0,0.0,0.0,0.0,0.0,0.0,0.0,0.0,0.0,0.0,0.0,0.0,0.0,0.0,0.0,0.0,0.0,0.0,0.0,0.0,0.0,0.0,0.0,0.0,0.0,0.0,0.0,0.0,0.0,0.0,0.0,0.0,0.0,0.0,0.0,0.0,0.0,0.0,0.0,0.0,0.0,0.0,0.0,0.0,0.0,0.0,0.0,0.0,0.0,0.0,0.0,0.0,0.0,0.0,0.0,0.0,0.0,0.0,0.0,0.0,0.0,0.0,-0.6264,-0.6338,-0.6338,-0.6338,-0.6338,-0.6338,-0.6268,-0.6281,0.0,0.0,0.0,0.0,0.0,0.0,0.0,0.0,0.0,0.0,0.0,0.0,0.0,0.0,0.0,0.0,0.0,0.0,0.0,0.0,0.0,0.0,0.0,0.0,0.0,0.0,0.0,0.0,0.0,0.0,0.0,0.0,0.0,0.0,0.0,0.0,0.0,0.0,0.0,0.0,0.0,0.0,0.0,0.0,0.0,0.0,0.0,0.0,0.0,0.0,0.0,0.0,0.0,0.0,0.0,0.0,0.0,0.0,0.0,0.0,0.0,0.0,0.0,0.0,0.0,0.0,0.0,0.0,0.0,0.0,0.0,0.0,0.0,0.0,0.0,0.0,0.0,0.0,0.0,0.0,0.0,0.0,0.0,0.0,0.0,0.0,0.0,0.0,0.0,0.0,0.0,0.0,0.0,0.0,0.0,0.0,0.0,0.0,0.0,0.0,0.0,0.0,0.0,0.0,-0.6271,-0.6264,-0.6338,-0.6338,-0.6338,-0.6338,-0.6271,-0.6291,0.0,0.0,0.0,0.0,0.0,0.0,0.0,0.0,0.0,0.0,0.0,0.0,0.0,0.0,0.0,0.0,0.0,0.0,0.0,0.0,0.0,0.0,0.0,0.0,0.0,0.0,0.0,0.0,0.0,0.0,0.0,0.0,0.0,0.0,0.0,0.0,0.0,0.0,0.0,0.0,0.0,0.0,0.0,0.0,0.0,0.0,0.0,0.0,0.0,0.0,0.0,0.0,0.0,0.0,0.0,0.0,0.0,0.0,0.0,0.0,0.0,0.0,0.0,0.0,0.0,0.0,0.0,0.0,0.0,0.0,0.0,0.0,0.0,0.0,0.0,0.0,0.0,0.0,0.0,0.0,0.0,0.0,0.0,0.0,0.0,0.0,0.0,0.0,0.0,0.0,0.0,0.0,0.0,0.0,0.0,0.0,0.0,0.0,0.0,0.0,0.0,0.0,0.0,-0.5802,-0.6274,-0.6264,-0.6338,-0.6338,-0.6338,-0.6338,-0.6268,-0.6285,-0.5562,0.0,0.0,0.0,0.0,0.0,0.0,0.0,0.0,0.0,0.0,0.0,0.0,0.0,0.0,0.0,0.0,0.0,0.0,0.0,0.0,0.0,0.0,0.0,0.0,0.0,0.0,0.0,0.0,0.0,0.0,0.0,0.0,0.0,0.0,0.0,0.0,0.0,0.0,0.0,0.0,0.0,0.0,0.0,0.0,0.0,0.0,0.0,0.0,0.0,0.0,0.0,0.0,0.0,0.0,0.0,0.0,0.0,0.0,0.0,0.0,0.0,0.0,0.0,0.0,0.0,0.0,0.0,0.0,0.0,0.0,0.0,0.0,0.0,0.0,0.0,0.0,0.0,0.0,0.0,0.0,0.0,0.0,0.0,0.0,0.0,0.0,0.0,0.0,0.0,0.0,0.0,0.0,0.0,0.0,0.0,0.0,0.0,0.0,0.0,0.0,0.0,0.0,-0.5321,-0.6274,-0.6264,-0.6338,-0.6338,-0.6338,-0.6338,-0.6268,-0.6281,-0.5323,0.0,0.0,0.0,0.0,0.0,0.0,0.0,0.0,0.0,0.0,0.0,0.0,0.0,0.0,0.0,0.0,0.0,0.0,0.0,0.0,0.0,0.0,0.0,0.0,0.0,0.0,0.0,0.0,0.0,0.0,0.0,0.0,0.0,0.0,0.0,0.0,0.0,0.0,0.0,0.0,0.0,0.0,0.0,0.0,0.0,0.0,0.0,0.0,0.0,0.0,0.0,0.0,0.0,0.0,0.0,0.0,0.0,0.0,0.0,0.0,0.0,0.0,0.0,0.0,0.0,0.0,0.0,0.0,0.0,0.0,0.0,0.0,0.0,0.0,0.0,0.0,0.0,0.0,0.0,0.0,0.0,0.0,0.0,0.0,0.0,0.0,0.0,0.0,0.0,0.0,0.0,0.0,0.0,0.0,0.0,0.0,0.0,0.0,0.0,0.0,0.0,0.0,-0.501,-0.6274,-0.6264,-0.6338,-0.6338,-0.6338,-0.6338,-0.6271,-0.6291,-0.6213,0.0,0.0,0.0,0.0,0.0,0.0,0.0,0.0,0.0,0.0,0.0,0.0,0.0,0.0,0.0,0.0,0.0,0.0,0.0,0.0,0.0,0.0,0.0,0.0,0.0,0.0,0.0,0.0,0.0,0.0,0.0,0.0,0.0,0.0,0.0,0.0,0.0,0.0,0.0,0.0,0.0,0.0,0.0,0.0,0.0,0.0,0.0,0.0,0.0,0.0,0.0,0.0,0.0,0.0,0.0,0.0,0.0,0.0,0.0,0.0,0.0,0.0,0.0,0.0,0.0,0.0,0.0,0.0,0.0,0.0,0.0,0.0,0.0,0.0,0.0,0.0,0.0,0.0,0.0,0.0,0.0,0.0,0.0,0.0,0.0,0.0,0.0,0.0,0.0,0.0,0.0,0.0,0.0,0.0,0.0,0.0,0.0,0.0,0.0,0.0,0.0,0.0,-0.5802,-0.6274,0.0,-0.6338,-0.6338,-0.6338,-0.6338,-0.6264,-0.6274,0.0,0.0,0.0,0.0,0.0,0.0,0.0,0.0,0.0,0.0,0.0,0.0,0.0,0.0,0.0,0.0,0.0,0.0,0.0,0.0,0.0,0.0,0.0,0.0,0.0,0.0,0.0,0.0,0.0,0.0,0.0,0.0,0.0,0.0,0.0,0.0,0.0,0.0,0.0,0.0,0.0,0.0,0.0,0.0,0.0,0.0,0.0,0.0,0.0,0.0,0.0,0.0,0.0,0.0,0.0,0.0,0.0,0.0,0.0,0.0,0.0,0.0,0.0,0.0,0.0,0.0,0.0,0.0,0.0,0.0,0.0,0.0,0.0,0.0,0.0,0.0,0.0,0.0,0.0,0.0,0.0,0.0,0.0,0.0,0.0,0.0,0.0,0.0,0.0,0.0,0.0,0.0,0.0,0.0,0.0,0.0,0.0,0.0,0.0,0.0,0.0,0.0,-0.6417,-0.6413,-0.6407,0.0,-0.64,-0.64,-0.64,-0.64,-0.6383,-0.6339,0.0,0.0,0.0,0.0,0.0,0.0,0.0,0.0,0.0,0.0,0.0,0.0,0.0,0.0,0.0,0.0,0.0,0.0,0.0,0.0,0.0,0.0,0.0,0.0,0.0,0.0,0.0,0.0,0.0,0.0,0.0,0.0,0.0,0.0,0.0,0.0,0.0,0.0,0.0,0.0,0.0,0.0,0.0,0.0,0.0,0.0,0.0,0.0,0.0,0.0,0.0,0.0,0.0,0.0,0.0,0.0,0.0,0.0,0.0,0.0,0.0,0.0,0.0,0.0,0.0,0.0,0.0,0.0,0.0,0.0,0.0,0.0,0.0,0.0,0.0,0.0,0.0,0.0,0.0,0.0,0.0,0.0,0.0,0.0,0.0,0.0,0.0,0.0,0.0,0.0,0.0,0.0,0.0,0.0,0.0,0.0,0.0,0.0,0.0,0.0,0.0,0.0,-0.6785,-0.6709,-0.6702,-0.6702,-0.6702,-0.6702,-0.6702,-0.6702,-0.6562,0.0,0.0,0.0,0.0,0.0,0.0,0.0,0.0,0.0,0.0,0.0,0.0,0.0,0.0,0.0,0.0,0.0,0.0,0.0,0.0,0.0,0.0,0.0,0.0,0.0,0.0,0.0,0.0,0.0,0.0,0.0,0.0,0.0,0.0,0.0,0.0,0.0,0.0,0.0,0.0,0.0,0.0,0.0,0.0,0.0,0.0,0.0,0.0,0.0,0.0,0.0,0.0,0.0,0.0,0.0,0.0,0.0,0.0,0.0,0.0,0.0,0.0,0.0,0.0,0.0,0.0,0.0,0.0,0.0,0.0,0.0,0.0,0.0,0.0,0.0,0.0,0.0,0.0,0.0,0.0,0.0,0.0,0.0,0.0,0.0,0.0,0.0,0.0,0.0,0.0,0.0,0.0,0.0,0.0,0.0,0.0,0.0,0.0,0.0,0.0,0.0,0.0,0.0,-0.6702,-0.6702,-0.6702,-0.6702,-0.6702,-0.6702,-0.6702,-0.6702,-0.6685,-0.6562,0.0,0.0,0.0,0.0,0.0,0.0,0.0,0.0,0.0,0.0,0.0,0.0,0.0,0.0,0.0,0.0,0.0,0.0,0.0,0.0,0.0,0.0,0.0,0.0,0.0,0.0,0.0,0.0,0.0,0.0,0.0,0.0,0.0,0.0,0.0,0.0,0.0,0.0,0.0,0.0,0.0,0.0,0.0,0.0,0.0,0.0,0.0,0.0,0.0,0.0,0.0,0.0,0.0,0.0,0.0,0.0,0.0,0.0,0.0,0.0,0.0,0.0,0.0,0.0,0.0,0.0,0.0,0.0,0.0,0.0,0.0,0.0,0.0,0.0,0.0,0.0,0.0,0.0,0.0,0.0,0.0,0.0,0.0,0.0,0.0,0.0,0.0,0.0,0.0,0.0,0.0,0.0,0.0,0.0,0.0,0.0,0.0,0.0,0.0,0.0,0.0,0.0,-0.6868,-0.6875,-0.6875,-0.6875,-0.6875,-0.6875,-0.6875,-0.6875,-0.6851,-0.6797,0.0,0.0,0.0,0.0,0.0,0.0,0.0,0.0,0.0,0.0,0.0,0.0,0.0,0.0,0.0,0.0,0.0,0.0,0.0,0.0,0.0,0.0,0.0,0.0,0.0,0.0,0.0,0.0,0.0,0.0,0.0,0.0,0.0,0.0,0.0,0.0,0.0,0.0,0.0,0.0,0.0,0.0,0.0,0.0,0.0,0.0,0.0,0.0,0.0,0.0,0.0,0.0,0.0,0.0,0.0,0.0,0.0,0.0,0.0,0.0,0.0,0.0,0.0,0.0,0.0,0.0,0.0,0.0,0.0,0.0,0.0,0.0,0.0,0.0,0.0,0.0,0.0,0.0,0.0,0.0,0.0,0.0,0.0,0.0,0.0,0.0,0.0,0.0,0.0,0.0,0.0,0.0,0.0,0.0,0.0,0.0,0.0,0.0,0.0,0.0,0.0,0.0,-0.7126,-0.7139,-0.7139,-0.7139,-0.7139,-0.7139,-0.7139,-0.7139,-0.7085,-0.6956,0.0,0.0,0.0,0.0,0.0,0.0,0.0,0.0,0.0,0.0,0.0,0.0,0.0,0.0,0.0,0.0,0.0,0.0,0.0,0.0,0.0,0.0,0.0,0.0,0.0,0.0,0.0,0.0,0.0,0.0,0.0,0.0,0.0,0.0,0.0,0.0,0.0,0.0,0.0,0.0,0.0,0.0,0.0,0.0,0.0,0.0,0.0,0.0,0.0,0.0,0.0,0.0,0.0,0.0,0.0,0.0,0.0,0.0,0.0,0.0,-0.6183,0.0,0.0,0.0,0.0,0.0,0.0,0.0,0.0,0.0,0.0,0.0,0.0,0.0,0.0,0.0,0.0,0.0,0.0,0.0,0.0,0.0,0.0,0.0,0.0,0.0,0.0,0.0,0.0,0.0,0.0,0.0,0.0,0.0,0.0,0.0,0.0,0.0,0.0,0.0,0.0,0.0,-0.7136,-0.7139,-0.7139,-0.7139,-0.7139,-0.7139,-0.7139,-0.7139,-0.7129,-0.7095,-0.7095,0.0,0.0,0.0,0.0,0.0,0.0,0.0,0.0,0.0,0.0,0.0,0.0,0.0,0.0,0.0,0.0,0.0,0.0,0.0,0.0,0.0,0.0,0.0,0.0,0.0,0.0,0.0,0.0,0.0,0.0,0.0,0.0,0.0,0.0,0.0,0.0,0.0,0.0,0.0,0.0,0.0,0.0,0.0,0.0,0.0,0.0,0.0,0.0,0.0,0.0,0.0,0.0,0.0,0.0,0.0,0.0,0.0,0.0,0.0,0.0,-0.6281,0.0,0.0,0.0,0.0,0.0,0.0,0.0,0.0,0.0,0.0,0.0,0.0,0.0,0.0,0.0,0.0,0.0,0.0,0.0,0.0,0.0,0.0,0.0,0.0,0.0,0.0,0.0,0.0,0.0,0.0,0.0,0.0,0.0,0.0,0.0,0.0,0.0,0.0,0.0,0.0,-0.7139,-0.7139,-0.7139,-0.7139,-0.7139,-0.7139,-0.7139,-0.7139,-0.7139,-0.7139,-0.7139,0.0,0.0,0.0,0.0,0.0,0.0,0.0,0.0,0.0,0.0,0.0,0.0,0.0,0.0,0.0,0.0,0.0,0.0,0.0,0.0,0.0,0.0,0.0,0.0,0.0,0.0,0.0,0.0,0.0,0.0,0.0,0.0,0.0,0.0,0.0,0.0,0.0,0.0,0.0,0.0,0.0,0.0,0.0,0.0,0.0,0.0,0.0,0.0,0.0,0.0,0.0,0.0,0.0,-0.6641,-0.6702,-0.6702,-0.6702,-0.6702,-0.6685,-0.6444,-0.6342,-0.6352,-0.6352,0.0,0.0,0.0,0.0,0.0,0.0,0.0,0.0,0.0,0.0,0.0,0.0,0.0,0.0,0.0,0.0,0.0,0.0,0.0,0.0,0.0,0.0,0.0,0.0,-0.6993,-0.6331,0.0,0.0,0.0,0.0,0.0,0.0,0.0,0.0,0.0,0.0,0.0,0.0,-0.7139,-0.7139,-0.7139,-0.7139,-0.7139,-0.7139,-0.7139,-0.7139,-0.7139,-0.7139,-0.7139,-0.7139,0.0,0.0,0.0,0.0,0.0,0.0,0.0,0.0,0.0,0.0,0.0,0.0,0.0,0.0,0.0,0.0,0.0,0.0,0.0,0.0,0.0,0.0,0.0,0.0,0.0,0.0,0.0,0.0,0.0,0.0,0.0,0.0,-0.5779,-0.58,0.0,0.0,0.0,0.0,0.0,0.0,0.0,0.0,0.0,0.0,0.0,0.0,0.0,-0.6641,-0.6641,-0.6661,-0.6671,-0.6671,-0.6692,-0.6702,-0.6702,-0.6702,-0.6702,-0.6698,-0.6661,0.0,-0.6644,-0.6644,0.0,0.0,0.0,0.0,0.0,0.0,0.0,0.0,0.0,0.0,0.0,0.0,0.0,0.0,0.0,0.0,0.0,0.0,0.0,0.0,0.0,0.0,-0.7092,-0.7115,-0.7115,-0.7021,0.0,-0.6675,-0.6615,-0.6609,-0.689,0.0,0.0,0.0,0.0,0.0,0.0,0.0,-0.7139,-0.7139,-0.7139,-0.7139,-0.7139,-0.7139,-0.7139,-0.7139,-0.7139,-0.7139,-0.7139,-0.7139,-0.7139,-0.7139,0.0,0.0,0.0,0.0,0.0,0.0,0.0,0.0,0.0,0.0,0.0,0.0,0.0,0.0,0.0,0.0,0.0,0.0,0.0,0.0,0.0,0.0,0.0,0.0,0.0,0.0,0.0,0.0,0.0,-0.5928,-0.5962,-0.6047,-0.6118,-0.6159,0.0,0.0,0.0,0.0,0.0,0.0,0.0,0.0,0.0,-0.66,-0.6664,-0.6702,-0.6702,-0.6787,-0.6827,-0.6831,-0.6909,-0.6949,-0.6949,-0.6949,-0.6949,-0.6949,-0.6949,-0.6949,-0.6936,-0.677,-0.6702,-0.6709,0.0,0.0,0.0,0.0,-0.6949,-0.6949,-0.6949,-0.6949,0.0,-0.6956,0.0,0.0,0.0,0.0,0.0,0.0,0.0,0.0,0.0,0.0,-0.7139,-0.7139,-0.7139,-0.7139,-0.7139,-0.7064,-0.7071,0.0,-0.7068,-0.7064,-0.7143,0.0,0.0,0.0,0.0,-0.7139,-0.7139,-0.7139,-0.7139,-0.7139,-0.7139,-0.7139,-0.7139,-0.7139,-0.7139,-0.7139,-0.7139,-0.7139,-0.7139,-0.7139,-0.7139,0.0,0.0,0.0,0.0,0.0,0.0,0.0,0.0,0.0,0.0,0.0,0.0,0.0,0.0,0.0,0.0,0.0,0.0,0.0,0.0,0.0,0.0,0.0,0.0,0.0,0.0,0.0,0.0,-0.6088,-0.6132,-0.6247,-0.6291,-0.6315,0.0,0.0,0.0,0.0,0.0,0.0,-0.6695,-0.6736,-0.6759,-0.6759,-0.6793,-0.6814,-0.6814,-0.6926,-0.6983,-0.6983,-0.7088,-0.7139,-0.7139,-0.7139,-0.7139,-0.7139,-0.7139,-0.7139,-0.7122,-0.6902,-0.6814,-0.6824,-0.6939,-0.6983,-0.6997,-0.7102,-0.7139,-0.7139,-0.7139,-0.7139,-0.7139,-0.7139,0.0,-0.7139,-0.7139,0.0,0.0,0.0,0.0,-0.7139,-0.7139,-0.7139,-0.7139,-0.7139,-0.7139,-0.7139,-0.7139,-0.7139,-0.7139,0.0,-0.7139,-0.7139,-0.7139,0.0,0.0,0.0,0.0,-0.7139,-0.7139,-0.7139,-0.7139,-0.7139,-0.7139,-0.7139,-0.7139,-0.7139,-0.7139,-0.7139,-0.7139,-0.7139,-0.7139,-0.7139,-0.7139,-0.7139,0.0,0.0,0.0,0.0,0.0,0.0,0.0,0.0,0.0,0.0,0.0,0.0,0.0,0.0,0.0,0.0,0.0,0.0,0.0,0.0,0.0,0.0,0.0,0.0,0.0,0.0,0.0,0.0,0.0,-0.6335,-0.638,0.0,0.0,0.0,0.0,-0.6688,-0.6688,-0.6692,-0.6702,-0.6837,-0.6915,-0.6915,-0.7048,-0.7115,-0.7115,-0.7126,-0.7129,-0.7129,-0.7136,-0.7139,-0.7139,-0.7139,-0.7139,-0.7139,-0.7139,-0.7139,-0.7139,-0.7126,-0.7115,-0.7119,-0.7126,-0.7129,-0.7129,-0.7139,-0.7139,-0.7139,-0.7139,-0.7139,-0.7139,-0.7139,-0.7139,-0.7139,-0.7139,-0.7139,0.0,0.0,-0.7139,-0.7139,-0.7139,-0.7139,-0.7139,-0.7139,-0.7139,-0.7139,-0.7139,-0.7139,-0.7139,0.0,-0.7139,-0.7139,-0.7139,0.0,-0.7139,-0.7139,-0.7139,-0.7139,-0.7139,-0.7139,-0.7139,-0.7139,-0.7139,-0.7139,-0.7139,-0.7139,-0.7139,-0.7139,-0.7139,-0.7139,-0.7139,-0.7139,-0.7139,-0.7139,-0.7139,0.0,0.0,0.0,0.0,0.0,0.0,0.0,0.0,0.0,0.0,0.0,0.0,0.0,0.0,0.0,0.0,0.0,0.0,0.0,0.0,0.0,0.0,0.0,0.0,0.0,0.0,0.0,0.0,-0.6396,-0.6529,0.0,-0.662,-0.6668,-0.6742,-0.6841,-0.6848,-0.6888,-0.698,-0.7034,-0.7065,-0.7065,-0.7112,-0.7139,-0.7139,-0.7139,-0.7139,-0.7139,-0.7139,-0.7139,-0.7139,-0.7139,-0.7139,-0.7139,-0.7139,-0.7139,-0.7139,-0.7139,-0.7139,-0.7139,-0.7139,-0.7139,-0.7139,-0.7139,-0.7139,-0.7139,-0.7139,-0.7139,-0.7139,-0.7139,-0.7139,-0.7139,-0.7139,-0.7139,-0.7139,-0.7139,-0.7139,-0.7139,-0.7139,-0.7139,-0.7139,-0.7139,-0.7139,-0.7139,-0.7139,-0.7139,-0.7139,-0.7139,-0.7139,-0.7139,-0.7139,-0.7139,-0.7139,-0.7139,-0.7139,-0.7139,-0.7139,-0.7139,-0.7139,-0.7139,-0.7139,-0.7139,-0.7139,-0.7139,-0.7139,-0.7139,-0.7139,-0.7139,-0.7139,-0.7139,-0.7139,-0.7139,-0.7139,-0.7139,0.0,0.0,0.0,0.0,0.0,0.0,0.0,0.0,0.0,0.0,0.0,0.0,0.0,0.0,0.0,0.0,0.0,0.0,0.0,0.0,0.0,0.0,0.0,0.0,0.0,0.0,-0.6549,-0.6549,-0.6685,-0.6776,-0.6776,-0.682,-0.6892,-0.6993,-0.7,-0.7041,-0.7136,-0.7139,-0.7139,-0.7139,-0.7139,-0.7139,-0.7139,-0.719,-0.7217,-0.7217,-0.7272,-0.7295,-0.7295,-0.7295,-0.7295,-0.7295,-0.7295,-0.7295,-0.7295,-0.7295,-0.7295,-0.7285,-0.718,-0.7139,-0.7139,-0.7139,-0.7139,-0.7139,-0.7139,-0.7139,-0.7139,-0.7139,-0.7139,-0.7139,-0.7139,-0.7139,-0.7139,-0.7139,-0.7139,-0.7139,-0.7139,-0.7139,-0.7139,-0.7139,-0.7139,-0.7139,-0.7139,-0.7139,-0.7139,-0.7139,-0.7139,-0.7139,-0.7139,-0.7139,-0.7139,-0.7139,-0.7139,-0.7139,-0.7139,-0.7139,-0.7139,-0.7139,-0.7139,-0.7139,-0.7139,-0.7139,-0.7139,-0.7139,-0.7139,-0.7139,-0.7139,-0.7139,-0.7139,-0.7139,-0.7139,-0.7139,-0.7139,0.0,0.0,0.0,0.0,0.0,0.0,0.0,0.0,0.0,0.0,0.0,0.0,0.0,0.0,0.0,0.0,0.0,0.0,0.0,0.0,0.0,0.0,0.0,-0.6702,-0.6705,-0.6709,-0.6709,-0.6844,-0.6936,-0.6936,-0.7058,-0.7139,-0.7139,-0.7139,-0.7139,-0.7139,-0.7139,-0.7143,-0.7146,-0.7146,-0.7149,-0.7153,-0.7302,-0.738,-0.738,-0.7529,-0.76,-0.76,-0.76,-0.76,-0.76,-0.76,-0.76,-0.76,-0.76,-0.76,-0.757,-0.7272,-0.7153,-0.7153,-0.7153,-0.7153,-0.7153,-0.7153,-0.7153,-0.7153,-0.7153,-0.7153,-0.7153,-0.7153,-0.7153,-0.7153,-0.7153,-0.7153,-0.7153,-0.7153,-0.7153,-0.7153,-0.7153,-0.7153,-0.7153,-0.7153,-0.7153,-0.7153,-0.7153,-0.7153,-0.7149,-0.7143,-0.7139,-0.7139,-0.7139,-0.7139,0.0,-0.7139,-0.7139,-0.7143,-0.7146,-0.7146,-0.7146,-0.7146,-0.7146,-0.7146,-0.7139,-0.7139,-0.7139,-0.7139,-0.7139,-0.7139,-0.7139,-0.7139,-0.7139,-0.7139,0.0,0.0,0.0,0.0,0.0,0.0,0.0,0.0,0.0,0.0,0.0,0.0,0.0,0.0,0.0,0.0,0.0,0.0,0.0,0.0,0.0,0.0,-0.6827,-0.6715,-0.6797,-0.6865,-0.6865,-0.6993,-0.7082,-0.7082,-0.7115,-0.7139,-0.7139,-0.7139,-0.7139,-0.7139,-0.7139,-0.719,-0.7305,-0.7309,-0.7363,-0.7472,-0.7516,-0.7536,-0.7539,-0.758,-0.76,-0.76,-0.76,-0.76,-0.76,-0.76,-0.76,-0.76,-0.76,-0.76,-0.759,-0.7506,-0.7475,-0.7475,-0.7475,-0.7475,-0.7475,-0.7475,-0.7475,-0.7475,-0.7475,-0.7475,-0.7475,-0.7475,-0.7475,-0.7475,-0.7475,-0.7475,-0.7475,-0.7475,-0.7475,-0.7475,-0.7475,-0.7475,-0.7475,-0.7475,-0.7475,-0.7475,-0.7475,-0.7475,-0.74,-0.718,-0.7139,-0.7139,-0.7139,-0.7139,0.0,-0.7139,-0.7139,-0.7183,-0.7295,-0.7309,-0.7309,-0.7309,-0.7309,-0.7258,-0.7146,-0.7139,-0.7139,-0.7139,-0.7139,-0.7139,-0.7139,-0.7139,-0.7139,0.0,0.0,0.0,0.0,0.0,0.0,0.0,0.0,0.0,0.0,0.0,0.0,0.0,0.0,0.0,0.0,0.0,0.0,0.0,0.0,0.0,0.0,-0.7017,-0.6987,-0.6898,-0.6959,-0.7017,-0.7017,-0.7092,-0.7139,-0.7139,-0.7139,-0.7139,-0.7139,-0.72,-0.7238,-0.7238,-0.7299,-0.7373,-0.7465,-0.7465,-0.7509,-0.76,-0.7658,-0.7689,-0.7689,-0.7818,-0.7882,-0.7882,-0.7943,-0.7967,-0.7967,-0.7967,-0.7967,-0.7967,-0.7967,-0.7967,0.0,0.0,0.0,0.0,0.0,-0.76,-0.76,-0.76,-0.76,-0.76,-0.76,-0.76,-0.76,-0.76,-0.76,-0.76,-0.76,-0.76,-0.76,-0.76,-0.76,-0.76,-0.76,-0.76,-0.76,-0.76,-0.76,-0.76,-0.76,-0.76,0.0,-0.7363,-0.7333,-0.7333,-0.7333,-0.7333,-0.7333,-0.7333,-0.7333,-0.7366,-0.7458,-0.7465,-0.7465,-0.7465,-0.7465,0.0,0.0,0.0,-0.7207,-0.7143,-0.7139,0.0,0.0,0.0,-0.8101,-0.8528,0.0,0.0,0.0,-0.7316,-0.7139,0.0,0.0,0.0,0.0,0.0,0.0,0.0,0.0,0.0,0.0,0.0,0.0,0.0,0.0,0.0,0.0,-0.7139,-0.7139,-0.7139,-0.7139,-0.7139,-0.7139,-0.7139,-0.7139,-0.7139,-0.7156,-0.7166,-0.7166,-0.7309,-0.7397,-0.7397,0.0,0.0,0.0,0.0,-0.7641,-0.7675,-0.7801,-0.7872,-0.7889,-0.8163,-0.8296,-0.8299,-0.8425,-0.8482,-0.8482,-0.8482,-0.8482,-0.8482,-0.8482,-0.8482,-0.8428,-0.7906,-0.7699,-0.7699,-0.7699,-0.7689,-0.7675,-0.7675,0.0,0.0,-0.7648,-0.7648,-0.7648,-0.7648,-0.7648,-0.7648,-0.7648,-0.7648,-0.7648,-0.7648,-0.7648,-0.7648,-0.7648,-0.7648,-0.7648,-0.7648,-0.7648,-0.7648,-0.7648,-0.7648,-0.7648,-0.7648,-0.7621,-0.76,-0.76,-0.76,-0.76,-0.76,-0.76,-0.7604,-0.7624,0.0,0.0,-0.7809,-0.7994,-0.8081,-0.8063,-0.7926,-0.7782,-0.7634,-0.7436,-0.7867,-0.892,-0.8815,-0.9231,-1.0178,-1.0178,-0.9749,-0.889,-0.7841,-0.7228,0.0,0.0,0.0,0.0,0.0,0.0,0.0,0.0,0.0,0.0,0.0,0.0,0.0,0.0,0.0,-0.7228,-0.7139,-0.7139,-0.7139,-0.7139,-0.7139,-0.7139,-0.7139,-0.7139,-0.7139,-0.7255,-0.7326,-0.7326,-0.7468,-0.7556,-0.7556,-0.7584,-0.7651,-0.7767,-0.777,-0.7889,-0.814,-0.8167,-0.8238,-0.8353,0.0,0.0,-0.8442,-0.8469,-0.8482,-0.8482,-0.8482,-0.8482,-0.8482,-0.8482,-0.8482,-0.8472,-0.8357,-0.8309,-0.8309,-0.8309,-0.8238,-0.8143,-0.8143,-0.8058,-0.7953,-0.7953,-0.7953,-0.7953,-0.7953,-0.7953,0.0,-0.7953,-0.7953,-0.7953,-0.7953,-0.7953,-0.7953,-0.7953,-0.7953,-0.7953,-0.7953,-0.7953,-0.7953,-0.7953,-0.7953,-0.7953,-0.7953,-0.7756,-0.76,-0.76,-0.76,-0.76,-0.76,-0.76,-0.7645,-0.7756,-0.8718,-0.9378,-0.9378,-1.0324,-1.0815,-1.0736,-1.0683,-1.0736,-1.0692,-0.9543,-0.902,-0.92,-0.8082,-0.7577,-0.7749,-0.7749,-0.8189,-0.889,-0.8627,-0.8013,0.0,0.0,0.0,0.0,0.0,0.0,0.0,0.0,0.0,0.0,0.0,-0.9579,0.0,0.0,-0.7841,-0.7228,-0.7139,-0.7139,-0.7139,-0.7207,-0.7227,-0.7149,-0.721,-0.7255,-0.7255,-0.7397,-0.7485,-0.7485,-0.7624,-0.7706,-0.7706,-0.7851,-0.797,-0.8038,-0.8109,-0.8221,-0.8374,-0.8377,-0.8411,-0.8482,-0.856,-0.8598,-0.8601,-0.8676,-0.871,-0.871,-0.871,-0.871,-0.871,-0.871,-0.871,-0.871,-0.871,-0.8618,-0.8482,-0.8482,-0.8438,-0.8377,-0.8377,-0.8326,-0.8262,-0.8262,-0.8262,-0.8262,-0.8262,-0.8262,-0.8262,-0.8262,-0.8262,-0.8262,-0.8262,-0.8262,-0.8262,-0.8262,-0.8262,-0.8262,-0.8262,-0.8262,-0.8262,-0.8262,-0.8204,-0.8153,-0.8153,-0.7967,-0.7821,-0.7821,-0.7821,-0.7821,-0.7821,-0.7821,-0.7848,-0.7919,-0.9084,-0.9664,-0.8991,-1.0145,-1.0824,-1.0613,-1.1253,-1.1574,-1.1461,-1.0803,-1.0658,-1.1207,-1.0556,-1.0356,-1.0772,-1.024,-0.9842,-0.9749,-0.9148,-0.854,0.0,0.0,0.0,0.0,0.0,0.0,0.0,0.0,-1.2066,-1.2237,-1.1209,-1.0009,-0.9061,-0.8105,-0.7404,-0.7139,-0.7139,-0.7149,-0.718,-0.7292,-0.7336,-0.7241,-0.7339,-0.7414,-0.7414,-0.7553,-0.7641,-0.7641,-0.7804,-0.7902,-0.7902,-0.8163,-0.8313,-0.8313,-0.8421,-0.8496,-0.8526,-0.8526,-0.854,-0.857,-0.8696,-0.8754,-0.876,-0.8882,-0.894,-0.894,-0.894,-0.894,-0.894,-0.894,-0.894,-0.894,-0.894,-0.8788,-0.857,-0.857,-0.8554,-0.8526,-0.8526,-0.8506,-0.8482,-0.8482,-0.8482,-0.8482,-0.8482,-0.8482,-0.8482,-0.8482,-0.8482,-0.8482,-0.8482,-0.8482,-0.8482,-0.8482,-0.8482,-0.8482,-0.8482,-0.8482,-0.8482,-0.8482,-0.8391,-0.8313,-0.8313,-0.8208,-0.8106,-0.8048,-0.8038,-0.8038,-0.8038,-0.8038,-0.8137,-0.8333,-0.9608,-1.0092,-0.96,-1.048,-1.109,-1.1015,-1.1957,-1.2438,-1.2335,-1.2097,-1.2356,-1.3294,-1.3053,-1.3201,-1.3881,-1.2975,-1.1888,-1.0742,-0.9569,-0.8836,-1.3921,-1.4015,-1.4048,-1.4082,-1.3997,-1.3913,0.0,0.0,-1.1037,-1.2066,-1.0611,-0.9065,-0.889,-0.8803,-0.8364,-0.7316,-0.7139,-0.7187,-0.7326,-0.736,-0.7414,-0.7536,-0.7563,-0.7573,-0.7573,-0.7702,-0.7787,-0.7787,-0.8055,-0.8218,-0.8218,-0.837,-0.8459,-0.8459,-0.8472,-0.8547,-0.8682,-0.8682,-0.8754,-0.8889,-0.8906,-0.8913,-0.8913,-0.893,-0.894,-0.894,-0.894,-0.894,-0.894,-0.894,-0.894,-0.894,-0.894,-0.8916,-0.8889,-0.8889,-0.8801,-0.8682,-0.8682,-0.8598,-0.8482,-0.8482,-0.8482,-0.8482,-0.8482,-0.8482,-0.8482,-0.8482,-0.8482,-0.8482,-0.8482,-0.8482,-0.8482,-0.8482,-0.8482,-0.8482,-0.8482,-0.8482,-0.8482,-0.8482,-0.8469,-0.8459,-0.8459,-0.8442,-0.8343,-0.8079,-0.8038,-0.8038,-0.8038,-0.8038,-0.8432,-0.9608,-1.0877,-1.2528,-1.4758,-1.5051,-1.5134,-1.5102,-1.5292,-1.5373,-1.5347,-1.4154,-1.3467,-1.3659,-1.2395,-1.1715,-1.1877,-1.1694,-1.1496,-1.1202,-0.984,-0.8512,-1.4055,-1.4088,-1.4088,0.0,-1.3561,-1.3203,-1.3913,-1.2778,-1.1724,-1.2242,-1.1552,-1.0438,-0.9148,-0.9405,-0.9314,0.0,-0.7738,-0.8091,-0.7451,-0.7519,-0.7651,-0.7716,-0.7801,-0.7821,-0.7733,-0.7855,-0.798,-0.8072,-0.8197,-0.8306,-0.8387,-0.8533,-0.8615,-0.8615,-0.8703,-0.8777,-0.8842,-0.8845,-0.8876,-0.894,-0.894,-0.894,-0.894,-0.894,-0.894,-0.894,-0.894,-0.894,-0.894,-0.894,-0.894,-0.894,-0.894,-0.894,-0.894,-0.894,-0.8899,-0.8845,-0.8845,-0.8801,-0.8747,-0.8747,-0.8747,-0.8747,-0.8747,-0.8747,-0.8747,-0.8747,-0.8747,-0.8747,-0.8747,-0.8747,-0.8747,-0.8747,-0.8747,-0.8747,-0.8747,-0.8747,-0.8747,-0.8747,-0.8676,-0.8615,-0.8615,-0.854,-0.8748,-0.9426,-0.8726,-0.8438,-0.9034,-0.9118,-0.9993,-1.2032,-1.2037,-1.2624,-1.4561,-1.4657,-1.4657,-1.4657,-1.5439,-1.5439,-1.4752,-1.4842,-1.459,-1.382,-1.3902,-1.3957,-1.3805,-1.3061,-1.2618,-1.2381,-1.036,-0.9092,-1.4088,0.0,0.0,-1.4088,-1.347,-1.3027,-1.3906,-1.3203,-1.2328,-1.2328,-1.2066,-1.13,-0.9666,-1.0009,-0.9937,-0.7982,-0.8446,-0.8741,-0.7663,-0.7675,-0.7828,-0.7868,-0.7974,-0.8014,-0.7946,-0.8038,-0.815,-0.8262,-0.8347,-0.8435,-0.854,-0.8689,-0.8774,-0.8774,-0.8879,-0.894,-0.894,-0.894,-0.894,-0.894,-0.894,-0.894,-0.894,-0.8981,-0.9022,-0.9062,-0.9062,-0.9062,-0.9062,-0.9062,-0.9062,-0.9062,-0.9062,-0.9062,-0.9062,-0.9062,-0.9008,-0.894,-0.894,-0.894,-0.894,-0.894,-0.894,-0.894,-0.894,-0.894,-0.894,-0.894,-0.894,-0.894,-0.894,-0.894,-0.894,-0.894,-0.894,-0.894,-0.894,-0.894,-0.894,-0.894,-0.9173,-0.9414,-0.9414,-0.9632,-1.016,-1.1141,-1.0302,-0.9855,-1.0671,-1.0987,-1.1908,-1.3692,-1.3397,-1.3397,-1.4364,-1.4459,-1.4459,-1.4459,-1.5337,-1.5439,-1.4459,-1.5337,-1.5242,-1.3872,-1.4848,-1.4956,-1.4465,-1.3614,-1.2852,-1.2303,-1.0836,-0.969,0.0,0.0,-1.4088,-1.4088,-1.4088,-1.4082,-1.4088,-1.3203,-1.2328,-1.2328,-1.1381,-1.0611,-1.0524,-1.0611,-1.0246,-0.9204,-0.9058,-0.8826,-0.7945,-0.7804,-0.7865,-0.8014,-0.8035,-0.8096,0.0,-0.8262,-0.8265,-0.8272,-0.8537,-0.8699,-0.8703,-0.8849,-0.893,-0.893,-0.8937,-0.894,-0.894,-0.894,-0.894,-0.894,-0.894,-0.894,-0.8944,-0.9083,-0.9225,-0.9367,-0.9367,-0.9367,-0.9367,-0.9367,-0.9367,-0.9367,-0.9367,-0.9367,-0.9367,-0.9367,-0.9188,-0.894,-0.894,-0.894,-0.894,-0.894,-0.894,-0.894,-0.894,-0.894,-0.894,-0.894,-0.894,-0.894,-0.894,-0.894,-0.894,-0.894,-0.894,-0.894,-0.894,-0.894,-0.894,-0.894,-1.0017,-1.0992,-1.0992,-1.2172,-1.3061,-1.2946,-1.2906,-1.2825,-1.272,-1.3602,-1.4148,-1.3902,-1.4949,-1.573,-1.573,-1.573,-1.573,-1.573,-1.5737,-1.5825,-1.573,-1.5737,-1.5242,-1.3872,-1.3974,-1.329,-1.2032,-1.1935,-1.1351,-1.0075,-1.113,-1.0269,-1.4088,0.0,-1.4088,-1.4088,-1.4088,-1.4088,-1.4088,-1.3822,-1.347,-1.347,-1.3209,-1.2747,-1.2203,-1.1835,-1.1245,-0.9648,-0.9246,-0.8874,-0.7973,-0.7899,-0.798,-0.8035,-0.8038,0.0,0.0,0.0,0.0,-0.855,-0.8655,-0.8754,-0.8855,-0.891,-0.894,-0.894,-0.894,-0.894,-0.894,-0.894,-0.8988,-0.9083,-0.9184,-0.9232,-0.9235,-0.9283,-0.9334,-0.9381,-0.9381,-0.9381,-0.9381,-0.9381,-0.9381,-0.9381,-0.9381,-0.9381,-0.9381,-0.9381,-0.9317,-0.9218,-0.9117,-0.9083,-0.9066,-0.8967,-0.894,-0.894,-0.894,-0.894,-0.894,-0.894,-0.894,-0.894,-0.894,-0.894,-0.9154,-1.0135,-1.0347,-1.0676,-1.1647,-1.1864,-1.1864,-1.1864,-1.2186,-1.2512,-1.2512,-1.294,-1.3562,-1.4439,-1.4365,-1.4225,-1.4146,-1.5181,-1.5834,-1.5551,-1.5919,-1.6046,-1.5845,-1.5832,-1.5832,-1.5832,-1.5832,-1.5439,-1.4555,-1.5343,-1.5242,-1.3872,-1.3878,-1.3686,-1.3199,-1.2334,-1.1653,-1.1263,-1.0803,-1.0095,-1.4088,-1.4088,-1.4088,-1.4088,-1.4088,-1.4088,-1.4088,-1.4088,-1.4088,-1.4088,-1.4088,-1.3965,-1.3349,-1.2703,-1.1973,-1.0918,-0.9895,-0.9153,-0.8631,-0.8659,-0.8726,-0.8726,-0.9267,-0.9473,0.0,0.0,0.0,-0.8696,-0.876,-0.8835,-0.8933,-0.894,-0.894,-0.894,-0.894,-0.894,-0.894,-0.8991,-0.9089,-0.9235,-0.9334,-0.9408,-0.9462,-0.9462,-0.949,-0.9537,-0.9537,-0.9537,-0.9537,-0.9537,-0.9537,-0.9537,-0.9537,-0.9537,-0.9537,-0.9537,-0.9537,-0.951,-0.9306,-0.9235,-0.9218,-0.9127,-0.9096,-0.9096,-0.9096,-0.9096,-0.9086,-0.9032,-0.9342,-0.9769,-0.9713,-1.0135,-1.0676,-1.1647,-1.1864,-1.2186,-1.3053,-1.3264,-1.3264,-1.3264,-1.3696,-1.4019,-1.4019,-1.4454,-1.5097,-1.6062,-1.5983,-1.5723,-1.563,-1.6341,-1.6754,-1.646,-1.6426,-1.6306,-1.6012,-1.5985,-1.5945,-1.5838,-1.5832,-1.5439,-1.4657,-1.5337,-1.5242,-1.3872,-1.3878,-1.3488,-1.2517,-1.1648,-1.0974,-1.0485,-1.0194,-0.9702,-1.4088,-1.4088,-1.4088,-1.4088,-1.4088,-1.4088,-1.4088,-1.4088,-1.4088,-1.4088,-1.4088,-1.4088,0.0,0.0,-1.2412,-1.2931,-1.0997,-0.9562,-1.0028,-1.0092,-1.0096,0.0,0.0,0.0,0.0,0.0,0.0,-0.8828,0.0,-0.894,-0.894,-0.894,-0.894,-0.894,-0.894,-0.8944,-0.895,-0.91,-0.9249,-0.9395,-0.9401,-0.9479,-0.9618,-0.9618,-0.9693,-0.9822,-0.9822,-0.9822,-0.9822,-0.9822,-0.9822,-0.9822,-0.9822,-0.9822,-0.9822,-0.9822,-0.9822,-0.9781,-0.95,-0.9398,-0.9391,-0.9384,-0.9381,-0.9381,-0.9381,-0.9497,-0.9466,-0.9319,-1.0389,-1.1454,-1.1274,-1.2309,-1.3388,-1.3372,-1.3372,-1.348,-1.348,-1.348,-1.348,-1.348,-1.4556,-1.5524,-1.5524,-1.6711,-1.7582,-1.7582,-1.7582,-1.7482,-1.7208,-1.7174,-1.7054,-1.676,-1.6727,-1.6613,-1.6319,-1.6293,-1.6172,-1.5892,-1.5872,-1.5865,-1.5852,-1.5852,-1.5255,-1.3974,-1.3878,-1.2619,-1.0096,-0.9998,-0.9217,-0.8038,-0.9312,-0.9217,-1.4088,-1.4088,-1.4088,-1.4088,-1.4088,-1.4088,-1.4088,-1.4088,-1.4088,-1.4088,-1.4088,-1.4155,0.0,0.0,0.0,-1.2931,-1.1736,0.0,-1.1077,-1.126,0.0,-1.1463,0.0,-1.1861,-1.0526,-1.0712,0.0,0.0,-0.8916,-0.894,-0.894,-0.894,-0.894,-0.894,-0.894,-0.8991,-0.9096,-0.9361,-0.9513,-0.9554,-0.9659,-0.973,-0.9768,-0.9768,-0.9788,-0.9822,-0.9822,-0.9822,-0.9822,-0.9822,-0.9822,-0.9822,-0.9822,-0.9822,-0.9822,-0.9822,-0.9822,-0.9812,-0.9734,-0.9639,-0.9534,-0.9418,-0.9381,-0.9381,-0.9381,-1.0181,-1.1204,-1.1155,-1.2266,-1.3336,-1.3125,-1.3292,-1.3795,-1.4708,-1.4877,-1.5204,-1.628,-1.6499,-1.6499,-1.6499,-1.6823,-1.7041,-1.7041,-1.7364,-1.7582,-1.7582,-1.7582,-1.7555,-1.7482,-1.7468,-1.7361,-1.7068,-1.7034,-1.6914,-1.662,-1.6593,-1.6567,-1.6486,-1.648,-1.6386,-1.6166,-1.6159,-1.586,-1.5343,-1.3397,-1.2042,-1.1365,-0.9509,-0.8333,-0.8038,-0.8333,-0.8333,-1.4088,-1.4088,-1.4088,-1.4088,-1.4088,-1.4088,-1.4088,-1.4088,-1.4088,-1.4088,-1.4088,0.0,-1.4302,0.0,0.0,0.0,0.0,0.0,-1.2114,-1.2474,-1.2603,0.0,-1.3715,0.0,-1.1461,-1.1737,-1.1419,0.0,-0.9265,-0.894,-0.894,-0.894,-0.894,-0.894,-0.9658,-1.0134,-1.0486,-0.987,-0.9642,-0.9703,-0.9781,-0.9822,-0.9822,-0.9822,-0.9822,-0.9822,0.0,-0.9822,-0.9822,-0.9822,-0.9822,-0.9822,-0.9822,-0.9822,-0.9822,-0.9822,-0.9822,-0.994,-1.066,-1.0842,-1.0632,-0.9836,-0.9574,-0.9689,-1.0391,-1.1208,-1.2121,-1.273,-1.3964,-1.5161,-1.4915,-1.5305,-1.5916,-1.6427,-1.658,-1.6763,-1.7503,-1.7582,-1.7582,-1.7582,-1.7582,-1.7582,-1.7582,-1.7582,-1.7582,-1.7582,-1.7582,-1.7582,-1.7582,-1.7582,-1.7522,-1.7355,-1.7341,-1.7221,-1.6927,-1.6901,-1.6847,-1.6714,-1.6707,-1.6633,-1.6473,-1.6466,-1.6386,-1.6219,-1.412,-1.273,-1.2228,-1.0037,-0.8733,-0.8235,-0.8235,-0.8235,-1.4088,-1.4088,-1.4088,-1.4088,-1.4088,-1.4088,-1.4088,-1.4088,-1.4088,-1.4088,0.0,-1.4088,-1.4088,-1.2431,-1.1807,-1.4063,0.0,-1.0719,-1.3275,-1.3659,-1.3778,-1.4136,-1.5503,-1.5331,-1.2705,-1.2871,-1.2695,-1.1214,-1.0131,-0.9482,-0.9482,-0.9482,-0.9489,-0.9511,-1.0903,-1.1722,-1.2047,-1.0443,-0.97,-0.9822,-0.9822,-0.9822,-0.9822,-0.9822,-0.9822,-0.9822,-0.9822,0.0,-0.9822,-0.9822,-0.9822,-0.9822,-0.9822,-0.9822,-0.9819,-1.0061,-1.0058,-1.0301,-1.1976,-1.2573,-1.2333,-1.0899,-1.0418,-1.066,-1.2097,-1.2693,-1.3131,-1.4361,-1.582,-1.6803,-1.6654,-1.762,-1.8477,-1.8176,-1.8103,-1.8023,-1.7709,-1.7609,-1.7582,-1.7582,-1.7582,-1.7582,-1.7582,-1.7582,-1.7582,-1.7582,-1.7582,-1.7582,-1.7582,-1.7582,-1.7582,-1.7582,-1.7582,-1.7482,-1.7228,-1.7208,-1.7094,-1.684,-1.682,-1.6807,-1.6767,-1.6767,-1.6747,-1.6707,-1.5267,-1.3931,-1.2592,-1.116,-0.9719,-0.8482,-0.8482,-0.8482,-1.4088,-1.4088,-1.4088,-1.4088,-1.4088,-1.4088,-1.4088,-1.4088,0.0,0.0,-1.4088,-1.4088,-1.4088,-1.3737,-1.3665,-1.4064,0.0,0.0,0.0,0.0,-1.5119,0.0,0.0,0.0,0.0,0.0,0.0,0.0,0.0,-1.2512,-1.2512,-1.2512,-1.2588,-1.287,-1.2227,-1.1983,-1.2047,-1.055,-0.9795,-0.9822,-0.9822,-0.9822,-0.9822,-0.9822,-0.9822,-0.9822,-0.9822,0.0,-0.9822,-0.9822,-0.9822,-0.9822,-0.9822,-0.9822,-0.994,-1.1257,-1.1736,-1.1976,-1.3646,-1.4123,-1.4128,-1.3889,-1.377,-1.377,-1.4128,-1.5069,-1.6245,-1.644,-1.7738,-1.8859,-1.8571,-1.8618,-1.8778,-1.8484,-1.841,-1.833,-1.8029,-1.7762,-1.7582,-1.7582,-1.7582,-1.7582,-1.7582,-1.7582,-1.7582,-1.7582,-1.7582,-1.7582,-1.7582,-1.7582,-1.7582,-1.7582,-1.7582,-1.7562,-1.7508,-1.7508,-1.7482,-1.7435,-1.7428,-1.7321,-1.7081,-1.7074,-1.6954,-1.6707,-1.5362,-1.4027,-1.2592,-1.1259,-0.9924,-0.8482,-0.8482,-0.8482,-1.4088,-1.4088,-1.4088,-1.4088,-1.4088,-1.4088,-1.4088,0.0,0.0,0.0,-1.4088,-1.4088,-1.4088,-1.3555,0.0,0.0,0.0,0.0,0.0,0.0,0.0,0.0,0.0,0.0,0.0,0.0,0.0,0.0,0.0,-1.4019,-1.3372,-1.3485,-1.3978,-1.4988,-1.3854,-1.3269,-1.3377,-1.1811,-1.066,-0.9822,-0.9822,-0.9822,-0.9822,-0.9822,-0.9822,-0.9822,-0.9822,0.0,-0.9822,-0.9822,-1.0301,-1.102,-1.102,-1.1619,-1.2333,-1.3172,-1.3412,-1.3646,-1.5311,-1.5902,-1.602,-1.6862,-1.5908,-1.4718,-1.5548,-1.6374,-1.7202,-1.8046,-1.8765,-1.9332,-1.9192,-1.9152,-1.9078,-1.8784,-1.8597,-1.845,-1.831,-1.8036,-1.7822,-1.7822,-1.7695,-1.7582,-1.7582,-1.7582,-1.7582,-1.7582,-1.7582,-1.7582,-1.7582,-1.7582,-1.7582,-1.7582,-1.7582,-1.7582,-1.7582,-1.7582,-1.7582,-1.7582,-1.7582,-1.7522,-1.7382,-1.7375,-1.7308,-1.7168,-1.5786,-1.4415,-1.2941,-1.1571,-1.0202,-0.872,-0.872,-0.872,-1.4088,-1.4088,-1.4088,-1.4088,-1.4088,-1.4088,-1.4088,-1.4088,0.0,0.0,-1.4088,-1.4088,-1.4088,0.0,-1.3027,0.0,-1.3345,0.0,0.0,0.0,0.0,0.0,0.0,0.0,0.0,0.0,0.0,0.0,0.0,0.0,-1.4234,-1.451,-1.5316,-1.6751,-1.5576,-1.5008,-1.5074,-1.3526,-1.2097,-1.0778,-1.0539,-1.0301,-1.0301,-0.994,-0.9822,-0.9822,-0.9822,0.0,0.0,-1.0301,-1.1257,-1.2693,-1.2693,-1.3531,-1.4604,-1.496,-1.5074,-1.5311,-1.6973,-1.756,-1.7683,-1.9004,-1.7695,-1.5908,-1.7091,-1.756,-1.7806,-1.9004,-1.9366,-1.9366,-1.9366,-1.9366,-1.9305,-1.9078,-1.8798,-1.8584,-1.8584,-1.835,-1.8123,-1.8056,-1.7849,-1.7662,-1.7595,-1.7582,-1.7582,-1.7582,-1.7582,-1.7582,-1.7582,-1.7582,-1.7582,-1.7582,-1.7582,-1.7582,-1.7582,-1.7582,-1.7582,-1.7582,-1.7582,-1.7582,-1.7582,-1.7582,-1.7582,-1.7582,-1.6174,-1.4663,-1.3264,-1.1864,-1.0351,-0.894,-0.894,-0.894,-1.4088,-1.4088,-1.4088,-1.4088,-1.4088,-1.4088,-1.4088,0.0,0.0,-1.4088,-1.4088,-1.4088,-1.4088,-1.3997,-1.3997,0.0,0.0,-1.4495,0.0,0.0,0.0,0.0,0.0,0.0,0.0,0.0,0.0,0.0,0.0,0.0,-1.7259,-1.7797,-1.8118,-1.8255,-1.7262,-1.6821,-1.6727,-1.5192,-1.4361,-1.4123,-1.2693,-1.1976,-1.1976,-1.0418,-0.9822,-0.9822,-0.9822,0.0,0.0,-1.1976,-1.2933,-1.4366,-1.4366,-1.4485,-1.4723,-1.6256,-1.6727,-1.6968,-1.8648,-1.9127,-1.9243,-1.9366,-1.9243,-1.9004,-1.9127,-1.9127,-1.9243,-1.9366,-1.9366,-1.9366,-1.9366,-1.9366,-1.9359,-1.9332,-1.9098,-1.8885,-1.8885,-1.8657,-1.837,-1.8096,-1.8023,-1.7916,-1.7629,-1.7582,-1.7582,-1.7582,-1.7582,-1.7582,-1.7582,-1.7582,-1.7582,-1.7582,-1.7582,-1.7582,-1.7582,-1.7582,-1.7582,-1.7582,-1.7582,-1.7582,-1.7582,-1.7582,-1.7582,-1.7582,-1.6174,-1.4663,-1.3264,-1.1864,-1.0351,-0.894,-0.894,-0.894,-1.3906,-1.3561,-1.3203,-1.3913,-1.4088,-1.4088,-1.4088,0.0,-1.4088,-1.4088,-1.4088,-1.4088,-1.4088,-1.4088,-1.4088,0.0,0.0,0.0,0.0,0.0,0.0,0.0,0.0,0.0,0.0,0.0,0.0,0.0,0.0,0.0,-1.7582,-1.8163,-1.849,-1.849,-1.8466,-1.7929,-1.6968,-1.6374,-1.5548,-1.4604,-1.4004,-1.3646,-1.3646,-1.2928,-1.2693,-1.2693,-1.2693,0.0,0.0,-1.3646,-1.4599,-1.602,-1.602,-1.6621,-1.7572,-1.8169,-1.8402,-1.8525,-1.9127,-1.9366,-1.9366,-1.9366,-1.9366,-1.9366,-1.9366,-1.9366,-1.9366,-1.9366,-1.9366,-1.9366,-1.9366,-1.9366,-1.9366,-1.9366,-1.9279,-1.9192,-1.9192,-1.8958,-1.8718,-1.8597,-1.843,-1.8217,-1.7916,-1.7862,-1.7796,-1.7609,-1.7582,-1.7582,-1.7582,-1.7582,-1.7582,-1.7582,-1.7582,-1.7582,-1.7582,-1.7582,-1.7582,-1.7582,-1.7582,-1.7582,-1.7582,-1.7582,-1.7582,-1.7582,-1.6174,-1.4663,-1.3264,-1.1864,-1.0351,-0.894,-0.894,-0.894,-1.3906,-1.347,-1.3033,-1.3913,-1.4088,-1.4088,0.0,0.0,-1.4088,-1.4088,-1.4088,-1.4088,-1.4088,-1.4088,-1.4088,0.0,0.0,-1.4389,-1.4897,0.0,0.0,0.0,0.0,0.0,0.0,0.0,0.0,0.0,0.0,0.0,-1.7582,-1.8163,-1.849,-1.849,-1.9058,-1.8887,-1.7683,-1.7683,-1.7091,-1.6031,-1.5553,-1.5311,-1.5311,-1.4842,-1.4604,-1.4604,-1.4604,0.0,0.0,-1.5311,-1.6262,-1.7683,-1.7683,-1.8402,-1.9366,-1.9366,-1.9366,-1.9366,-1.9366,-1.9366,-1.9366,-1.9366,-1.9366,-1.9366,-1.9366,-1.9366,-1.9366,-1.9366,-1.9366,-1.9366,-1.9366,-1.9366,-1.9366,-1.9366,-1.9366,-1.9366,-1.9366,-1.9199,-1.9025,-1.8945,-1.8758,-1.8524,-1.823,-1.8103,-1.7969,-1.7756,-1.7642,-1.7582,-1.7582,-1.7582,-1.7582,-1.7582,-1.7582,-1.7582,-1.7582,-1.7582,-1.7582,-1.7582,-1.7582,-1.7582,-1.7582,-1.7582,-1.7364,-1.6935,-1.5524,-1.4126,-1.262,-1.1214,-0.9915,-0.894,-0.894,-0.894,-1.4088,-1.4088,-1.4088,-1.4088,-1.4088,-1.4088,0.0,-1.4088,-1.4088,-1.4088,-1.4088,-1.4088,-1.4088,-1.4088,-1.4088,-1.4088,0.0,0.0,-1.4923,0.0,0.0,0.0,0.0,0.0,0.0,0.0,0.0,0.0,0.0,0.0,-1.7582,-1.8163,-1.849,-1.849,-1.9058,-1.9366,-1.9366,-1.9366,-1.9366,-1.9366,-1.7689,-1.6968,-1.6968,-1.5311,-1.4604,-1.4604,0.0,0.0,0.0,-1.6968,-1.7923,-1.9366,-1.9366,-1.9366,-1.9366,-1.9366,-1.9366,-1.9366,-1.9366,-1.9366,-1.9366,-1.9366,-1.9366,-1.9366,-1.9366,-1.9366,-1.9366,-1.9366,-1.9366,-1.9366,-1.9366,-1.9366,-1.9366,-1.9366,-1.9366,-1.9366,-1.9366,-1.9366,-1.9279,-1.8978,-1.8918,-1.8824,-1.8537,-1.8243,-1.805,-1.8043,-1.7776,-1.7582,-1.7582,-1.7582,-1.7582,-1.7582,-1.7582,-1.7582,-1.7582,-1.7582,-1.7582,-1.7582,-1.7582,-1.7582,-1.7582,-1.7582,-1.6929,-1.5417,-1.4019,-1.262,-1.1105,-0.9588,-0.894,-0.894,-0.894,-0.894,-1.2851,-1.2851,-1.2851,-1.2851,-1.347,-1.3906,-1.3027,-1.347,-1.4088,-1.4088,-1.4088,-1.4088,-1.4088,-1.4088,-1.4088,-1.4088,-1.4162,0.0,0.0,0.0,0.0,0.0,0.0,0.0,0.0,0.0,0.0,0.0,0.0,0.0,-1.7582,-1.8163,-1.849,-1.849,-1.9058,-1.9366,-1.9366,-1.9366,-1.9366,-1.9366,-1.8887,-1.8642,-1.8642,-1.8169,-1.7929,0.0,0.0,0.0,0.0,-1.8642,-1.8887,-1.9366,-1.9366,-1.9366,-1.9366,-1.9366,-1.9366,-1.9366,-1.9366,-1.9366,-1.9366,-1.9366,-1.9366,-1.9366,-1.9366,-1.9366,-1.9366,-1.9366,-1.9366,-1.9366,-1.9366,-1.9366,-1.9366,-1.9366,-1.9366,-1.9366,-1.9366,-1.9366,-1.9339,-1.9245,-1.9225,-1.9132,-1.8838,-1.8711,-1.851,-1.811,-1.7963,-1.7822,-1.7609,-1.7582,-1.7582,-1.7582,-1.7582,-1.7582,-1.7582,-1.7582,-1.7582,-1.7582,-1.7582,-1.7582,-1.7582,-1.6605,-1.5849,-1.5417,-1.3048,-1.1538,-1.1105,-0.9588,-0.894,-0.894,-0.894,-0.894,0.0,-1.2942,-1.2942,-1.2942,-1.3555,0.0,0.0,-1.3555,-1.4088,-1.4088,-1.4088,-1.4088,-1.4088,-1.4088,-1.4088,-1.4088,-1.4088,0.0,0.0,0.0,0.0,0.0,0.0,0.0,0.0,0.0,0.0,0.0,0.0,0.0,-1.7582,-1.805,-1.8377,-1.849,-1.9058,-1.9366,-1.9366,-1.9366,-1.9366,-1.9366,-1.9366,-1.9366,-1.9366,-1.9366,-1.9366,0.0,0.0,0.0,0.0,-1.9366,-1.9366,-1.9366,-1.9366,-1.9366,-1.9366,-1.9366,-1.9366,-1.9366,-1.9366,-1.9366,-1.9366,-1.9366,-1.9366,-1.9366,-1.9366,-1.9366,-1.9366,-1.9366,-1.9366,-1.9366,-1.9366,-1.9366,-1.9366,-1.9366,-1.9366,-1.9366,-1.9366,-1.9366,-1.9366,-1.9366,-1.9366,-1.9305,-1.9125,-1.8998,-1.8764,-1.8283,-1.8116,-1.7936,-1.7622,-1.7582,-1.7582,-1.7582,-1.7582,-1.7582,-1.7582,-1.7582,-1.7582,-1.7582,-1.7582,-1.7582,-1.7582,-1.6717,-1.5962,-1.5417,-1.3156,-1.1647,-1.1105,-0.9588,-0.894,-0.894,-0.894,-0.894,0.0,-1.3997,0.0,0.0,0.0,0.0,-1.3997,-1.3997,0.0,-1.4088,-1.4088,-1.4088,-1.4088,-1.4088,-1.4088,-1.4088,0.0,0.0,0.0,0.0,0.0,0.0,0.0,0.0,0.0,0.0,0.0,0.0,0.0,0.0,-1.7582,-1.7876,-1.817,-1.845,-1.9032,-1.9345,-1.9366,-1.9366,-1.9366,-1.9366,-1.9366,-1.9366,-1.9366,-1.9366,-1.9366,0.0,0.0,0.0,0.0,-1.9366,-1.9366,-1.9366,-1.9366,-1.9366,-1.9366,-1.9366,-1.9366,-1.9366,-1.9366,-1.9366,-1.9366,-1.9366,-1.9366,-1.9366,-1.9366,-1.9366,-1.9366,-1.9366,-1.9366,-1.9366,-1.9366,-1.9366,-1.9366,-1.9366,-1.9366,-1.9366,-1.9366,-1.9366,-1.9366,-1.9366,-1.9366,-1.9366,-1.9366,-1.9138,-1.8858,-1.8564,-1.827,-1.7963,-1.7655,-1.7595,-1.7582,-1.7582,-1.7582,-1.7582,-1.7582,-1.7582,-1.7582,-1.7582,-1.7582,-1.7582,-1.7582,-1.7477,-1.6823,-1.5417,-1.3911,-1.2512,-1.1105,-0.9699,-0.9047,-0.9047,-0.9047,-0.9047,-1.2942,0.0,-1.3906,-1.2942,-1.3379,-1.3822,0.0,-1.347,-1.4088,-1.4088,0.0,-1.4088,-1.4088,-1.4088,-1.4088,0.0,0.0,0.0,0.0,0.0,0.0,0.0,0.0,0.0,0.0,0.0,0.0,0.0,0.0,-1.7582,-1.7582,-1.7876,-1.8083,-1.815,-1.8718,-1.9138,-1.9366,-1.9366,-1.9366,-1.9366,-1.9366,-1.9366,-1.9366,-1.9366,-1.9366,0.0,0.0,0.0,-1.9366,-1.9366,-1.9366,-1.9366,-1.9366,-1.9366,-1.9366,-1.9366,-1.9366,-1.9366,-1.9366,-1.9366,-1.9366,-1.9366,-1.9366,-1.9366,-1.9366,-1.9366,-1.9366,-1.9366,-1.9366,-1.9366,-1.9366,-1.9366,-1.9366,-1.9366,-1.9366,-1.9366,-1.9366,-1.9366,-1.9366,-1.9366,-1.9366,-1.9366,-1.9366,-1.9305,-1.9158,-1.8865,-1.8571,-1.8277,-1.7976,-1.7729,-1.7582,-1.7582,-1.7582,-1.7582,-1.7582,-1.7582,-1.7582,-1.7582,-1.7582,-1.7582,-1.7582,-1.6499,-1.5737,-1.5417,-1.294,-1.1433,-1.1105,-1.0781,-1.0566,-1.0566,-1.0566,-1.0025,-1.1986,-1.2772,-1.3913,-1.3294,-1.3646,-1.3913,-1.3288,0.0,0.0,0.0,0.0,0.0,0.0,0.0,0.0,0.0,-1.4088,0.0,0.0,0.0,0.0,0.0,0.0,0.0,0.0,0.0,0.0,0.0,0.0,-1.7582,-1.7582,-1.7742,-1.7903,-1.8043,-1.8357,-1.8724,-1.9158,-1.9299,-1.9366,-1.9366,-1.9366,-1.9366,-1.9366,-1.9366,-1.9366,0.0,0.0,0.0,-1.9366,-1.9366,-1.9366,-1.9366,-1.9366,-1.9366,-1.9366,-1.9366,-1.9366,-1.9366,-1.9366,-1.9366,-1.9366,-1.9366,-1.9366,-1.9366,-1.9366,-1.9366,-1.9366,-1.9366,-1.9366,-1.9366,-1.9366,-1.9366,-1.9366,-1.9366,-1.9366,-1.9366,-1.9366,-1.9366,-1.9366,-1.9366,-1.9366,-1.9366,-1.9366,-1.9366,-1.9265,-1.8965,-1.8677,-1.8384,-1.8083,-1.7776,-1.7582,-1.7582,-1.7582,-1.7582,-1.7582,-1.7582,-1.7582,-1.7582,-1.7582,-1.7582,-1.7582,-1.6823,-1.6062,-1.5417,-1.3264,-1.2077,-1.2082,-1.1433,-1.1433,-1.2077,-1.2077,-1.1647,-1.1472,-1.2431,-1.4088,-1.4088,-1.4088,-1.4088,-1.4088,0.0,0.0,0.0,0.0,0.0,0.0,-1.4088,0.0,0.0,0.0,0.0,0.0,0.0,0.0,0.0,0.0,0.0,0.0,0.0,0.0,0.0,0.0,-1.7582,-1.7582,-1.7582,-1.7702,-1.7969,-1.8023,-1.8283,-1.8784,-1.9125,-1.9325,-1.9366,-1.9366,-1.9366,-1.9366,-1.9366,-1.9366,-1.9366,0.0,0.0,-1.9366,-1.9366,-1.9366,-1.9366,-1.9366,-1.9366,-1.9366,-1.9366,-1.9366,-1.9366,-1.9366,-1.9366,-1.9366,-1.9366,-1.9366,-1.9366,-1.9366,-1.9366,-1.9366,-1.9366,-1.9366,-1.9366,-1.9366,-1.9366,-1.9366,-1.9366,-1.9366,-1.9366,-1.9366,-1.9366,-1.9366,-1.9366,-1.9366,-1.9366,-1.9366,-1.9366,-1.9279,-1.9032,-1.8744,-1.845,-1.8156,-1.7842,-1.7635,-1.7589,-1.7582,-1.7582,-1.7582,-1.7582,-1.7582,-1.7582,-1.7582,-1.7582,-1.7582,-1.7582,-1.6929,-1.5417,-1.4234,-1.3588,-1.3588,-1.2403,-1.2403,-1.3588,-1.3588,-1.3372,-1.2419,-1.3033,-1.4088,-1.4088,-1.4088,-1.4088,-1.4088,0.0,0.0,0.0,0.0,0.0,0.0,0.0,0.0,0.0,0.0,0.0,0.0,0.0,0.0,0.0,0.0,0.0,0.0,0.0,0.0,0.0,0.0,-1.7582,-1.7582,-1.7582,-1.7602,-1.7655,-1.7909,-1.809,-1.8183,-1.8718,-1.9118,-1.9366,-1.9366,-1.9366,-1.9366,-1.9366,-1.9366,-1.9366,0.0,-1.9366,-1.9366,-1.9366,-1.9366,-1.9366,-1.9366,-1.9366,-1.9366,-1.9366,-1.9366,-1.9366,-1.9366,-1.9366,-1.9366,-1.9366,-1.9366,-1.9366,-1.9366,-1.9366,-1.9366,-1.9366,-1.9366,-1.9366,-1.9366,-1.9366,-1.9366,-1.9366,-1.9366,-1.9366,-1.9366,-1.9366,-1.9366,-1.9366,-1.9366,-1.9366,-1.9366,-1.9366,-1.9352,-1.9305,-1.9045,-1.8751,-1.8464,-1.8156,-1.7876,-1.7609,-1.7582,-1.7582,-1.7582,-1.7582,-1.7582,-1.7582,-1.7582,-1.7582,-1.7582,-1.7582,-1.6929,-1.5417,-1.5204,-1.5091,-1.5091,-1.4877,-1.4877,-1.5091,-1.5091,-1.3804,-1.2589,-1.3203,-1.4088,-1.4088,-1.4088,-1.4088,-1.4088,0.0,0.0,0.0,0.0,0.0,0.0,0.0,0.0,0.0,0.0,0.0,0.0,0.0,0.0,0.0,0.0,0.0,0.0,0.0,0.0,0.0,0.0,0.0,-1.7582,-1.7582,-1.7582,-1.7582,-1.7722,-1.7876,-1.805,-1.8317,-1.8597,-1.8898,-1.9052,-1.9125,-1.9132,-1.9292,-1.9366,-1.9366,0.0,-1.9366,-1.9366,-1.9366,-1.9366,-1.9366,-1.9366,-1.9366,-1.9366,-1.9366,-1.9366,-1.9366,-1.9366,-1.9366,-1.9366,-1.9366,-1.9366,-1.9366,-1.9366,-1.9366,-1.9366,-1.9366,-1.9366,-1.9366,-1.9366,-1.9366,-1.9366,-1.9366,-1.9366,-1.9366,-1.9366,-1.9366,-1.9366,-1.9366,-1.9366,-1.9366,-1.9366,-1.9366,-1.9366,-1.9366,-1.9112,-1.8818,-1.8524,-1.823,-1.7929,-1.7615,-1.7582,-1.7582,-1.7582,-1.7582,-1.7582,-1.7582,-1.7582,-1.7582,-1.7582,-1.7582,-1.7259,-1.6605,-1.5849,-1.5743,-1.6605,-1.5743,-1.5849,-1.6605,-1.5743,-1.4663,-1.2942,-1.3385,-1.4088,-1.4088,0.0,-1.4088,-1.4088,0.0,0.0,0.0,0.0,0.0,0.0,0.0,0.0,0.0,0.0,0.0,0.0,0.0,0.0,0.0,0.0,0.0,0.0,0.0,0.0,0.0,0.0,0.0,-1.7582,-1.7582,-1.7582,-1.7582,-1.7582,-1.7695,-1.7936,-1.7943,-1.8123,-1.8497,-1.8718,-1.8824,-1.8831,-1.9058,-1.9165,-1.9165,-1.9165,-1.9199,-1.9265,-1.9265,-1.9305,-1.9366,-1.9366,-1.9366,-1.9366,-1.9366,-1.9366,-1.9366,-1.9366,-1.9366,-1.9366,-1.9366,-1.9366,-1.9366,-1.9366,-1.9366,-1.9366,-1.9366,-1.9366,-1.9366,-1.9366,-1.9366,-1.9366,-1.9366,-1.9366,-1.9366,-1.9366,-1.9366,-1.9366,-1.9366,-1.9366,-1.9366,-1.9366,-1.9366,-1.9366,-1.9366,-1.9172,-1.8898,-1.8537,-1.829,-1.8003,-1.7622,-1.7582,-1.7582,-1.7582,-1.7582,-1.7582,-1.7582,-1.7582,-1.7582,-1.7582,-1.7582,-1.7582,-1.7582,-1.6499,-1.6499,-1.7582,-1.6499,-1.6499,-1.7582,-1.6062,-1.5204,-1.3997,-1.3997,-1.4088,-1.4088,-1.4088,0.0,-1.4088,-1.4088,0.0,-1.4088,0.0,0.0,0.0,0.0,0.0,0.0,0.0,0.0,0.0,0.0,0.0,0.0,0.0,0.0,0.0,0.0,0.0,0.0,0.0,0.0,-1.7582,-1.7582,-1.7582,-1.7582,-1.7582,-1.7595,-1.7615,-1.7615,-1.7909,-1.849,-1.851,-1.8524,-1.8524,-1.8544,-1.8551,-1.8551,-1.8551,-1.8711,-1.8958,-1.8958,-1.9118,-1.9366,-1.9366,-1.9366,-1.9366,-1.9366,-1.9366,-1.9366,-1.9366,-1.9366,-1.9366,-1.9366,-1.9366,-1.9366,-1.9366,-1.9366,-1.9366,-1.9366,-1.9366,-1.9366,-1.9366,-1.9366,-1.9366,-1.9366,-1.9366,-1.9366,-1.9366,-1.9366,-1.9366,-1.9366,-1.9366,-1.9366,-1.9366,-1.9366,-1.9366,-1.9366,-1.9352,-1.9132,-1.8564,-1.847,-1.823,-1.7642,-1.7582,-1.7582,-1.7582,-1.7582,-1.7582,-1.7582,-1.7582,-1.7582,-1.7582,-1.7582,-1.7582,-1.7582,-1.7477,-1.7477,-1.7582,-1.7477,-1.7477,-1.7582,-1.6062,-1.4663,-1.4088,-1.4088,-1.4088,-1.4088,-1.4088,0.0,0.0,-1.4088,-1.4088,-1.4088,-1.4088,0.0,0.0,0.0,0.0,0.0,0.0,0.0,0.0,0.0,0.0,0.0,0.0,0.0,0.0,0.0,0.0,0.0,0.0,0.0,-1.7582,-1.7582,-1.7582,-1.7582,-1.7582,-1.7582,-1.7582,-1.7582,-1.7695,-1.7929,-1.8123,-1.8217,-1.8223,-1.8404,-1.849,-1.849,-1.849,-1.8551,-1.8651,-1.8651,-1.8718,-1.8824,-1.8824,-1.8931,-1.9092,-1.9092,-1.9205,-1.9366,-1.9366,-1.9366,-1.9366,-1.9366,-1.9366,-1.9366,-1.9366,-1.9366,-1.9366,-1.9366,-1.9366,-1.9366,-1.9366,-1.9366,-1.9366,-1.9366,-1.9366,-1.9366,-1.9366,-1.9366,-1.9366,-1.9366,-1.9366,-1.9366,-1.9366,-1.9366,-1.9366,-1.9366,-1.9366,-1.9158,-1.8571,-1.849,-1.8257,-1.7649,-1.7582,-1.7582,-1.7582,-1.7582,-1.7582,-1.7582,-1.7582,-1.7582,-1.7582,-1.7582,-1.7582,-1.7582,-1.7582,-1.7582,-1.7582,-1.7582,-1.7147,-1.6174,-1.4776,-1.3372,-1.4088,-1.4088,-1.4088,0.0,0.0,0.0,-1.4088,-1.4088,-1.4088,-1.4088,-1.4088,0.0,0.0,0.0,0.0,0.0,0.0,0.0,0.0,0.0,0.0,0.0,0.0,0.0,0.0,0.0,0.0,0.0,0.0,0.0,0.0,-1.7582,-1.7582,-1.7582,-1.7582,-1.7582,-1.7582,-1.7582,-1.7582,-1.7589,-1.7796,-1.7903,-1.7909,-1.811,-1.8203,-1.8203,-1.8203,-1.8263,-1.835,-1.835,-1.8404,-1.849,-1.849,-1.8611,-1.8784,-1.8784,-1.8918,-1.9092,-1.9092,-1.9092,-1.9105,-1.9199,-1.9225,-1.9245,-1.9339,-1.9366,-1.9366,-1.9366,-1.9366,-1.9366,-1.9366,-1.9366,-1.9366,-1.9366,-1.9366,-1.9366,-1.9366,-1.9366,-1.9366,-1.9366,-1.9366,-1.9366,-1.9366,-1.9366,-1.9366,-1.9366,-1.9366,-1.9158,-1.8571,-1.849,-1.8257,-1.7649,-1.7582,-1.7582,-1.7582,-1.7582,-1.7582,-1.7582,-1.7582,-1.7582,-1.7582,-1.7582,-1.7582,-1.7582,-1.7582,-1.7582,-1.7582,-1.7582,-1.6823,-1.5417,-1.3911,-1.2729,-1.4088,-1.4088,0.0,0.0,0.0,0.0,-1.4088,-1.4088,-1.4088,-1.4088,0.0,-1.4088,-1.4088,0.0,0.0,0.0,0.0,0.0,0.0,0.0,0.0,0.0,0.0,0.0,0.0,0.0,0.0,0.0,0.0,0.0,0.0,-1.7582,-1.7582,-1.7582,-1.7582,-1.7582,-1.7582,-1.7582,-1.7582,-1.7582,-1.7582,-1.7582,-1.7582,-1.7582,-1.7582,-1.7582,-1.7582,-1.7756,-1.8043,-1.8043,-1.8217,-1.8484,-1.8484,-1.8484,-1.849,-1.849,-1.849,-1.849,-1.849,-1.849,-1.8537,-1.8824,-1.8918,-1.8978,-1.9272,-1.9359,-1.9366,-1.9366,-1.9366,-1.9366,-1.9366,-1.9366,-1.9366,-1.9366,-1.9366,-1.9366,-1.9366,-1.9366,-1.9366,-1.9366,-1.9366,-1.9366,-1.9366,-1.9366,-1.9366,-1.9366,-1.9366,-1.9152,-1.8564,-1.8484,-1.825,-1.7649,-1.7582,-1.7582,-1.7582,-1.7582,-1.7582,-1.7582,-1.7582,-1.7582,-1.7582,-1.7582,-1.7582,-1.7582,-1.7582,-1.7582,-1.7582,-1.7582,-1.6823,-1.5417,-1.4019,-1.3264,-1.4088,-1.4088,0.0,-1.4088,0.0,0.0,0.0,-1.4088,0.0,0.0,0.0,-1.4088,-1.4088,0.0,0.0,0.0,0.0,0.0,0.0,0.0,0.0,0.0,0.0,0.0,0.0,0.0,0.0,0.0,0.0,0.0,0.0,-1.7468,-1.7582,-1.7582,-1.7582,-1.7582,-1.7582,-1.7582,-1.7582,-1.7582,-1.7582,-1.7582,-1.7582,-1.7582,-1.7582,-1.7582,-1.7582,-1.7635,-1.7722,-1.7722,-1.7776,-1.7849,-1.7849,-1.7989,-1.8183,-1.8183,-1.831,-1.849,-1.849,-1.849,-1.8504,-1.8591,-1.8617,-1.8637,-1.8724,-1.8891,-1.9058,-1.9058,-1.9205,-1.9366,-1.9366,-1.9366,-1.9366,-1.9366,-1.9366,-1.9366,-1.9366,-1.9366,-1.9366,-1.9366,-1.9366,-1.9366,-1.9366,-1.9366,-1.9366,-1.9366,-1.9192,-1.8844,-1.8257,-1.7989,-1.7782,-1.7602,-1.7582,-1.7582,-1.7582,-1.7582,-1.7582,-1.7582,-1.7582,-1.7582,-1.7582,-1.7582,-1.7582,-1.7582,-1.7582,-1.7582,-1.7582,-1.7582,-1.6823,-1.5417,-1.4984,-1.3696,-1.4088,0.0,0.0,-1.4088,-1.4088,-1.4088,-1.4088,0.0,0.0,0.0,0.0,-1.4088,-1.4088,-1.4088,0.0,0.0,0.0,0.0,0.0,0.0,0.0,0.0,0.0,0.0,0.0,0.0,0.0,0.0,0.0,0.0,0.0,-1.7134,-1.7288,-1.7408,-1.7408,-1.7468,-1.7582,-1.7582,-1.7582,-1.7582,-1.7582,-1.7582,-1.7582,-1.7582,-1.7582,-1.7582,-1.7582,-1.7582,-1.7582,-1.7582,-1.7582,-1.7582,-1.7582,-1.7695,-1.7862,-1.7862,-1.7976,-1.813,-1.813,-1.813,-1.815,-1.8277,-1.831,-1.8337,-1.8457,-1.8611,-1.8751,-1.8751,-1.8878,-1.9018,-1.9018,-1.9105,-1.9219,-1.9339,-1.9366,-1.9366,-1.9366,-1.9366,-1.9366,-1.9366,-1.9366,-1.9366,-1.9366,-1.9366,-1.9325,-1.9205,-1.8844,-1.845,-1.809,-1.7776,-1.7582,-1.7582,-1.7582,-1.7582,-1.7582,-1.7582,-1.7582,-1.7582,-1.7582,-1.7582,-1.7582,-1.7582,-1.7582,-1.7582,-1.7582,-1.7582,-1.7582,-1.7582,-1.6823,-1.5417,-1.5417,-1.4126,-1.4088,0.0,0.0,-1.4088,-1.4088,0.0,-1.4088,-1.4088,-1.4088,-1.4088,0.0,-1.4088,-1.4088,0.0,0.0,0.0,0.0,0.0,0.0,0.0,0.0,0.0,0.0,0.0,0.0,0.0,0.0,0.0,0.0,0.0,0.0,-1.6693,-1.6834,-1.7101,-1.7108,-1.7235,-1.7502,-1.7502,-1.7502,-1.7502,-1.7502,-1.7515,-1.7542,-1.7569,-1.7582,-1.7582,-1.7582,-1.7582,-1.7582,-1.7582,-1.7582,-1.7582,-1.7582,-1.7582,-1.7582,-1.7582,-1.7582,-1.7582,-1.7582,-1.7582,-1.7629,-1.7909,-1.8003,-1.8056,-1.8323,-1.843,-1.845,-1.845,-1.847,-1.849,-1.849,-1.8684,-1.8951,-1.9225,-1.9325,-1.9366,-1.9366,-1.9366,-1.9359,-1.9332,-1.9325,-1.9319,-1.9292,-1.9285,-1.9185,-1.8885,-1.839,-1.8036,-1.8009,-1.7756,-1.7582,-1.7582,-1.7582,-1.7582,-1.7582,-1.7582,-1.7582,-1.7582,-1.7582,-1.7582,-1.7582,-1.7582,-1.7582,-1.7582,-1.7582,-1.7582,-1.7582,-1.7582,-1.6929,-1.5636,-1.5636,-1.477,-1.4088,-1.4088,0.0,0.0,-1.4088,-1.4088,-1.4088,-1.4088,-1.4088,-1.4088,-1.4088,-1.4088,0.0,0.0,0.0,0.0,0.0,0.0,0.0,0.0,0.0,0.0,0.0,0.0,0.0,0.0,0.0,0.0,0.0,0.0,-1.6359,-1.6587,-1.6734,-1.68,-1.68,-1.6834,-1.6894,-1.6894,-1.6894,0.0,-1.6894,-1.7014,-1.7248,-1.7475,-1.7582,-1.7582,-1.7582,-1.7582,-1.7582,-1.7582,-1.7582,-1.7582,-1.7582,-1.7582,-1.7582,-1.7582,-1.7582,-1.7582,-1.7582,-1.7582,-1.7595,-1.7662,-1.7682,-1.7695,-1.7762,-1.7949,-1.8143,-1.8143,-1.831,-1.849,-1.849,-1.8537,-1.8597,-1.8664,-1.9032,-1.9366,-1.9366,-1.9366,-1.9299,-1.9065,-1.9018,-1.8945,-1.8718,-1.8677,-1.8577,-1.8283,-1.813,-1.7956,-1.7716,-1.7622,-1.7582,-1.7582,-1.7582,-1.7582,-1.7582,-1.7582,-1.7582,-1.7582,-1.7582,-1.7582,-1.7582,-1.7582,-1.7582,-1.7582,-1.7582,-1.7582,-1.7582,-1.7582,-1.747,-1.7147,-1.7147,-1.5743,0.0,0.0,0.0,-1.4088,0.0,0.0,-1.4088,-1.4088,-1.4088,-1.4088,-1.4088,0.0,0.0,0.0,0.0,0.0,0.0,0.0,0.0,0.0,0.0,0.0,0.0,0.0,0.0,0.0,0.0,0.0,0.0,-1.6059,-1.6059,-1.6199,-1.6353,-1.6493,-1.65,-1.6567,-1.6707,-1.6707,-1.6707,-1.6707,-1.6707,-1.6787,-1.6954,-1.7388,-1.7582,-1.7582,-1.7582,-1.7582,-1.7582,-1.7582,-1.7582,-1.7582,-1.7582,-1.7582,-1.7582,-1.7582,-1.7582,-1.7582,-1.7582,-1.7582,-1.7582,-1.7582,-1.7582,-1.7582,-1.7582,-1.7695,-1.7822,-1.7822,-1.7936,-1.8056,-1.8056,-1.8163,-1.8277,-1.8277,-1.8617,-1.8945,-1.8945,-1.8945,-1.8905,-1.8744,-1.8718,-1.8664,-1.8517,-1.837,-1.8223,-1.807,-1.7916,-1.7762,-1.7602,-1.7582,-1.7582,-1.7582,-1.7582,-1.7582,-1.7582,-1.7582,-1.7582,-1.7582,-1.7582,-1.7582,-1.7582,-1.7582,-1.7582,-1.7582,-1.7582,-1.7582,-1.7582,-1.7582,-1.7582,-1.7582,-1.6929,-1.5423,0.0,0.0,-1.4088,-1.4088,-1.4088,0.0,-1.4088,-1.4088,-1.4088,-1.4088,0.0,0.0,0.0,0.0,0.0,0.0,0.0,0.0,0.0,0.0,0.0,0.0,0.0,0.0,0.0,0.0,0.0,0.0,0.0,-1.5832,-1.5832,-1.5832,-1.5945,-1.6186,-1.6192,-1.6313,-1.6553,-1.6553,-1.6553,-1.6553,-1.6607,-1.6627,-1.6647,-1.7188,-1.7428,-1.7428,-1.7428,-1.7462,-1.7508,-1.7508,-1.7535,-1.7582,-1.7582,-1.7582,-1.7582,-1.7582,-1.7582,-1.7582,-1.7582,-1.7582,-1.7582,-1.7582,-1.7582,-1.7582,-1.7582,-1.7582,-1.7582,-1.7582,-1.7582,-1.7582,-1.7582,-1.7776,-1.7969,-1.7969,-1.815,-1.8364,-1.847,-1.849,-1.8477,-1.8424,-1.837,-1.8337,-1.8337,-1.813,-1.7969,-1.7969,-1.7749,-1.7582,-1.7582,-1.7582,-1.7582,-1.7582,-1.7582,-1.7582,-1.7582,-1.7582,-1.7582,-1.7582,-1.7582,-1.7582,-1.7582,-1.7582,-1.7582,-1.7582,-1.7582,-1.7582,-1.7582,-1.7582,-1.7582,-1.7582,-1.6387,-1.4883,0.0,0.0,-1.4088,0.0,-1.4088,-1.4088,0.0,0.0,0.0,0.0,0.0,0.0,0.0,0.0,0.0,0.0,0.0,0.0,0.0,0.0,0.0,0.0,0.0,0.0,0.0,0.0,0.0,0.0,-1.5832,-1.5832,-1.5832,-1.5832,-1.5845,-1.5885,-1.5885,-1.5905,-1.5945,-1.5945,-1.5945,-1.5952,-1.6206,-1.6333,-1.6339,-1.6673,-1.682,-1.682,-1.682,-1.6967,-1.7208,-1.7208,-1.7355,-1.7582,-1.7582,-1.7582,-1.7582,-1.7582,-1.7582,-1.7582,-1.7582,-1.7582,-1.7582,-1.7582,-1.7582,-1.7582,-1.7582,-1.7582,-1.7582,-1.7582,-1.7582,-1.7582,-1.7582,-1.7615,-1.7642,-1.7642,-1.7675,-1.7849,-1.8377,-1.849,-1.841,-1.8156,-1.7889,-1.7702,-1.7702,-1.7669,-1.7642,-1.7642,-1.7609,-1.7582,-1.7582,-1.7582,-1.7582,-1.7582,-1.7582,-1.7582,-1.7582,-1.7582,-1.7582,-1.7582,-1.7582,-1.7582,-1.7582,-1.7582,-1.7582,-1.7582,-1.7582,-1.7582,-1.7582,-1.7582,-1.7582,-1.7582,-1.7364,-1.5849,-1.4088,-1.4088,-1.4088,0.0,-1.4088,-1.4088,0.0,0.0,0.0,0.0,0.0,0.0,0.0,0.0,0.0,0.0,0.0,0.0,0.0,0.0,0.0,0.0,0.0,0.0,0.0,0.0,0.0,0.0,-1.5738,-1.5832,-1.5832,-1.5832,-1.5832,-1.5832,-1.5832,-1.5832,-1.5832,-1.5832,-1.5832,-1.5832,-1.5965,-1.6025,-1.6025,-1.6152,-1.6393,-1.6707,-1.6707,-1.678,-1.6901,-1.6901,-1.6974,-1.7108,-1.7275,-1.7341,-1.7361,-1.7522,-1.7582,-1.7582,-1.7582,-1.7582,-1.7582,-1.7582,-1.7582,-1.7582,-1.7582,-1.7582,-1.7582,-1.7582,-1.7582,-1.7582,-1.7582,-1.7582,-1.7582,-1.7582,-1.7582,-1.7655,-1.7923,-1.7983,-1.7943,-1.7809,-1.7675,-1.7582,-1.7582,-1.7582,-1.7582,-1.7582,-1.7582,-1.7582,-1.7582,-1.7582,-1.7582,-1.7582,-1.7582,-1.7582,-1.7582,-1.7582,-1.7582,-1.7582,-1.7582,-1.7582,-1.7582,-1.7582,-1.7582,-1.7582,-1.7582,-1.7582,-1.7582,-1.7582,-1.7582,-1.7582,-1.6717,-1.531,0.0,0.0,-1.4088,-1.4088,-1.4088,0.0,0.0,0.0,0.0,0.0,0.0,0.0,0.0,0.0,0.0,0.0,0.0,0.0,0.0,0.0,0.0,0.0,0.0,0.0,0.0,0.0,0.0,0.0,-1.5484,-1.5611,-1.5611,-1.5611,-1.5645,-1.5718,-1.5718,-1.5752,-1.5832,-1.5832,-1.5832,-1.5832,-1.5832,-1.5832,-1.5832,-1.5832,-1.6066,-1.648,-1.648,-1.6526,-1.66,-1.66,-1.664,-1.6727,-1.6947,-1.7041,-1.7074,-1.7361,-1.7475,-1.7482,-1.7555,-1.7582,-1.7582,-1.7582,-1.7582,-1.7582,-1.7582,-1.7582,-1.7582,-1.7582,-1.7582,-1.7582,-1.7582,-1.7582,-1.7582,-1.7582,-1.7582,-1.7582,-1.7582,-1.7582,-1.7582,-1.7582,-1.7582,-1.7582,-1.7582,-1.7582,-1.7582,-1.7582,-1.7582,-1.7582,-1.7582,-1.7582,-1.7582,-1.7582,-1.7582,-1.7582,-1.7582,-1.7582,-1.7582,-1.7582,-1.7582,-1.7582,-1.7582,-1.7582,-1.7582,-1.7582,-1.7582,-1.7582,-1.7582,-1.7582,-1.7582,-1.7582,-1.6499,-1.5204,0.0,-1.4088,0.0,-1.4088,0.0,0.0,0.0,0.0,0.0,0.0,0.0,0.0,0.0,0.0,0.0,0.0,0.0,0.0,0.0,0.0,0.0,0.0,0.0,0.0,0.0,0.0,0.0,0.0,-1.4997,-1.501,-1.501,-1.501,-1.5137,-1.5411,-1.5418,-1.5551,-1.5825,-1.5832,-1.5832,-1.5832,-1.5832,-1.5832,-1.5832,-1.5832,-1.5845,-1.5872,-1.5872,-1.6039,-1.6293,-1.6293,-1.646,-1.6707,-1.6727,-1.6727,-1.6767,-1.7061,-1.7174,-1.7215,-1.7488,-1.7582,-1.7582,-1.7582,-1.7582,-1.7582,-1.7582,-1.7582,-1.7582,-1.7582,-1.7582,-1.7582,-1.7582,-1.7582,-1.7582,-1.7582,-1.7582,-1.7582,-1.7582,-1.7582,-1.7582,-1.7582,-1.7582,-1.7582,-1.7582,-1.7582,-1.7582,-1.7582,-1.7582,-1.7582,-1.7582,-1.7582,-1.7582,-1.7582,-1.7582,-1.7582,-1.7582,-1.7582,-1.7582,-1.7582,-1.7582,-1.7582,-1.7582,-1.7582,-1.7582,-1.7582,-1.7582,-1.7582,-1.7582,-1.7582,-1.7582,-1.7582,-1.7477,-1.6717,0.0,0.0,0.0,-1.4088,0.0,0.0,0.0,0.0,0.0,0.0,0.0,0.0,0.0,0.0,0.0,0.0,0.0,0.0,0.0,0.0,0.0,0.0,0.0,0.0,0.0,0.0,0.0,0.0,0.0,-1.4963,-1.4963,-1.4963,-1.501,-1.5117,-1.5117,-1.517,-1.5277,-1.5277,-1.5364,-1.5551,-1.5551,-1.5651,-1.5832,-1.5832,-1.5832,-1.5832,-1.5832,-1.5885,-1.5985,-1.5985,-1.6052,-1.6159,-1.6353,-1.6426,-1.6466,-1.6754,-1.6867,-1.6907,-1.7201,-1.7301,-1.7335,-1.7522,-1.7582,-1.7582,-1.7582,-1.7582,-1.7582,-1.7582,-1.7582,-1.7582,-1.7582,-1.7582,-1.7582,-1.7582,-1.7582,-1.7582,-1.7582,-1.7582,-1.7582,-1.7582,-1.7582,-1.7582,-1.7582,-1.7582,-1.7582,-1.7582,-1.7582,-1.7582,-1.7582,-1.7582,-1.7582,-1.7582,-1.7582,-1.7582,-1.7582,-1.7582,-1.7582,-1.7582,-1.7582,-1.7582,-1.7582,-1.7582,-1.7582,-1.7582,-1.7582,-1.7582,-1.7582,-1.7582,-1.7582,-1.7582,-1.7582,-1.6823,-1.4088,0.0,0.0,0.0,0.0,-1.4088,0.0,0.0,0.0,0.0,0.0,0.0,0.0,0.0,0.0,0.0,0.0,0.0,0.0,0.0,0.0,0.0,0.0,0.0,0.0,0.0,0.0,0.0,0.0,0.0,-1.4669,-1.4669,-1.4716,-1.481,-1.491,-1.4963,-1.4963,-1.4963,-1.5064,-1.5251,-1.5251,-1.5351,-1.5538,-1.5638,-1.5685,-1.5691,-1.5785,-1.5832,-1.5832,-1.5832,-1.5832,-1.5845,-1.6046,-1.6126,-1.6159,-1.6453,-1.656,-1.66,-1.6901,-1.7068,-1.7181,-1.7375,-1.7502,-1.7582,-1.7582,-1.7582,-1.7582,-1.7582,-1.7582,-1.7582,-1.7582,-1.7582,-1.7582,-1.7582,-1.7582,-1.7582,-1.7582,-1.7582,-1.7582,-1.7582,-1.7582,-1.7582,-1.7582,-1.7582,-1.7582,-1.7582,-1.7582,-1.7582,-1.7582,-1.7582,-1.7582,-1.7582,-1.7582,-1.7582,-1.7582,-1.7582,-1.7582,-1.7582,-1.7582,-1.7582,-1.7582,-1.7582,-1.7582,-1.7582,-1.7582,-1.7582,-1.7582,-1.7582,-1.7582,-1.7582,-1.7582,-1.6823,0.0,0.0,0.0,0.0,0.0,0.0,-1.4088,0.0,0.0,0.0,0.0,0.0,0.0,0.0,0.0,0.0,0.0,0.0,0.0,0.0,0.0,0.0,0.0,0.0,0.0,0.0,0.0,0.0,-1.4088,-1.4088,-1.4088,-1.4088,-1.4215,-1.4496,-1.4783,-1.4937,-1.4937,-1.4937,-1.4943,-1.495,-1.495,-1.4957,-1.4977,-1.5257,-1.5384,-1.5398,-1.5691,-1.5812,-1.5818,-1.5825,-1.5832,-1.5832,-1.5832,-1.5832,-1.5865,-1.6152,-1.6259,-1.6299,-1.6593,-1.6881,-1.7121,-1.7134,-1.7335,-1.7569,-1.7569,-1.7575,-1.7582,-1.7582,-1.7582,-1.7582,-1.7582,-1.7582,-1.7582,-1.7582,-1.7582,-1.7582,-1.7582,-1.7582,-1.7582,-1.7582,-1.7582,-1.7582,-1.7582,-1.7582,-1.7582,-1.7582,-1.7582,-1.7582,-1.7582,-1.7582,-1.7582,-1.7582,-1.7582,-1.7582,-1.7582,-1.7582,-1.7582,-1.7582,-1.7582,-1.7582,-1.7582,-1.7582,-1.7582,-1.7582,-1.7582,-1.7582,-1.7582,-1.7582,-1.7582,-1.7582,-1.7582,-1.6823,-1.4088,0.0,0.0,0.0,0.0,0.0,0.0,0.0,0.0,0.0,0.0,0.0,0.0,0.0,0.0,0.0,0.0,0.0,0.0,0.0,0.0,0.0,0.0,0.0,0.0,0.0,0.0,0.0,-1.4088,-1.4088,-1.4088,-1.4088,-1.4122,-1.4202,-1.4289,-1.4329,-1.4329,-1.4329,-1.4436,-1.4643,-1.4643,-1.4756,-1.497,-1.505,-1.5084,-1.5104,-1.5391,-1.5518,-1.5531,-1.5745,-1.5832,-1.5832,-1.5832,-1.5832,-1.5838,-1.5919,-1.5952,-1.5992,-1.6286,-1.6446,-1.6553,-1.676,-1.7027,-1.7268,-1.7268,-1.7415,-1.7582,-1.7582,-1.7582,-1.7582,-1.7582,-1.7582,-1.7582,-1.7582,-1.7582,-1.7582,-1.7582,-1.7582,-1.7582,-1.7582,-1.7582,-1.7582,-1.7582,-1.7582,-1.7582,-1.7582,-1.7582,-1.7582,-1.7582,-1.7582,-1.7582,-1.7582,-1.7582,-1.7582,-1.7582,-1.7582,-1.7582,-1.7582,-1.7582,-1.7582,-1.7582,-1.7582,-1.7582,-1.7582,-1.7582,-1.7582,-1.7582,-1.7582,-1.7582,-1.7582,-1.7582,-1.6823,0.0,0.0,0.0,0.0,0.0,0.0,-1.4088,-1.4088,-1.4088,0.0,0.0,0.0,0.0,0.0,0.0,0.0,0.0,0.0,0.0,0.0,0.0,0.0,0.0,0.0,0.0,-1.4088,-1.4088,-1.4088,-1.4088,-1.4088,-1.4088,-1.4088,-1.4088,-1.4088,-1.4088,-1.4088,-1.4088,-1.4088,-1.4175,-1.4342,-1.4342,-1.4429,-1.4603,-1.4723,-1.4776,-1.4796,-1.509,-1.5284,-1.5411,-1.5578,-1.5718,-1.5832,-1.5832,-1.5832,-1.5832,-1.5832,-1.5832,-1.5852,-1.6025,-1.6166,-1.6299,-1.6473,-1.672,-1.6987,-1.7114,-1.7268,-1.7428,-1.7549,-1.7582,-1.7582,-1.7582,-1.7582,-1.7582,-1.7582,-1.7582,-1.7582,-1.7582,-1.7582,-1.7582,-1.7582,-1.7582,-1.7582,-1.7582,-1.7582,-1.7582,-1.7582,-1.7582,-1.7582,-1.7582,-1.7582,-1.7582,-1.7582,-1.7582,-1.7582,-1.7582,-1.7582,-1.7582,-1.7582,-1.7582,-1.7582,-1.7582,-1.7582,-1.7582,-1.7582,-1.7582,-1.7582,-1.7582,-1.7582,-1.7582,-1.7582,-1.7582,-1.7147,0.0,0.0,0.0,0.0,0.0,0.0,-1.4088,-1.4088,-1.4088,-1.4088,-1.4088,0.0,0.0,0.0,0.0,0.0,0.0,0.0,0.0,0.0,0.0,0.0,0.0,0.0,-1.4088,-1.4088,-1.4088,-1.4088,-1.4088,-1.4088,-1.4088,-1.4088,-1.4088,-1.4088,-1.4088,-1.4088,-1.4088,-1.4088,-1.4088,-1.4088,-1.4088,-1.4088,-1.4095,-1.4355,-1.4476,-1.4489,-1.4783,-1.5057,-1.5304,-1.5337,-1.5538,-1.5832,-1.5832,-1.5832,-1.5832,-1.5832,-1.5832,-1.5832,-1.5832,-1.6005,-1.6226,-1.6226,-1.642,-1.6707,-1.6974,-1.7074,-1.7161,-1.7455,-1.7555,-1.7582,-1.7582,-1.7582,-1.7582,-1.7582,-1.7582,-1.7582,-1.7582,-1.7582,-1.7582,-1.7582,-1.7582,-1.7582,-1.7582,-1.7582,-1.7582,-1.7582,-1.7582,-1.7582,-1.7582,-1.7582,-1.7582,-1.7582,-1.7582,-1.7582,-1.7582,-1.7582,-1.7582,-1.7582,-1.7582,-1.7582,-1.7582,-1.7582,-1.7582,-1.7582,-1.7582,-1.7582,-1.7582,-1.7582,-1.7582,-1.7582,-1.7582,-1.7582,0.0,0.0,0.0,0.0,0.0,0.0,-1.4088,-1.4088,-1.4088,0.0,-1.4088,0.0,0.0,0.0,0.0,0.0,0.0,0.0,0.0,0.0,0.0,0.0,0.0,0.0,-1.4088,-1.4088,-1.4088,-1.4088,-1.4088,-1.4088,-1.4088,-1.4088,-1.4088,-1.4088,-1.4088,-1.4088,-1.4088,-1.4088,-1.4088,-1.4088,-1.4088,-1.4088,-1.4088,-1.4142,-1.4168,-1.4188,-1.4476,-1.4636,-1.471,-1.495,-1.5357,-1.5832,-1.5832,-1.5832,-1.5832,-1.5832,-1.5832,-1.5832,-1.5832,-1.5865,-1.5912,-1.5912,-1.6119,-1.6366,-1.6426,-1.6607,-1.6854,-1.7154,-1.7402,-1.7582,-1.7582,-1.7582,-1.7582,-1.7582,-1.7582,-1.7582,-1.7582,-1.7582,-1.7582,-1.7582,-1.7582,-1.7582,-1.7582,-1.7582,-1.7582,-1.7582,-1.7582,-1.7582,-1.7582,-1.7582,-1.7582,-1.7582,-1.7582,-1.7582,-1.7582,-1.7582,-1.7582,-1.7582,-1.7582,-1.7582,-1.7582,-1.7582,-1.7582,-1.7582,-1.7582,-1.7582,-1.7582,-1.7582,-1.7582,-1.7582,-1.7582,-1.7582,0.0,0.0,0.0,-1.4088,0.0,0.0,0.0,-1.4088,-1.4088,-1.4088,-1.4088,-1.4088,-1.4088,0.0,0.0,0.0,0.0,0.0,0.0,0.0,0.0,0.0,0.0,0.0,-1.4088,-1.4088,-1.4088,-1.4088,-1.4088,-1.4088,-1.4088,-1.4088,-1.4088,-1.4088,-1.4088,-1.4088,-1.4088,-1.4088,-1.4088,-1.4088,-1.4088,-1.4088,-1.4088,-1.4088,-1.4412,-1.4908,-1.4484,-1.472,-1.5282,-1.4933,-1.5003,-1.5411,-1.5558,-1.5705,-1.5832,-1.5832,-1.5832,-1.5832,-1.5832,-1.5832,-1.5832,-1.5832,-1.5925,-1.6079,-1.6226,-1.6473,-1.6734,-1.6887,-1.7141,-1.7368,-1.7368,-1.7475,-1.7582,-1.7582,-1.7582,-1.7582,-1.7582,-1.7582,-1.7582,-1.7582,-1.7582,-1.7582,-1.7582,-1.7582,-1.7582,-1.7582,-1.7582,-1.7582,-1.7582,-1.7582,-1.7582,-1.7582,-1.7582,-1.7582,-1.7582,-1.7582,-1.7582,-1.7582,-1.7582,-1.7582,-1.7582,-1.7582,-1.7582,-1.7582,-1.7582,-1.7582,-1.7582,-1.7582,-1.7582,-1.7582,-1.7582,-1.7582,0.0,0.0,0.0,0.0,0.0,-1.4088,0.0,0.0,0.0,0.0,0.0,0.0,0.0,0.0,0.0,0.0,0.0,0.0,0.0,0.0,0.0,0.0,0.0,0.0,-1.4088,-1.4088,-1.4088,-1.4088,-1.4088,-1.4088,-1.4088,-1.4088,-1.4088,-1.4088,-1.4088,-1.4088,-1.4088,-1.4088,-1.4088,-1.4088,-1.4088,-1.4166,-1.4412,-1.4166,-1.4817,-1.5944,-1.4901,-1.512,-1.6261,-1.5433,-1.512,-1.526,-1.5349,-1.5538,-1.5752,-1.5805,-1.5832,-1.5832,-1.5832,-1.5832,-1.5832,-1.5832,-1.5832,-1.5872,-1.6112,-1.6393,-1.662,-1.662,-1.6834,-1.7061,-1.7061,-1.7281,-1.7502,-1.7502,-1.7542,-1.7582,-1.7582,-1.7582,-1.7582,-1.7582,-1.7582,-1.7582,-1.7582,-1.7582,-1.7582,-1.7582,-1.7582,-1.7582,-1.7582,-1.7582,-1.7582,-1.7582,-1.7582,-1.7582,-1.7582,-1.7582,-1.7582,-1.7582,-1.7582,-1.7582,-1.7582,-1.7582,-1.7582,-1.7582,-1.7582,-1.7582,-1.7582,-1.7582,-1.7582,-1.7582,-1.7582,-1.7582,0.0,0.0,0.0,0.0,-1.4088,0.0,0.0,0.0,-1.4088,-1.4088,0.0,0.0,0.0,0.0,0.0,0.0,0.0,0.0,0.0,0.0,0.0,0.0,0.0,0.0,0.0,-1.4088,-1.4088,-1.4088,-1.4088,-1.4088,-1.4088,-1.4088,-1.4088,-1.4088,-1.4088,-1.4088,-1.4088,-1.4088,-1.4088,-1.4088,-1.4088,-1.4573,-1.5462,-1.4489,-1.5228,-1.709,-1.5944,-1.6131,-1.7155,-1.6992,-1.662,-1.5965,-1.5527,-1.5418,-1.5478,-1.5732,-1.5832,-1.5832,-1.5832,-1.5832,-1.5832,-1.5832,-1.5832,-1.5838,-1.5872,-1.6086,-1.6326,-1.6326,-1.6533,-1.676,-1.676,-1.6974,-1.7201,-1.7201,-1.7395,-1.7582,-1.7582,-1.7582,-1.7582,-1.7582,-1.7582,-1.7582,-1.7582,-1.7582,-1.7582,-1.7582,-1.7582,-1.7582,-1.7582,-1.7582,-1.7582,-1.7582,-1.7582,-1.7582,-1.7582,-1.7582,-1.7582,-1.7582,-1.7582,-1.7582,-1.7582,-1.7582,-1.7582,-1.7582,-1.7582,-1.7582,-1.7582,-1.7582,-1.7582,-1.7582,-1.7582,-1.7582,0.0,0.0,0.0,0.0,0.0,0.0,-1.425,0.0,-1.4088,0.0,0.0,0.0,0.0,0.0,0.0,0.0,-1.4088,0.0,0.0,0.0,0.0,0.0,0.0,0.0,0.0,0.0,0.0,0.0,-1.4088,-1.4088,-1.4088,-1.4088,-1.4088,-1.4088,-1.4088,-1.4088,-1.4088,-1.4088,-1.4088,-1.4088,-1.4088,-1.4328,-1.4817,-1.4977,-1.5876,-1.7253,-1.6846,-1.7253,-1.823,-1.7577,-1.7098,-1.6778,-1.6774,-1.6238,-1.5431,-1.5718,-1.5832,-1.5832,-1.5832,-1.5832,-1.5832,-1.5832,-1.5832,-1.5832,-1.5832,-1.5919,-1.6012,-1.6012,-1.6226,-1.6453,-1.6453,-1.6673,-1.6894,-1.6894,-1.7114,-1.7328,-1.7328,-1.7462,-1.7582,-1.7582,-1.7582,-1.7582,-1.7582,-1.7582,-1.7582,-1.7582,-1.7582,-1.7582,-1.7582,-1.7582,-1.7582,-1.7582,-1.7582,-1.7582,-1.7582,-1.7582,-1.7582,-1.7582,-1.7582,-1.7582,-1.7582,-1.7582,-1.7582,-1.7582,-1.7582,-1.7582,-1.7582,-1.7582,-1.7582,-1.7582,-1.7582,-1.7582,-1.547,0.0,0.0,0.0,0.0,0.0,0.0,0.0,0.0,0.0,0.0,0.0,0.0,0.0,0.0,0.0,0.0,-1.4088,0.0,0.0,0.0,0.0,0.0,0.0,0.0,0.0,0.0,-1.4088,-1.4088,-1.4088,-1.4088,-1.4088,-1.4088,-1.4088,-1.4088,-1.425,-1.4573,-1.4573,-1.4657,-1.4985,-1.4657,-1.4817,-1.5477,-1.5621,-1.6593,-1.8221,-1.7908,-1.839,-1.9362,-1.855,-1.806,-1.7781,-1.807,-1.7353,-1.6083,-1.6116,-1.6035,-1.5832,-1.5832,-1.5832,-1.5832,-1.5832,-1.5832,-1.5832,-1.5832,-1.5832,-1.5832,-1.5832,-1.5985,-1.6152,-1.6152,-1.6366,-1.6587,-1.6587,-1.6814,-1.7027,-1.7027,-1.7255,-1.7462,-1.7462,-1.7528,-1.7582,-1.7582,-1.7582,-1.7582,-1.7582,-1.7582,-1.7582,-1.7582,-1.7582,-1.7582,-1.7582,-1.7582,-1.7582,-1.7582,-1.7582,-1.7582,-1.7582,-1.7582,-1.7582,-1.7582,-1.7582,-1.7582,-1.7582,-1.7582,-1.7582,-1.7582,-1.7582,-1.7582,-1.7582,-1.7582,-1.7582,0.0,0.0,0.0,-1.5944,0.0,0.0,0.0,0.0,-1.4088,0.0,0.0,0.0,0.0,0.0,0.0,0.0,0.0,0.0,0.0,0.0,0.0,0.0,0.0,0.0,0.0,0.0,-1.4088,-1.4088,-1.4088,-1.4088,-1.4088,-1.4088,-1.4088,-1.4088,-1.4088,-1.4573,-1.5621,-1.5621,-1.6191,-1.7172,-1.6108,-1.6764,-1.8798,-1.6675,-1.7479,-2.0401,-1.9362,-1.952,-2.0566,-2.0479,-1.9844,-1.9002,-1.9218,-1.8645,-1.7665,-1.7115,-1.648,-1.5832,-1.5832,-1.5832,-1.5832,-1.5832,-1.5832,-1.5832,-1.5832,-1.5832,-1.5832,-1.5832,-1.5838,-1.5845,-1.5845,-1.6066,-1.6286,-1.6286,-1.6506,-1.672,-1.672,-1.6954,-1.7161,-1.7161,-1.7388,-1.7582,-1.7582,-1.7582,-1.7582,-1.7582,-1.7582,-1.7582,-1.7582,-1.7582,-1.7582,-1.7582,-1.7582,-1.7582,-1.7582,-1.7582,-1.7582,-1.7582,-1.7582,-1.7582,-1.7582,-1.7582,-1.7582,-1.7582,-1.7582,-1.7582,-1.7582,-1.7582,-1.7582,-1.7582,-1.7582,-1.7582,0.0,0.0,-1.8149,-1.7009,0.0,0.0,0.0,0.0,0.0,0.0,0.0,0.0,0.0,0.0,0.0,0.0,0.0,0.0,0.0,0.0,0.0,0.0,0.0,0.0,0.0,0.0,0.0,-1.4088,-1.4088,-1.4088,-1.4088,-1.4088,-1.4088,-1.4088,-1.4088,-1.4657,-1.5703,-1.5696,-1.6273,-1.7342,-1.6927,-1.7172,-1.7908,-1.79,-1.8461,-1.952,-1.9923,-2.0245,-2.0566,-2.0566,-2.0401,-2.0098,-2.0153,-1.9641,-1.8797,-1.8329,-1.8041,-1.7728,-1.7238,-1.648,-1.5832,-1.5832,-1.5832,-1.5832,-1.5832,-1.5832,-1.5832,-1.5832,-1.5832,-1.5832,-1.5832,-1.5905,-1.5979,-1.5979,-1.6206,-1.642,-1.642,-1.6647,-1.6854,-1.6854,-1.6934,-1.7061,-1.7261,-1.7295,-1.7361,-1.7555,-1.7582,-1.7582,-1.7582,-1.7582,-1.7582,-1.7582,-1.7582,-1.7582,-1.7582,-1.7582,-1.7582,-1.7582,-1.7582,-1.7582,-1.7582,-1.7582,-1.7582,-1.7582,-1.7582,-1.7582,-1.7582,-1.7582,-1.7582,-1.7582,-1.7582,-1.7582,-1.8709,-1.9036,0.0,-1.8149,-1.8479,0.0,-1.6683,0.0,-1.6034,0.0,0.0,0.0,0.0,0.0,0.0,0.0,0.0,0.0,0.0,-1.4088,0.0,0.0,0.0,0.0,0.0,0.0,-1.4088,-1.4088,-1.4489,-1.4657,0.0,0.0,-1.5228,-1.5228,-1.4901,-1.5387,-1.6838,-1.6437,-1.7001,-1.8461,-1.806,-1.8069,-1.847,-1.8877,-1.9204,-1.9599,-2.0323,-2.0566,-2.0566,-2.0566,-2.0566,-2.0566,-2.0566,-2.0241,-1.9742,-1.9203,-1.8904,-1.8734,-1.847,-1.749,-1.648,-1.648,-1.6197,-1.5832,-1.5832,-1.5832,-1.5852,-1.5959,-1.5912,-1.5852,-1.5959,-1.5905,-1.5832,-1.5832,-1.5979,-1.6112,-1.6112,-1.6346,-1.6553,-1.6553,-1.6633,-1.6767,-1.6954,-1.6987,-1.7128,-1.7522,-1.7582,-1.7582,-1.7582,-1.7582,-1.7582,-1.7582,-1.7582,-1.7582,-1.7582,-1.7582,-1.7582,-1.7582,-1.7582,-1.7582,-1.7582,-1.7582,-1.7635,-1.7749,-1.7642,-1.7635,-1.7736,-1.7635,-1.7582,-1.7582,-1.7582,-1.7582]},{"header":{"parameterUnit":"m.s-1","parameterCategory":1,"la1":30.6,"la2":29.2853,"lo1":-89.7004,"lo2":-87.6739,"dy":0.0162,"dx":0.0183,"nx":112,"ny":82,"refTime":"2023-08-01T12:00:00:Z","depth":0,"parameterNumber":3,"parameterNumberName":"V-component_of_WINDS"},"data":[0.0,0.0,0.0,0.0,0.0,0.0,0.0,0.0,0.0,0.0,0.0,0.0,0.0,0.0,0.0,0.0,0.0,0.0,0.0,0.0,0.0,0.0,0.0,0.0,0.0,0.0,0.0,0.0,0.0,0.0,0.0,0.0,0.0,0.0,0.0,0.0,0.0,0.0,0.0,0.0,0.0,0.0,0.0,0.0,0.0,0.0,0.0,0.0,0.0,0.0,0.0,0.0,0.0,0.0,0.0,0.0,0.0,0.0,0.0,0.0,0.0,0.0,0.0,0.0,0.0,0.0,0.0,0.0,0.0,0.0,0.0,0.0,0.0,0.0,0.0,0.0,0.0,0.0,0.0,0.0,0.0,0.0,0.0,0.0,0.0,0.0,0.0,0.0,0.0,0.0,-3.5526,-3.5493,-3.5493,-3.5493,-3.5493,-3.5493,-3.5545,-3.5622,0.0,0.0,0.0,0.0,0.0,0.0,0.0,0.0,0.0,0.0,0.0,0.0,0.0,0.0,0.0,0.0,0.0,0.0,0.0,0.0,0.0,0.0,0.0,0.0,0.0,0.0,0.0,0.0,0.0,0.0,0.0,0.0,0.0,0.0,0.0,0.0,0.0,0.0,0.0,0.0,0.0,0.0,0.0,0.0,0.0,0.0,0.0,0.0,0.0,0.0,0.0,0.0,0.0,0.0,0.0,0.0,0.0,0.0,0.0,0.0,0.0,0.0,0.0,0.0,0.0,0.0,0.0,0.0,0.0,0.0,0.0,0.0,0.0,0.0,0.0,0.0,0.0,0.0,0.0,0.0,0.0,0.0,0.0,0.0,0.0,0.0,0.0,0.0,0.0,0.0,0.0,0.0,0.0,0.0,0.0,0.0,0.0,0.0,0.0,0.0,0.0,0.0,0.0,0.0,-3.5565,-3.5526,-3.5493,-3.5493,-3.5493,-3.5493,-3.5565,-3.568,0.0,0.0,0.0,0.0,0.0,0.0,0.0,0.0,0.0,0.0,0.0,0.0,0.0,0.0,0.0,0.0,0.0,0.0,0.0,0.0,0.0,0.0,0.0,0.0,0.0,0.0,0.0,0.0,0.0,0.0,0.0,0.0,0.0,0.0,0.0,0.0,0.0,0.0,0.0,0.0,0.0,0.0,0.0,0.0,0.0,0.0,0.0,0.0,0.0,0.0,0.0,0.0,0.0,0.0,0.0,0.0,0.0,0.0,0.0,0.0,0.0,0.0,0.0,0.0,0.0,0.0,0.0,0.0,0.0,0.0,0.0,0.0,0.0,0.0,0.0,0.0,0.0,0.0,0.0,0.0,0.0,0.0,0.0,0.0,0.0,0.0,0.0,0.0,0.0,0.0,0.0,0.0,0.0,0.0,0.0,0.0,0.0,0.0,0.0,0.0,0.0,0.0,0.0,-3.5624,-3.5584,-3.5526,-3.5493,-3.5493,-3.5493,-3.5493,-3.5545,-3.5641,-3.5623,0.0,0.0,0.0,0.0,0.0,0.0,0.0,0.0,0.0,0.0,0.0,0.0,0.0,0.0,0.0,0.0,0.0,0.0,0.0,0.0,0.0,0.0,0.0,0.0,0.0,0.0,0.0,0.0,0.0,0.0,0.0,0.0,0.0,0.0,0.0,0.0,0.0,0.0,0.0,0.0,0.0,0.0,0.0,0.0,0.0,0.0,0.0,0.0,0.0,0.0,0.0,0.0,0.0,0.0,0.0,0.0,0.0,0.0,0.0,0.0,0.0,0.0,0.0,0.0,0.0,0.0,0.0,0.0,0.0,0.0,0.0,0.0,0.0,0.0,0.0,0.0,0.0,0.0,0.0,0.0,0.0,0.0,0.0,0.0,0.0,0.0,0.0,0.0,0.0,0.0,0.0,0.0,0.0,0.0,0.0,0.0,0.0,0.0,0.0,0.0,0.0,0.0,-3.5601,-3.5584,-3.5526,-3.5493,-3.5493,-3.5493,-3.5493,-3.5545,-3.5622,-3.562,0.0,0.0,0.0,0.0,0.0,0.0,0.0,0.0,0.0,0.0,0.0,0.0,0.0,0.0,0.0,0.0,0.0,0.0,0.0,0.0,0.0,0.0,0.0,0.0,0.0,0.0,0.0,0.0,0.0,0.0,0.0,0.0,0.0,0.0,0.0,0.0,0.0,0.0,0.0,0.0,0.0,0.0,0.0,0.0,0.0,0.0,0.0,0.0,0.0,0.0,0.0,0.0,0.0,0.0,0.0,0.0,0.0,0.0,0.0,0.0,0.0,0.0,0.0,0.0,0.0,0.0,0.0,0.0,0.0,0.0,0.0,0.0,0.0,0.0,0.0,0.0,0.0,0.0,0.0,0.0,0.0,0.0,0.0,0.0,0.0,0.0,0.0,0.0,0.0,0.0,0.0,0.0,0.0,0.0,0.0,0.0,0.0,0.0,0.0,0.0,0.0,0.0,-3.5646,-3.5584,-3.5526,-3.5493,-3.5493,-3.5493,-3.5493,-3.5565,-3.568,-3.5694,0.0,0.0,0.0,0.0,0.0,0.0,0.0,0.0,0.0,0.0,0.0,0.0,0.0,0.0,0.0,0.0,0.0,0.0,0.0,0.0,0.0,0.0,0.0,0.0,0.0,0.0,0.0,0.0,0.0,0.0,0.0,0.0,0.0,0.0,0.0,0.0,0.0,0.0,0.0,0.0,0.0,0.0,0.0,0.0,0.0,0.0,0.0,0.0,0.0,0.0,0.0,0.0,0.0,0.0,0.0,0.0,0.0,0.0,0.0,0.0,0.0,0.0,0.0,0.0,0.0,0.0,0.0,0.0,0.0,0.0,0.0,0.0,0.0,0.0,0.0,0.0,0.0,0.0,0.0,0.0,0.0,0.0,0.0,0.0,0.0,0.0,0.0,0.0,0.0,0.0,0.0,0.0,0.0,0.0,0.0,0.0,0.0,0.0,0.0,0.0,0.0,0.0,-3.5624,-3.5584,0.0,-3.5493,-3.5493,-3.5493,-3.5493,-3.5526,-3.5584,0.0,0.0,0.0,0.0,0.0,0.0,0.0,0.0,0.0,0.0,0.0,0.0,0.0,0.0,0.0,0.0,0.0,0.0,0.0,0.0,0.0,0.0,0.0,0.0,0.0,0.0,0.0,0.0,0.0,0.0,0.0,0.0,0.0,0.0,0.0,0.0,0.0,0.0,0.0,0.0,0.0,0.0,0.0,0.0,0.0,0.0,0.0,0.0,0.0,0.0,0.0,0.0,0.0,0.0,0.0,0.0,0.0,0.0,0.0,0.0,0.0,0.0,0.0,0.0,0.0,0.0,0.0,0.0,0.0,0.0,0.0,0.0,0.0,0.0,0.0,0.0,0.0,0.0,0.0,0.0,0.0,0.0,0.0,0.0,0.0,0.0,0.0,0.0,0.0,0.0,0.0,0.0,0.0,0.0,0.0,0.0,0.0,0.0,0.0,0.0,0.0,0.0,-3.6392,-3.6372,-3.6334,0.0,-3.6295,-3.6295,-3.6295,-3.6295,-3.6199,-3.5949,0.0,0.0,0.0,0.0,0.0,0.0,0.0,0.0,0.0,0.0,0.0,0.0,0.0,0.0,0.0,0.0,0.0,0.0,0.0,0.0,0.0,0.0,0.0,0.0,0.0,0.0,0.0,0.0,0.0,0.0,0.0,0.0,0.0,0.0,0.0,0.0,0.0,0.0,0.0,0.0,0.0,0.0,0.0,0.0,0.0,0.0,0.0,0.0,0.0,0.0,0.0,0.0,0.0,0.0,0.0,0.0,0.0,0.0,0.0,0.0,0.0,0.0,0.0,0.0,0.0,0.0,0.0,0.0,0.0,0.0,0.0,0.0,0.0,0.0,0.0,0.0,0.0,0.0,0.0,0.0,0.0,0.0,0.0,0.0,0.0,0.0,0.0,0.0,0.0,0.0,0.0,0.0,0.0,0.0,0.0,0.0,0.0,0.0,0.0,0.0,0.0,0.0,-3.7993,-3.8046,-3.8007,-3.8007,-3.8007,-3.8007,-3.8007,-3.8007,-3.7695,0.0,0.0,0.0,0.0,0.0,0.0,0.0,0.0,0.0,0.0,0.0,0.0,0.0,0.0,0.0,0.0,0.0,0.0,0.0,0.0,0.0,0.0,0.0,0.0,0.0,0.0,0.0,0.0,0.0,0.0,0.0,0.0,0.0,0.0,0.0,0.0,0.0,0.0,0.0,0.0,0.0,0.0,0.0,0.0,0.0,0.0,0.0,0.0,0.0,0.0,0.0,0.0,0.0,0.0,0.0,0.0,0.0,0.0,0.0,0.0,0.0,0.0,0.0,0.0,0.0,0.0,0.0,0.0,0.0,0.0,0.0,0.0,0.0,0.0,0.0,0.0,0.0,0.0,0.0,0.0,0.0,0.0,0.0,0.0,0.0,0.0,0.0,0.0,0.0,0.0,0.0,0.0,0.0,0.0,0.0,0.0,0.0,0.0,0.0,0.0,0.0,0.0,0.0,-3.8007,-3.8007,-3.8007,-3.8007,-3.8007,-3.8007,-3.8007,-3.8007,-3.7911,-3.7695,0.0,0.0,0.0,0.0,0.0,0.0,0.0,0.0,0.0,0.0,0.0,0.0,0.0,0.0,0.0,0.0,0.0,0.0,0.0,0.0,0.0,0.0,0.0,0.0,0.0,0.0,0.0,0.0,0.0,0.0,0.0,0.0,0.0,0.0,0.0,0.0,0.0,0.0,0.0,0.0,0.0,0.0,0.0,0.0,0.0,0.0,0.0,0.0,0.0,0.0,0.0,0.0,0.0,0.0,0.0,0.0,0.0,0.0,0.0,0.0,0.0,0.0,0.0,0.0,0.0,0.0,0.0,0.0,0.0,0.0,0.0,0.0,0.0,0.0,0.0,0.0,0.0,0.0,0.0,0.0,0.0,0.0,0.0,0.0,0.0,0.0,0.0,0.0,0.0,0.0,0.0,0.0,0.0,0.0,0.0,0.0,0.0,0.0,0.0,0.0,0.0,0.0,-3.895,-3.8988,-3.8988,-3.8988,-3.8988,-3.8988,-3.8988,-3.8988,-3.8854,-3.8546,0.0,0.0,0.0,0.0,0.0,0.0,0.0,0.0,0.0,0.0,0.0,0.0,0.0,0.0,0.0,0.0,0.0,0.0,0.0,0.0,0.0,0.0,0.0,0.0,0.0,0.0,0.0,0.0,0.0,0.0,0.0,0.0,0.0,0.0,0.0,0.0,0.0,0.0,0.0,0.0,0.0,0.0,0.0,0.0,0.0,0.0,0.0,0.0,0.0,0.0,0.0,0.0,0.0,0.0,0.0,0.0,0.0,0.0,0.0,0.0,0.0,0.0,0.0,0.0,0.0,0.0,0.0,0.0,0.0,0.0,0.0,0.0,0.0,0.0,0.0,0.0,0.0,0.0,0.0,0.0,0.0,0.0,0.0,0.0,0.0,0.0,0.0,0.0,0.0,0.0,0.0,0.0,0.0,0.0,0.0,0.0,0.0,0.0,0.0,0.0,0.0,0.0,-4.0412,-4.0489,-4.0489,-4.0489,-4.0489,-4.0489,-4.0489,-4.0489,-4.0181,-3.945,0.0,0.0,0.0,0.0,0.0,0.0,0.0,0.0,0.0,0.0,0.0,0.0,0.0,0.0,0.0,0.0,0.0,0.0,0.0,0.0,0.0,0.0,0.0,0.0,0.0,0.0,0.0,0.0,0.0,0.0,0.0,0.0,0.0,0.0,0.0,0.0,0.0,0.0,0.0,0.0,0.0,0.0,0.0,0.0,0.0,0.0,0.0,0.0,0.0,0.0,0.0,0.0,0.0,0.0,0.0,0.0,0.0,0.0,0.0,0.0,-3.5064,0.0,0.0,0.0,0.0,0.0,0.0,0.0,0.0,0.0,0.0,0.0,0.0,0.0,0.0,0.0,0.0,0.0,0.0,0.0,0.0,0.0,0.0,0.0,0.0,0.0,0.0,0.0,0.0,0.0,0.0,0.0,0.0,0.0,0.0,0.0,0.0,0.0,0.0,0.0,0.0,0.0,-4.0469,-4.0489,-4.0489,-4.0489,-4.0489,-4.0489,-4.0489,-4.0489,-4.0431,-4.0239,-4.0239,0.0,0.0,0.0,0.0,0.0,0.0,0.0,0.0,0.0,0.0,0.0,0.0,0.0,0.0,0.0,0.0,0.0,0.0,0.0,0.0,0.0,0.0,0.0,0.0,0.0,0.0,0.0,0.0,0.0,0.0,0.0,0.0,0.0,0.0,0.0,0.0,0.0,0.0,0.0,0.0,0.0,0.0,0.0,0.0,0.0,0.0,0.0,0.0,0.0,0.0,0.0,0.0,0.0,0.0,0.0,0.0,0.0,0.0,0.0,0.0,-3.5622,0.0,0.0,0.0,0.0,0.0,0.0,0.0,0.0,0.0,0.0,0.0,0.0,0.0,0.0,0.0,0.0,0.0,0.0,0.0,0.0,0.0,0.0,0.0,0.0,0.0,0.0,0.0,0.0,0.0,0.0,0.0,0.0,0.0,0.0,0.0,0.0,0.0,0.0,0.0,0.0,-4.0489,-4.0489,-4.0489,-4.0489,-4.0489,-4.0489,-4.0489,-4.0489,-4.0489,-4.0489,-4.0489,0.0,0.0,0.0,0.0,0.0,0.0,0.0,0.0,0.0,0.0,0.0,0.0,0.0,0.0,0.0,0.0,0.0,0.0,0.0,0.0,0.0,0.0,0.0,0.0,0.0,0.0,0.0,0.0,0.0,0.0,0.0,0.0,0.0,0.0,0.0,0.0,0.0,0.0,0.0,0.0,0.0,0.0,0.0,0.0,0.0,0.0,0.0,0.0,0.0,0.0,0.0,0.0,0.0,-3.7661,-3.8007,-3.8007,-3.8007,-3.8007,-3.7911,-3.6546,-3.5968,-3.6026,-3.6026,0.0,0.0,0.0,0.0,0.0,0.0,0.0,0.0,0.0,0.0,0.0,0.0,0.0,0.0,0.0,0.0,0.0,0.0,0.0,0.0,0.0,0.0,0.0,0.0,-3.9662,-3.9417,0.0,0.0,0.0,0.0,0.0,0.0,0.0,0.0,0.0,0.0,0.0,0.0,-4.0489,-4.0489,-4.0489,-4.0489,-4.0489,-4.0489,-4.0489,-4.0489,-4.0489,-4.0489,-4.0489,-4.0489,0.0,0.0,0.0,0.0,0.0,0.0,0.0,0.0,0.0,0.0,0.0,0.0,0.0,0.0,0.0,0.0,0.0,0.0,0.0,0.0,0.0,0.0,0.0,0.0,0.0,0.0,0.0,0.0,0.0,0.0,0.0,0.0,-3.2776,-3.2891,0.0,0.0,0.0,0.0,0.0,0.0,0.0,0.0,0.0,0.0,0.0,0.0,0.0,-3.7661,-3.7661,-3.7777,-3.7834,-3.7834,-3.795,-3.8007,-3.8007,-3.8007,-3.8007,-3.7988,-3.7777,0.0,-3.768,-3.768,0.0,0.0,0.0,0.0,0.0,0.0,0.0,0.0,0.0,0.0,0.0,0.0,0.0,0.0,0.0,0.0,0.0,0.0,0.0,0.0,0.0,0.0,-4.0219,-4.0354,-4.0354,-4.0331,0.0,-4.0429,-4.0617,-4.0579,-4.0631,0.0,0.0,0.0,0.0,0.0,0.0,0.0,-4.0489,-4.0489,-4.0489,-4.0489,-4.0489,-4.0489,-4.0489,-4.0489,-4.0489,-4.0489,-4.0489,-4.0489,-4.0489,-4.0489,0.0,0.0,0.0,0.0,0.0,0.0,0.0,0.0,0.0,0.0,0.0,0.0,0.0,0.0,0.0,0.0,0.0,0.0,0.0,0.0,0.0,0.0,0.0,0.0,0.0,0.0,0.0,0.0,0.0,-3.3622,-3.3814,-3.4295,-3.4699,-3.493,0.0,0.0,0.0,0.0,0.0,0.0,0.0,0.0,0.0,-3.743,-3.7796,-3.8007,-3.8007,-3.8488,-3.8719,-3.8738,-3.9181,-3.9411,-3.9411,-3.9411,-3.9411,-3.9411,-3.9411,-3.9411,-3.9335,-3.8392,-3.8007,-3.8046,0.0,0.0,0.0,0.0,-3.9411,-3.9411,-3.9411,-3.9411,0.0,-3.945,0.0,0.0,0.0,0.0,0.0,0.0,0.0,0.0,0.0,0.0,-4.0489,-4.0489,-4.0489,-4.0489,-4.0489,-4.0581,-4.062,0.0,-4.06,-4.0581,-4.0508,0.0,0.0,0.0,0.0,-4.0489,-4.0489,-4.0489,-4.0489,-4.0489,-4.0489,-4.0489,-4.0489,-4.0489,-4.0489,-4.0489,-4.0489,-4.0489,-4.0489,-4.0489,-4.0489,0.0,0.0,0.0,0.0,0.0,0.0,0.0,0.0,0.0,0.0,0.0,0.0,0.0,0.0,0.0,0.0,0.0,0.0,0.0,0.0,0.0,0.0,0.0,0.0,0.0,0.0,0.0,0.0,-3.4526,-3.4776,-3.543,-3.568,-3.5815,0.0,0.0,0.0,0.0,0.0,0.0,-3.7969,-3.82,-3.8334,-3.8334,-3.8527,-3.8642,-3.8642,-3.9277,-3.9604,-3.9604,-4.02,-4.0489,-4.0489,-4.0489,-4.0489,-4.0489,-4.0489,-4.0489,-4.0392,-3.9142,-3.8642,-3.87,-3.9354,-3.9604,-3.9681,-4.0277,-4.0489,-4.0489,-4.0489,-4.0489,-4.0489,-4.0489,0.0,-4.0489,-4.0489,0.0,0.0,0.0,0.0,-4.0489,-4.0489,-4.0489,-4.0489,-4.0489,-4.0489,-4.0489,-4.0489,-4.0489,-4.0489,0.0,-4.0489,-4.0489,-4.0489,0.0,0.0,0.0,0.0,-4.0489,-4.0489,-4.0489,-4.0489,-4.0489,-4.0489,-4.0489,-4.0489,-4.0489,-4.0489,-4.0489,-4.0489,-4.0489,-4.0489,-4.0489,-4.0489,-4.0489,0.0,0.0,0.0,0.0,0.0,0.0,0.0,0.0,0.0,0.0,0.0,0.0,0.0,0.0,0.0,0.0,0.0,0.0,0.0,0.0,0.0,0.0,0.0,0.0,0.0,0.0,0.0,0.0,0.0,-3.5474,-3.618,0.0,0.0,0.0,0.0,-3.793,-3.793,-3.795,-3.8007,-3.8777,-3.9219,-3.9219,-3.9969,-4.0354,-4.0354,-4.0412,-4.0431,-4.0431,-4.0469,-4.0489,-4.0489,-4.0489,-4.0489,-4.0489,-4.0489,-4.0489,-4.0489,-4.0412,-4.0354,-4.0373,-4.0412,-4.0431,-4.0431,-4.0489,-4.0489,-4.0489,-4.0489,-4.0489,-4.0489,-4.0489,-4.0489,-4.0489,-4.0489,-4.0489,0.0,0.0,-4.0489,-4.0489,-4.0489,-4.0489,-4.0489,-4.0489,-4.0489,-4.0489,-4.0489,-4.0489,-4.0489,0.0,-4.0489,-4.0489,-4.0489,0.0,-4.0489,-4.0489,-4.0489,-4.0489,-4.0489,-4.0489,-4.0489,-4.0489,-4.0489,-4.0489,-4.0489,-4.0489,-4.0489,-4.0489,-4.0489,-4.0489,-4.0489,-4.0489,-4.0489,-4.0489,-4.0489,0.0,0.0,0.0,0.0,0.0,0.0,0.0,0.0,0.0,0.0,0.0,0.0,0.0,0.0,0.0,0.0,0.0,0.0,0.0,0.0,0.0,0.0,0.0,0.0,0.0,0.0,0.0,0.0,-3.6276,-3.7026,0.0,-3.7546,-3.7815,-3.8238,-3.8796,-3.8834,-3.9065,-3.9585,-3.9892,-4.0065,-4.0065,-4.0335,-4.0489,-4.0489,-4.0489,-4.0489,-4.0489,-4.0489,-4.0489,-4.0489,-4.0489,-4.0489,-4.0489,-4.0489,-4.0489,-4.0489,-4.0489,-4.0489,-4.0489,-4.0489,-4.0489,-4.0489,-4.0489,-4.0489,-4.0489,-4.0489,-4.0489,-4.0489,-4.0489,-4.0489,-4.0489,-4.0489,-4.0489,-4.0489,-4.0489,-4.0489,-4.0489,-4.0489,-4.0489,-4.0489,-4.0489,-4.0489,-4.0489,-4.0489,-4.0489,-4.0489,-4.0489,-4.0489,-4.0489,-4.0489,-4.0489,-4.0489,-4.0489,-4.0489,-4.0489,-4.0489,-4.0489,-4.0489,-4.0489,-4.0489,-4.0489,-4.0489,-4.0489,-4.0489,-4.0489,-4.0489,-4.0489,-4.0489,-4.0489,-4.0489,-4.0489,-4.0489,-4.0489,0.0,0.0,0.0,0.0,0.0,0.0,0.0,0.0,0.0,0.0,0.0,0.0,0.0,0.0,0.0,0.0,0.0,0.0,0.0,0.0,0.0,0.0,0.0,0.0,0.0,0.0,-3.7142,-3.7142,-3.7911,-3.843,-3.843,-3.8681,-3.9084,-3.9662,-3.97,-3.9931,-4.0469,-4.0489,-4.0489,-4.0489,-4.0489,-4.0489,-4.0489,-4.0777,-4.0931,-4.0931,-4.1239,-4.1373,-4.1373,-4.1373,-4.1373,-4.1373,-4.1373,-4.1373,-4.1373,-4.1373,-4.1373,-4.1316,-4.0719,-4.0489,-4.0489,-4.0489,-4.0489,-4.0489,-4.0489,-4.0489,-4.0489,-4.0489,-4.0489,-4.0489,-4.0489,-4.0489,-4.0489,-4.0489,-4.0489,-4.0489,-4.0489,-4.0489,-4.0489,-4.0489,-4.0489,-4.0489,-4.0489,-4.0489,-4.0489,-4.0489,-4.0489,-4.0489,-4.0489,-4.0489,-4.0489,-4.0489,-4.0489,-4.0489,-4.0489,-4.0489,-4.0489,-4.0489,-4.0489,-4.0489,-4.0489,-4.0489,-4.0489,-4.0489,-4.0489,-4.0489,-4.0489,-4.0489,-4.0489,-4.0489,-4.0489,-4.0489,-4.0489,0.0,0.0,0.0,0.0,0.0,0.0,0.0,0.0,0.0,0.0,0.0,0.0,0.0,0.0,0.0,0.0,0.0,0.0,0.0,0.0,0.0,0.0,0.0,-3.8007,-3.8027,-3.8046,-3.8046,-3.8815,-3.9335,-3.9335,-4.0027,-4.0489,-4.0489,-4.0489,-4.0489,-4.0489,-4.0489,-4.0508,-4.0527,-4.0527,-4.0546,-4.0566,-4.1412,-4.1854,-4.1854,-4.2701,-4.3104,-4.3104,-4.3104,-4.3104,-4.3104,-4.3104,-4.3104,-4.3104,-4.3104,-4.3104,-4.2931,-4.1239,-4.0566,-4.0566,-4.0566,-4.0566,-4.0566,-4.0566,-4.0566,-4.0566,-4.0566,-4.0566,-4.0566,-4.0566,-4.0566,-4.0566,-4.0566,-4.0566,-4.0566,-4.0566,-4.0566,-4.0566,-4.0566,-4.0566,-4.0566,-4.0566,-4.0566,-4.0566,-4.0566,-4.0566,-4.0546,-4.0508,-4.0489,-4.0489,-4.0489,-4.0489,0.0,-4.0489,-4.0489,-4.0508,-4.0527,-4.0527,-4.0527,-4.0527,-4.0527,-4.0527,-4.0489,-4.0489,-4.0489,-4.0489,-4.0489,-4.0489,-4.0489,-4.0489,-4.0489,-4.0489,0.0,0.0,0.0,0.0,0.0,0.0,0.0,0.0,0.0,0.0,0.0,0.0,0.0,0.0,0.0,0.0,0.0,0.0,0.0,0.0,0.0,0.0,-3.8719,-3.8084,-3.8546,-3.8931,-3.8931,-3.9662,-4.0162,-4.0162,-4.0354,-4.0489,-4.0489,-4.0489,-4.0489,-4.0489,-4.0489,-4.0777,-4.1431,-4.145,-4.1758,-4.2374,-4.2624,-4.2739,-4.2758,-4.2989,-4.3104,-4.3104,-4.3104,-4.3104,-4.3104,-4.3104,-4.3104,-4.3104,-4.3104,-4.3104,-4.3047,-4.2566,-4.2393,-4.2393,-4.2393,-4.2393,-4.2393,-4.2393,-4.2393,-4.2393,-4.2393,-4.2393,-4.2393,-4.2393,-4.2393,-4.2393,-4.2393,-4.2393,-4.2393,-4.2393,-4.2393,-4.2393,-4.2393,-4.2393,-4.2393,-4.2393,-4.2393,-4.2393,-4.2393,-4.2393,-4.197,-4.0719,-4.0489,-4.0489,-4.0489,-4.0489,0.0,-4.0489,-4.0489,-4.0739,-4.1373,-4.145,-4.145,-4.145,-4.145,-4.1162,-4.0527,-4.0489,-4.0489,-4.0489,-4.0489,-4.0489,-4.0489,-4.0489,-4.0489,0.0,0.0,0.0,0.0,0.0,0.0,0.0,0.0,0.0,0.0,0.0,0.0,0.0,0.0,0.0,0.0,0.0,0.0,0.0,0.0,0.0,0.0,-3.9796,-3.9623,-3.9123,-3.9469,-3.9796,-3.9796,-4.0219,-4.0489,-4.0489,-4.0489,-4.0489,-4.0489,-4.0835,-4.1046,-4.1046,-4.1393,-4.1816,-4.2335,-4.2335,-4.2585,-4.3104,-4.3431,-4.3605,-4.3605,-4.4335,-4.4701,-4.4701,-4.5047,-4.5182,-4.5182,-4.5182,-4.5182,-4.5182,-4.5182,-4.5182,0.0,0.0,0.0,0.0,0.0,-4.3104,-4.3104,-4.3104,-4.3104,-4.3104,-4.3104,-4.3104,-4.3104,-4.3104,-4.3104,-4.3104,-4.3104,-4.3104,-4.3104,-4.3104,-4.3104,-4.3104,-4.3104,-4.3104,-4.3104,-4.3104,-4.3104,-4.3104,-4.3104,-4.3104,0.0,-4.1758,-4.1585,-4.1585,-4.1585,-4.1585,-4.1585,-4.1585,-4.1585,-4.1777,-4.2297,-4.2335,-4.2335,-4.2335,-4.2335,0.0,0.0,0.0,-4.0873,-4.0508,-4.0489,0.0,0.0,0.0,-4.0267,-4.0119,0.0,0.0,0.0,-4.0457,-4.0489,0.0,0.0,0.0,0.0,0.0,0.0,0.0,0.0,0.0,0.0,0.0,0.0,0.0,0.0,0.0,0.0,-4.0489,-4.0489,-4.0489,-4.0489,-4.0489,-4.0489,-4.0489,-4.0489,-4.0489,-4.0585,-4.0642,-4.0642,-4.145,-4.195,-4.195,0.0,0.0,0.0,0.0,-4.3335,-4.3528,-4.4239,-4.4643,-4.4739,-4.6297,-4.7048,-4.7067,-4.7778,-4.8105,-4.8105,-4.8105,-4.8105,-4.8105,-4.8105,-4.8105,-4.7798,-4.4836,-4.3662,-4.3662,-4.3662,-4.3605,-4.3528,-4.3528,0.0,0.0,-4.3374,-4.3374,-4.3374,-4.3374,-4.3374,-4.3374,-4.3374,-4.3374,-4.3374,-4.3374,-4.3374,-4.3374,-4.3374,-4.3374,-4.3374,-4.3374,-4.3374,-4.3374,-4.3374,-4.3374,-4.3374,-4.3374,-4.322,-4.3104,-4.3104,-4.3104,-4.3104,-4.3104,-4.3104,-4.3124,-4.3239,0.0,0.0,-4.3186,-4.3133,-4.3077,-4.2981,-4.2251,-4.1483,-4.0696,-4.0614,-4.0473,-4.0234,-4.0177,-3.9983,-3.9712,-3.9712,-3.984,-4.0101,-4.0339,-4.0473,0.0,0.0,0.0,0.0,0.0,0.0,0.0,0.0,0.0,0.0,0.0,0.0,0.0,0.0,0.0,-4.0473,-4.0489,-4.0489,-4.0489,-4.0489,-4.0489,-4.0489,-4.0489,-4.0489,-4.0489,-4.1143,-4.1546,-4.1546,-4.2354,-4.2854,-4.2854,-4.3008,-4.3393,-4.4047,-4.4066,-4.4739,-4.6163,-4.6317,-4.6721,-4.7375,0.0,0.0,-4.7875,-4.8029,-4.8105,-4.8105,-4.8105,-4.8105,-4.8105,-4.8105,-4.8105,-4.8048,-4.7394,-4.7124,-4.7124,-4.7124,-4.6721,-4.6182,-4.6182,-4.5701,-4.5105,-4.5105,-4.5105,-4.5105,-4.5105,-4.5105,0.0,-4.5105,-4.5105,-4.5105,-4.5105,-4.5105,-4.5105,-4.5105,-4.5105,-4.5105,-4.5105,-4.5105,-4.5105,-4.5105,-4.5105,-4.5105,-4.5105,-4.3989,-4.3104,-4.3104,-4.3104,-4.3104,-4.3104,-4.3104,-4.3355,-4.3989,-4.3829,-4.3652,-4.3652,-4.3418,-4.2976,-4.2271,-4.2063,-4.1888,-4.1718,-4.1335,-4.1112,-4.1072,-4.063,-4.0389,-4.0336,-4.0336,-4.025,-4.0101,-4.0158,-4.0285,0.0,0.0,0.0,0.0,0.0,0.0,0.0,0.0,0.0,0.0,0.0,-3.9901,0.0,0.0,-4.0339,-4.0473,-4.0489,-4.0489,-4.0489,-4.0873,-4.0989,-4.0546,-4.0893,-4.1143,-4.1143,-4.195,-4.245,-4.245,-4.3239,-4.3701,-4.3701,-4.4528,-4.5201,-4.5586,-4.599,-4.6624,-4.749,-4.7509,-4.7702,-4.8105,-4.8548,-4.8759,-4.8779,-4.9202,-4.9394,-4.9394,-4.9394,-4.9394,-4.9394,-4.9394,-4.9394,-4.9394,-4.9394,-4.8875,-4.8105,-4.8105,-4.7855,-4.7509,-4.7509,-4.7221,-4.6855,-4.6855,-4.6855,-4.6855,-4.6855,-4.6855,-4.6855,-4.6855,-4.6855,-4.6855,-4.6855,-4.6855,-4.6855,-4.6855,-4.6855,-4.6855,-4.6855,-4.6855,-4.6855,-4.6855,-4.6528,-4.624,-4.624,-4.5182,-4.4355,-4.4355,-4.4355,-4.4355,-4.4355,-4.4355,-4.4509,-4.4913,-4.4652,-4.451,-4.469,-4.4383,-4.382,-4.2966,-4.2743,-4.2454,-4.204,-4.177,-4.1586,-4.1461,-4.1188,-4.0776,-4.0203,-4.0321,-4.022,-3.984,-4.0022,-4.0177,0.0,0.0,0.0,0.0,0.0,0.0,0.0,0.0,-3.916,-3.9107,-3.9414,-3.9775,-4.0042,-4.0286,-4.0441,-4.0489,-4.0489,-4.0546,-4.0719,-4.1354,-4.1604,-4.1066,-4.1623,-4.2047,-4.2047,-4.2835,-4.3335,-4.3335,-4.4259,-4.4816,-4.4816,-4.6297,-4.7144,-4.7144,-4.7759,-4.8182,-4.8355,-4.8355,-4.8432,-4.8606,-4.9317,-4.9644,-4.9683,-5.0375,-5.0702,-5.0702,-5.0702,-5.0702,-5.0702,-5.0702,-5.0702,-5.0702,-5.0702,-4.9837,-4.8606,-4.8606,-4.8509,-4.8355,-4.8355,-4.824,-4.8105,-4.8105,-4.8105,-4.8105,-4.8105,-4.8105,-4.8105,-4.8105,-4.8105,-4.8105,-4.8105,-4.8105,-4.8105,-4.8105,-4.8105,-4.8105,-4.8105,-4.8105,-4.8105,-4.8105,-4.7586,-4.7144,-4.7144,-4.6547,-4.597,-4.5643,-4.5586,-4.5586,-4.5586,-4.5586,-4.5568,-4.5513,-4.5201,-4.5055,-4.5163,-4.4947,-4.4478,-4.3772,-4.3484,-4.3023,-4.2321,-4.2187,-4.205,-4.1845,-4.1716,-4.1239,-4.0314,-4.0533,-4.0457,-4.009,-4.0245,-4.0272,-3.8248,-3.8505,-3.8597,-3.8689,-3.8719,-3.875,0.0,0.0,-3.9462,-3.916,-3.9599,-4.0061,-4.0101,-4.012,-4.0213,-4.0457,-4.0489,-4.0758,-4.1546,-4.1739,-4.2047,-4.2739,-4.2893,-4.2951,-4.2951,-4.3682,-4.4162,-4.4162,-4.5682,-4.6605,-4.6605,-4.7471,-4.7971,-4.7971,-4.8048,-4.8471,-4.924,-4.924,-4.9644,-5.0414,-5.051,-5.0548,-5.0548,-5.0644,-5.0702,-5.0702,-5.0702,-5.0702,-5.0702,-5.0702,-5.0702,-5.0702,-5.0702,-5.0567,-5.0414,-5.0414,-4.9913,-4.924,-4.924,-4.8759,-4.8105,-4.8105,-4.8105,-4.8105,-4.8105,-4.8105,-4.8105,-4.8105,-4.8105,-4.8105,-4.8105,-4.8105,-4.8105,-4.8105,-4.8105,-4.8105,-4.8105,-4.8105,-4.8105,-4.8105,-4.8029,-4.7971,-4.7971,-4.7875,-4.7317,-4.5817,-4.5586,-4.5586,-4.5586,-4.5586,-4.5495,-4.5201,-4.4872,-4.4419,-4.3791,-4.3712,-4.3642,-4.355,-4.3483,-4.3413,-4.3339,-4.2922,-4.2712,-4.2672,-4.2181,-4.1889,-4.1762,-4.1813,-4.1807,-4.1806,-4.1385,-4.0921,-3.8615,-3.8707,-3.8707,0.0,-3.8833,-3.8894,-3.875,-3.9036,-3.9264,-3.9125,-3.9314,-3.9645,-4.0022,-3.9943,-3.9944,0.0,-4.0756,-4.1146,-4.1723,-4.2643,-4.3393,-4.3758,-4.4239,-4.4355,-4.3855,-4.4547,-4.5259,-4.5778,-4.649,-4.7105,-4.7567,-4.8394,-4.8856,-4.8856,-4.9356,-4.9779,-5.0144,-5.0164,-5.0337,-5.0702,-5.0702,-5.0702,-5.0702,-5.0702,-5.0702,-5.0702,-5.0702,-5.0702,-5.0702,-5.0702,-5.0702,-5.0702,-5.0702,-5.0702,-5.0702,-5.0702,-5.0471,-5.0164,-5.0164,-4.9913,-4.9606,-4.9606,-4.9606,-4.9606,-4.9606,-4.9606,-4.9606,-4.9606,-4.9606,-4.9606,-4.9606,-4.9606,-4.9606,-4.9606,-4.9606,-4.9606,-4.9606,-4.9606,-4.9606,-4.9606,-4.9202,-4.8856,-4.8856,-4.8432,-4.778,-4.6854,-4.6513,-4.6089,-4.5419,-4.5322,-4.5077,-4.4516,-4.4535,-4.4392,-4.3836,-4.3804,-4.3804,-4.3804,-4.3597,-4.3597,-4.3772,-4.3412,-4.3291,-4.3502,-4.3107,-4.2637,-4.2173,-4.2389,-4.2258,-4.1798,-4.1942,-4.1876,-3.8707,0.0,0.0,-3.8707,-3.8844,-3.8933,-3.8732,-3.8894,-3.9099,-3.9099,-3.916,-3.9408,-3.988,-3.9775,-3.9854,-4.059,-4.1054,-4.1571,-4.2379,-4.3528,-4.4393,-4.4624,-4.522,-4.5451,-4.5066,-4.5586,-4.622,-4.6855,-4.7336,-4.7836,-4.8432,-4.9279,-4.976,-4.976,-5.0356,-5.0702,-5.0702,-5.0702,-5.0702,-5.0702,-5.0702,-5.0702,-5.0702,-5.0933,-5.1164,-5.1395,-5.1395,-5.1395,-5.1395,-5.1395,-5.1395,-5.1395,-5.1395,-5.1395,-5.1395,-5.1395,-5.1087,-5.0702,-5.0702,-5.0702,-5.0702,-5.0702,-5.0702,-5.0702,-5.0702,-5.0702,-5.0702,-5.0702,-5.0702,-5.0702,-5.0702,-5.0702,-5.0702,-5.0702,-5.0702,-5.0702,-5.0702,-5.0702,-5.0702,-5.0702,-5.0105,-4.9583,-4.9583,-4.8984,-4.8318,-4.7781,-4.7449,-4.6866,-4.5765,-4.5328,-4.4832,-4.4095,-4.4165,-4.4165,-4.3881,-4.3849,-4.3849,-4.3849,-4.3612,-4.3597,-4.3849,-4.3612,-4.3646,-4.3998,-4.374,-4.3435,-4.2921,-4.3178,-4.3044,-4.2554,-4.2669,-4.2824,0.0,0.0,-3.8707,-3.8707,-3.8707,-3.8689,-3.8707,-3.8894,-3.9099,-3.9099,-3.9364,-3.9599,-3.9622,-3.9599,-3.9977,-4.1091,-4.1284,-4.1973,-4.3936,-4.4259,-4.4605,-4.5451,-4.5566,-4.5913,0.0,-4.6855,-4.6874,-4.6913,-4.8413,-4.9336,-4.9356,-5.0183,-5.0644,-5.0644,-5.0683,-5.0702,-5.0702,-5.0702,-5.0702,-5.0702,-5.0702,-5.0702,-5.0721,-5.151,-5.2318,-5.3126,-5.3126,-5.3126,-5.3126,-5.3126,-5.3126,-5.3126,-5.3126,-5.3126,-5.3126,-5.3126,-5.2106,-5.0702,-5.0702,-5.0702,-5.0702,-5.0702,-5.0702,-5.0702,-5.0702,-5.0702,-5.0702,-5.0702,-5.0702,-5.0702,-5.0702,-5.0702,-5.0702,-5.0702,-5.0702,-5.0702,-5.0702,-5.0702,-5.0702,-5.0702,-5.0361,-5.0097,-5.0097,-4.9743,-4.9174,-4.8315,-4.8164,-4.7862,-4.7061,-4.5918,-4.4873,-4.4091,-4.3726,-4.3513,-4.3513,-4.3513,-4.3513,-4.3513,-4.3532,-4.3479,-4.3513,-4.3532,-4.3646,-4.3998,-4.3986,-4.4157,-4.4516,-4.4542,-4.4694,-4.4979,-4.3824,-4.3612,-3.8707,0.0,-3.8707,-3.8707,-3.8707,-3.8707,-3.8707,-3.8762,-3.8844,-3.8844,-3.8913,-3.9231,-3.9914,-3.9638,-3.987,-4.1791,-4.2142,-4.2661,-4.409,-4.4797,-4.5259,-4.5566,-4.5586,0.0,0.0,0.0,0.0,-4.849,-4.9086,-4.9644,-5.0221,-5.0529,-5.0702,-5.0702,-5.0702,-5.0702,-5.0702,-5.0702,-5.0971,-5.151,-5.2087,-5.2356,-5.2375,-5.2645,-5.2933,-5.3203,-5.3203,-5.3203,-5.3203,-5.3203,-5.3203,-5.3203,-5.3203,-5.3203,-5.3203,-5.3203,-5.2837,-5.2279,-5.1702,-5.151,-5.1414,-5.0856,-5.0702,-5.0702,-5.0702,-5.0702,-5.0702,-5.0702,-5.0702,-5.0702,-5.0702,-5.0702,-5.0624,-5.0377,-5.0294,-5.0225,-4.9949,-4.9898,-4.9898,-4.9898,-4.98,-4.9719,-4.9719,-4.9589,-4.9322,-4.8746,-4.7729,-4.6894,-4.6632,-4.6038,-4.5342,-4.4531,-4.4338,-4.4085,-4.3534,-4.3497,-4.3497,-4.3497,-4.3497,-4.3597,-4.3818,-4.3631,-4.3646,-4.3998,-4.4016,-4.4076,-4.4204,-4.4474,-4.4657,-4.4757,-4.4569,-4.4614,-3.8707,-3.8707,-3.8707,-3.8707,-3.8707,-3.8707,-3.8707,-3.8707,-3.8707,-3.8707,-3.8707,-3.8897,-3.9608,-3.9389,-3.978,-4.1841,-4.2436,-4.3061,-4.4403,-4.5074,-4.5419,-4.5419,-4.5551,-4.6047,0.0,0.0,0.0,-4.9317,-4.9683,-5.0106,-5.0664,-5.0702,-5.0702,-5.0702,-5.0702,-5.0702,-5.0702,-5.0991,-5.1548,-5.2375,-5.2933,-5.3356,-5.3664,-5.3664,-5.3818,-5.4087,-5.4087,-5.4087,-5.4087,-5.4087,-5.4087,-5.4087,-5.4087,-5.4087,-5.4087,-5.4087,-5.4087,-5.3933,-5.2779,-5.2375,-5.2279,-5.176,-5.1587,-5.1587,-5.1587,-5.1587,-5.1529,-5.1221,-5.1027,-5.0847,-5.056,-5.0377,-5.0225,-4.9949,-4.9898,-4.98,-4.958,-4.9504,-4.9504,-4.9504,-4.9386,-4.9295,-4.9295,-4.919,-4.8996,-4.8709,-4.7768,-4.699,-4.6712,-4.6468,-4.603,-4.5223,-4.5131,-4.48,-4.3993,-4.392,-4.3809,-4.3516,-4.3497,-4.3597,-4.3804,-4.3612,-4.3646,-4.3998,-4.4016,-4.4117,-4.4382,-4.4638,-4.4849,-4.4966,-4.5052,-4.5161,-3.8707,-3.8707,-3.8707,-3.8707,-3.8707,-3.8707,-3.8707,-3.8707,-3.8707,-3.8707,-3.8707,-3.8707,0.0,0.0,-3.9666,-4.1325,-4.2143,-4.3132,-4.477,-4.5055,-4.5074,0.0,0.0,0.0,0.0,0.0,0.0,-4.9433,0.0,-5.0702,-5.0702,-5.0702,-5.0702,-5.0702,-5.0702,-5.0721,-5.076,-5.1606,-5.2452,-5.328,-5.3318,-5.376,-5.4549,-5.4549,-5.4972,-5.5703,-5.5703,-5.5703,-5.5703,-5.5703,-5.5703,-5.5703,-5.5703,-5.5703,-5.5703,-5.5703,-5.5703,-5.5472,-5.3876,-5.3299,-5.326,-5.3222,-5.3203,-5.3203,-5.3203,-5.3182,-5.3009,-5.2182,-5.1641,-5.1135,-5.0335,-4.983,-4.9531,-4.9475,-4.9475,-4.9445,-4.9445,-4.9445,-4.9445,-4.9445,-4.9139,-4.8863,-4.8863,-4.8532,-4.8306,-4.8306,-4.8306,-4.8031,-4.7278,-4.7186,-4.6856,-4.6049,-4.5957,-4.5645,-4.4837,-4.4764,-4.4433,-4.3663,-4.3608,-4.3589,-4.3552,-4.3552,-4.3682,-4.3986,-4.4016,-4.4373,-4.5074,-4.5096,-4.5302,-4.5586,-4.5263,-4.5302,-3.8707,-3.8707,-3.8707,-3.8707,-3.8707,-3.8707,-3.8707,-3.8707,-3.8707,-3.8707,-3.8707,-3.8891,0.0,0.0,0.0,-4.1325,-4.1964,0.0,-4.3615,-4.4335,0.0,-4.4726,0.0,-4.6278,-4.748,-4.8319,0.0,0.0,-5.0567,-5.0702,-5.0702,-5.0702,-5.0702,-5.0702,-5.0702,-5.0991,-5.1587,-5.3087,-5.3953,-5.4184,-5.478,-5.5184,-5.5395,-5.5395,-5.5511,-5.5703,-5.5703,-5.5703,-5.5703,-5.5703,-5.5703,-5.5703,-5.5703,-5.5703,-5.5703,-5.5703,-5.5703,-5.5645,-5.5203,-5.4664,-5.4068,-5.3414,-5.3203,-5.3203,-5.3203,-5.2996,-5.2709,-5.248,-5.2091,-5.1565,-5.0752,-5.0486,-5.0169,-4.9257,-4.9043,-4.8963,-4.8657,-4.8604,-4.8604,-4.8604,-4.8513,-4.8458,-4.8458,-4.8364,-4.8306,-4.8306,-4.8306,-4.8233,-4.8031,-4.7994,-4.77,-4.6893,-4.6801,-4.6471,-4.5663,-4.559,-4.5516,-4.5296,-4.5278,-4.5021,-4.4415,-4.4397,-4.4173,-4.3631,-4.4165,-4.4553,-4.4751,-4.5222,-4.5513,-4.5586,-4.5513,-4.5513,-3.8707,-3.8707,-3.8707,-3.8707,-3.8707,-3.8707,-3.8707,-3.8707,-3.8707,-3.8707,-3.8707,0.0,-3.9294,0.0,0.0,0.0,0.0,0.0,-4.2953,-4.3501,-4.3951,0.0,-4.5212,0.0,-4.7283,-4.8422,-4.9461,0.0,-5.0604,-5.0702,-5.0702,-5.0702,-5.0702,-5.0702,-5.0869,-5.1532,-5.2717,-5.3909,-5.4684,-5.503,-5.5472,-5.5703,-5.5703,-5.5703,-5.5703,-5.5703,0.0,-5.5703,-5.5703,-5.5703,-5.5703,-5.5703,-5.5703,-5.5703,-5.5703,-5.5703,-5.5703,-5.5662,-5.5489,-5.5135,-5.4699,-5.4391,-5.4299,-5.4259,-5.4089,-5.3886,-5.3568,-5.3024,-5.2572,-5.2015,-5.1171,-5.0852,-5.048,-4.9452,-4.9195,-4.903,-4.8418,-4.8306,-4.8306,-4.8306,-4.8306,-4.8306,-4.8306,-4.8306,-4.8306,-4.8306,-4.8306,-4.8306,-4.8306,-4.8306,-4.8141,-4.7682,-4.7645,-4.7315,-4.6507,-4.6434,-4.6287,-4.592,-4.5902,-4.57,-4.5259,-4.5241,-4.5021,-4.4562,-4.5127,-4.5519,-4.5636,-4.6228,-4.6551,-4.6701,-4.6701,-4.6701,-3.8707,-3.8707,-3.8707,-3.8707,-3.8707,-3.8707,-3.8707,-3.8707,-3.8707,-3.8707,0.0,-3.8707,-3.8707,-3.9127,-3.9544,-3.9712,0.0,-4.1449,-4.2425,-4.2672,-4.3044,-4.3831,-4.5023,-4.6153,-4.7005,-4.8456,-4.9532,-5.0068,-5.0358,-5.0544,-5.0544,-5.0544,-5.0582,-5.0698,-5.1295,-5.2336,-5.3784,-5.4357,-5.5011,-5.5703,-5.5703,-5.5703,-5.5703,-5.5703,-5.5703,-5.5703,-5.5703,0.0,-5.5703,-5.5703,-5.5703,-5.5703,-5.5703,-5.5703,-5.5684,-5.564,-5.5621,-5.5577,-5.516,-5.5007,-5.5061,-5.5423,-5.5535,-5.5489,-5.5134,-5.4979,-5.4696,-5.3597,-5.2981,-5.2493,-5.1639,-5.1172,-5.0765,-4.9939,-4.9738,-4.9517,-4.8655,-4.8379,-4.8306,-4.8306,-4.8306,-4.8306,-4.8306,-4.8306,-4.8306,-4.8306,-4.8306,-4.8306,-4.8306,-4.8306,-4.8306,-4.8306,-4.8306,-4.8031,-4.7333,-4.7278,-4.6966,-4.6269,-4.6214,-4.6177,-4.6067,-4.6067,-4.6012,-4.5902,-4.6298,-4.6656,-4.6994,-4.7395,-4.7771,-4.8105,-4.8105,-4.8105,-3.8707,-3.8707,-3.8707,-3.8707,-3.8707,-3.8707,-3.8707,-3.8707,0.0,0.0,-3.8707,-3.8707,-3.8707,-3.8792,-3.8859,-3.8903,0.0,0.0,0.0,0.0,-4.2695,0.0,0.0,0.0,0.0,0.0,0.0,0.0,0.0,-4.9719,-4.9719,-4.9719,-5.0022,-5.0676,-5.2441,-5.3499,-5.3784,-5.4914,-5.5549,-5.5703,-5.5703,-5.5703,-5.5703,-5.5703,-5.5703,-5.5703,-5.5703,0.0,-5.5703,-5.5703,-5.5703,-5.5703,-5.5703,-5.5703,-5.5662,-5.5331,-5.5212,-5.516,-5.4731,-5.4609,-5.4628,-5.4689,-5.472,-5.472,-5.4628,-5.4336,-5.3975,-5.3773,-5.34,-5.289,-5.2081,-5.1856,-5.1591,-5.0784,-5.0582,-5.0362,-4.9536,-4.8802,-4.8306,-4.8306,-4.8306,-4.8306,-4.8306,-4.8306,-4.8306,-4.8306,-4.8306,-4.8306,-4.8306,-4.8306,-4.8306,-4.8306,-4.8306,-4.8251,-4.8104,-4.8104,-4.8031,-4.7902,-4.7884,-4.759,-4.6929,-4.6911,-4.6581,-4.5902,-4.6246,-4.6607,-4.6994,-4.7352,-4.7709,-4.8105,-4.8105,-4.8105,-3.8707,-3.8707,-3.8707,-3.8707,-3.8707,-3.8707,-3.8707,0.0,0.0,0.0,-3.8707,-3.8707,-3.8707,-3.8815,0.0,0.0,0.0,0.0,0.0,0.0,0.0,0.0,0.0,0.0,0.0,0.0,0.0,0.0,0.0,-4.9295,-4.9475,-4.9889,-5.0402,-5.1007,-5.2621,-5.3717,-5.4153,-5.4976,-5.5489,-5.5703,-5.5703,-5.5703,-5.5703,-5.5703,-5.5703,-5.5703,-5.5703,0.0,-5.5703,-5.5703,-5.5577,-5.5399,-5.5399,-5.5256,-5.5061,-5.4867,-5.4809,-5.4731,-5.4288,-5.4118,-5.4083,-5.3888,-5.4137,-5.4452,-5.4221,-5.3977,-5.374,-5.3545,-5.3359,-5.3115,-5.2729,-5.2619,-5.2417,-5.161,-5.1096,-5.0692,-5.0306,-4.9554,-4.8967,-4.8967,-4.8618,-4.8306,-4.8306,-4.8306,-4.8306,-4.8306,-4.8306,-4.8306,-4.8306,-4.8306,-4.8306,-4.8306,-4.8306,-4.8306,-4.8306,-4.8306,-4.8306,-4.8306,-4.8306,-4.8141,-4.7755,-4.7737,-4.7553,-4.7168,-4.7525,-4.7897,-4.8296,-4.8663,-4.9048,-4.9452,-4.9452,-4.9452,-3.8707,-3.8707,-3.8707,-3.8707,-3.8707,-3.8707,-3.8707,-3.8707,0.0,0.0,-3.8707,-3.8707,-3.8707,0.0,-3.8933,0.0,-3.9032,0.0,0.0,0.0,0.0,0.0,0.0,0.0,0.0,0.0,0.0,0.0,0.0,0.0,-4.9234,-5.0191,-5.089,-5.1176,-5.2585,-5.3663,-5.4355,-5.476,-5.5134,-5.5446,-5.5512,-5.5577,-5.5577,-5.5662,-5.5703,-5.5703,-5.5703,0.0,0.0,-5.5577,-5.5331,-5.4979,-5.4979,-5.4779,-5.4503,-5.4406,-5.4355,-5.4288,-5.3833,-5.3644,-5.3624,-5.3295,-5.3662,-5.4137,-5.3796,-5.3644,-5.3604,-5.3295,-5.3206,-5.3206,-5.3206,-5.3206,-5.3041,-5.2417,-5.1646,-5.1059,-5.1059,-5.0417,-4.9793,-4.9609,-4.904,-4.8526,-4.8343,-4.8306,-4.8306,-4.8306,-4.8306,-4.8306,-4.8306,-4.8306,-4.8306,-4.8306,-4.8306,-4.8306,-4.8306,-4.8306,-4.8306,-4.8306,-4.8306,-4.8306,-4.8306,-4.8306,-4.8306,-4.8306,-4.8692,-4.9108,-4.9504,-4.9898,-5.0313,-5.0702,-5.0702,-5.0702,-3.8707,-3.8707,-3.8707,-3.8707,-3.8707,-3.8707,-3.8707,0.0,0.0,-3.8707,-3.8707,-3.8707,-3.8707,-3.8719,-3.8719,0.0,0.0,-4.0097,0.0,0.0,0.0,0.0,0.0,0.0,0.0,0.0,0.0,0.0,0.0,0.0,-4.8402,-4.991,-5.0812,-5.0845,-5.2735,-5.3758,-5.3869,-5.4322,-5.4547,-5.4609,-5.4979,-5.516,-5.516,-5.5535,-5.5703,-5.5703,-5.5703,0.0,0.0,-5.516,-5.4924,-5.4566,-5.4566,-5.4535,-5.4471,-5.4013,-5.3869,-5.3814,-5.34,-5.3272,-5.323,-5.3206,-5.323,-5.3295,-5.3272,-5.3272,-5.323,-5.3206,-5.3206,-5.3206,-5.3206,-5.3206,-5.3188,-5.3115,-5.2472,-5.1885,-5.1885,-5.1261,-5.0472,-4.9719,-4.9517,-4.9224,-4.8434,-4.8306,-4.8306,-4.8306,-4.8306,-4.8306,-4.8306,-4.8306,-4.8306,-4.8306,-4.8306,-4.8306,-4.8306,-4.8306,-4.8306,-4.8306,-4.8306,-4.8306,-4.8306,-4.8306,-4.8306,-4.8306,-4.8692,-4.9108,-4.9504,-4.9898,-5.0313,-5.0702,-5.0702,-5.0702,-3.8732,-3.8833,-3.8894,-3.875,-3.8707,-3.8707,-3.8707,0.0,-3.8707,-3.8707,-3.8707,-3.8707,-3.8707,-3.8707,-3.8707,0.0,0.0,0.0,0.0,0.0,0.0,0.0,0.0,0.0,0.0,0.0,0.0,0.0,0.0,0.0,-4.8306,-4.9903,-5.0802,-5.0802,-5.2512,-5.3584,-5.3814,-5.3977,-5.4221,-5.4503,-5.464,-5.4731,-5.4731,-5.4905,-5.4979,-5.4979,-5.4979,0.0,0.0,-5.4731,-5.4484,-5.4083,-5.4083,-5.3943,-5.3682,-5.3524,-5.3444,-5.3422,-5.3272,-5.3206,-5.3206,-5.3206,-5.3206,-5.3206,-5.3206,-5.3206,-5.3206,-5.3206,-5.3206,-5.3206,-5.3206,-5.3206,-5.3206,-5.3206,-5.2968,-5.2729,-5.2729,-5.2087,-5.1426,-5.1096,-5.0637,-5.005,-4.9224,-4.9077,-4.8893,-4.8379,-4.8306,-4.8306,-4.8306,-4.8306,-4.8306,-4.8306,-4.8306,-4.8306,-4.8306,-4.8306,-4.8306,-4.8306,-4.8306,-4.8306,-4.8306,-4.8306,-4.8306,-4.8306,-4.8692,-4.9108,-4.9504,-4.9898,-5.0313,-5.0702,-5.0702,-5.0702,-3.8732,-3.8844,-3.8952,-3.875,-3.8707,-3.8707,0.0,0.0,-3.8707,-3.8707,-3.8707,-3.8707,-3.8707,-3.8707,-3.8707,0.0,0.0,-3.9533,-4.0928,0.0,0.0,0.0,0.0,0.0,0.0,0.0,0.0,0.0,0.0,0.0,-4.8306,-4.9903,-5.0802,-5.0802,-5.2362,-5.3336,-5.3624,-5.3624,-5.3796,-5.4121,-5.424,-5.4288,-5.4288,-5.4439,-5.4503,-5.4503,-5.4503,0.0,0.0,-5.4288,-5.4032,-5.3624,-5.3624,-5.3444,-5.3206,-5.3206,-5.3206,-5.3206,-5.3206,-5.3206,-5.3206,-5.3206,-5.3206,-5.3206,-5.3206,-5.3206,-5.3206,-5.3206,-5.3206,-5.3206,-5.3206,-5.3206,-5.3206,-5.3206,-5.3206,-5.3206,-5.3206,-5.2747,-5.227,-5.205,-5.1536,-5.0894,-5.0086,-4.9738,-4.937,-4.8783,-4.8471,-4.8306,-4.8306,-4.8306,-4.8306,-4.8306,-4.8306,-4.8306,-4.8306,-4.8306,-4.8306,-4.8306,-4.8306,-4.8306,-4.8306,-4.8306,-4.8364,-4.8495,-4.8863,-4.9265,-4.9692,-5.0068,-5.0421,-5.0702,-5.0702,-5.0702,-3.8707,-3.8707,-3.8707,-3.8707,-3.8707,-3.8707,0.0,-3.8707,-3.8707,-3.8707,-3.8707,-3.8707,-3.8707,-3.8707,-3.8707,-3.8707,0.0,0.0,-4.1001,0.0,0.0,0.0,0.0,0.0,0.0,0.0,0.0,0.0,0.0,0.0,-4.8306,-4.9903,-5.0802,-5.0802,-5.2362,-5.3206,-5.3206,-5.3206,-5.3206,-5.3206,-5.3643,-5.3814,-5.3814,-5.4288,-5.4503,-5.4503,0.0,0.0,0.0,-5.3814,-5.3565,-5.3206,-5.3206,-5.3206,-5.3206,-5.3206,-5.3206,-5.3206,-5.3206,-5.3206,-5.3206,-5.3206,-5.3206,-5.3206,-5.3206,-5.3206,-5.3206,-5.3206,-5.3206,-5.3206,-5.3206,-5.3206,-5.3206,-5.3206,-5.3206,-5.3206,-5.3206,-5.3206,-5.2968,-5.2142,-5.1977,-5.172,-5.093,-5.0123,-4.9591,-4.9572,-4.8838,-4.8306,-4.8306,-4.8306,-4.8306,-4.8306,-4.8306,-4.8306,-4.8306,-4.8306,-4.8306,-4.8306,-4.8306,-4.8306,-4.8306,-4.8306,-4.8477,-4.8897,-4.9295,-4.9692,-5.0092,-5.0504,-5.0702,-5.0702,-5.0702,-5.0702,-3.8971,-3.8971,-3.8971,-3.8971,-3.8844,-3.8732,-3.8933,-3.8844,-3.8707,-3.8707,-3.8707,-3.8707,-3.8707,-3.8707,-3.8707,-3.8707,-3.8909,0.0,0.0,0.0,0.0,0.0,0.0,0.0,0.0,0.0,0.0,0.0,0.0,0.0,-4.8306,-4.9903,-5.0802,-5.0802,-5.2362,-5.3206,-5.3206,-5.3206,-5.3206,-5.3206,-5.3336,-5.3381,-5.3381,-5.3524,-5.3584,0.0,0.0,0.0,0.0,-5.3381,-5.3336,-5.3206,-5.3206,-5.3206,-5.3206,-5.3206,-5.3206,-5.3206,-5.3206,-5.3206,-5.3206,-5.3206,-5.3206,-5.3206,-5.3206,-5.3206,-5.3206,-5.3206,-5.3206,-5.3206,-5.3206,-5.3206,-5.3206,-5.3206,-5.3206,-5.3206,-5.3206,-5.3206,-5.3133,-5.2876,-5.2821,-5.2564,-5.1756,-5.1408,-5.0857,-4.9756,-4.9352,-4.8967,-4.8379,-4.8306,-4.8306,-4.8306,-4.8306,-4.8306,-4.8306,-4.8306,-4.8306,-4.8306,-4.8306,-4.8306,-4.8306,-4.8568,-4.8779,-4.8897,-4.9561,-4.9974,-5.0092,-5.0504,-5.0702,-5.0702,-5.0702,-5.0702,0.0,-3.8961,-3.8961,-3.8961,-3.8815,0.0,0.0,-3.8815,-3.8707,-3.8707,-3.8707,-3.8707,-3.8707,-3.8707,-3.8707,-3.8707,-3.8707,0.0,0.0,0.0,0.0,0.0,0.0,0.0,0.0,0.0,0.0,0.0,0.0,0.0,-4.8306,-4.9591,-5.049,-5.0802,-5.2362,-5.3206,-5.3206,-5.3206,-5.3206,-5.3206,-5.3206,-5.3206,-5.3206,-5.3206,-5.3206,0.0,0.0,0.0,0.0,-5.3206,-5.3206,-5.3206,-5.3206,-5.3206,-5.3206,-5.3206,-5.3206,-5.3206,-5.3206,-5.3206,-5.3206,-5.3206,-5.3206,-5.3206,-5.3206,-5.3206,-5.3206,-5.3206,-5.3206,-5.3206,-5.3206,-5.3206,-5.3206,-5.3206,-5.3206,-5.3206,-5.3206,-5.3206,-5.3206,-5.3206,-5.3206,-5.3041,-5.2546,-5.2197,-5.1555,-5.0233,-4.9774,-4.9279,-4.8416,-4.8306,-4.8306,-4.8306,-4.8306,-4.8306,-4.8306,-4.8306,-4.8306,-4.8306,-4.8306,-4.8306,-4.8306,-4.855,-4.8763,-4.8897,-4.9532,-4.9949,-5.0092,-5.0504,-5.0702,-5.0702,-5.0702,-5.0702,0.0,-3.8719,0.0,0.0,0.0,0.0,-3.8719,-3.8719,0.0,-3.8707,-3.8707,-3.8707,-3.8707,-3.8707,-3.8707,-3.8707,0.0,0.0,0.0,0.0,0.0,0.0,0.0,0.0,0.0,0.0,0.0,0.0,0.0,0.0,-4.8306,-4.9114,-4.9921,-5.0692,-5.2289,-5.3151,-5.3206,-5.3206,-5.3206,-5.3206,-5.3206,-5.3206,-5.3206,-5.3206,-5.3206,0.0,0.0,0.0,0.0,-5.3206,-5.3206,-5.3206,-5.3206,-5.3206,-5.3206,-5.3206,-5.3206,-5.3206,-5.3206,-5.3206,-5.3206,-5.3206,-5.3206,-5.3206,-5.3206,-5.3206,-5.3206,-5.3206,-5.3206,-5.3206,-5.3206,-5.3206,-5.3206,-5.3206,-5.3206,-5.3206,-5.3206,-5.3206,-5.3206,-5.3206,-5.3206,-5.3206,-5.3206,-5.2582,-5.1811,-5.1004,-5.0196,-4.9352,-4.8508,-4.8343,-4.8306,-4.8306,-4.8306,-4.8306,-4.8306,-4.8306,-4.8306,-4.8306,-4.8306,-4.8306,-4.8306,-4.8344,-4.8513,-4.8897,-4.9326,-4.9719,-5.0092,-5.0483,-5.0663,-5.0663,-5.0663,-5.0663,-3.8961,0.0,-3.8732,-3.8961,-3.8855,-3.8762,0.0,-3.8844,-3.8707,-3.8707,0.0,-3.8707,-3.8707,-3.8707,-3.8707,0.0,0.0,0.0,0.0,0.0,0.0,0.0,0.0,0.0,0.0,0.0,0.0,0.0,0.0,-4.8306,-4.8306,-4.9114,-4.9682,-4.9866,-5.1426,-5.2582,-5.3206,-5.3206,-5.3206,-5.3206,-5.3206,-5.3206,-5.3206,-5.3206,-5.3206,0.0,0.0,0.0,-5.3206,-5.3206,-5.3206,-5.3206,-5.3206,-5.3206,-5.3206,-5.3206,-5.3206,-5.3206,-5.3206,-5.3206,-5.3206,-5.3206,-5.3206,-5.3206,-5.3206,-5.3206,-5.3206,-5.3206,-5.3206,-5.3206,-5.3206,-5.3206,-5.3206,-5.3206,-5.3206,-5.3206,-5.3206,-5.3206,-5.3206,-5.3206,-5.3206,-5.3206,-5.3206,-5.3041,-5.2637,-5.183,-5.1022,-5.0215,-4.9389,-4.871,-4.8306,-4.8306,-4.8306,-4.8306,-4.8306,-4.8306,-4.8306,-4.8306,-4.8306,-4.8306,-4.8306,-4.8604,-4.8795,-4.8897,-4.9589,-5.0019,-5.0092,-5.0183,-5.0249,-5.0249,-5.0249,-5.0399,-3.9205,-3.9017,-3.875,-3.8884,-3.8803,-3.875,-3.8865,0.0,0.0,0.0,0.0,0.0,0.0,0.0,0.0,0.0,-3.8707,0.0,0.0,0.0,0.0,0.0,0.0,0.0,0.0,0.0,0.0,0.0,0.0,-4.8306,-4.8306,-4.8746,-4.9187,-4.9572,-5.0435,-5.1444,-5.2637,-5.3023,-5.3206,-5.3206,-5.3206,-5.3206,-5.3206,-5.3206,-5.3206,0.0,0.0,0.0,-5.3206,-5.3206,-5.3206,-5.3206,-5.3206,-5.3206,-5.3206,-5.3206,-5.3206,-5.3206,-5.3206,-5.3206,-5.3206,-5.3206,-5.3206,-5.3206,-5.3206,-5.3206,-5.3206,-5.3206,-5.3206,-5.3206,-5.3206,-5.3206,-5.3206,-5.3206,-5.3206,-5.3206,-5.3206,-5.3206,-5.3206,-5.3206,-5.3206,-5.3206,-5.3206,-5.3206,-5.2931,-5.2105,-5.1316,-5.0508,-4.9682,-4.8838,-4.8306,-4.8306,-4.8306,-4.8306,-4.8306,-4.8306,-4.8306,-4.8306,-4.8306,-4.8306,-4.8306,-4.8513,-4.8709,-4.8897,-4.9504,-4.9827,-4.9846,-5.0019,-5.0019,-4.9827,-4.9827,-4.9949,-3.9358,-3.9127,-3.8707,-3.8707,-3.8707,-3.8707,-3.8707,0.0,0.0,0.0,0.0,0.0,0.0,-3.8707,0.0,0.0,0.0,0.0,0.0,0.0,0.0,0.0,0.0,0.0,0.0,0.0,0.0,0.0,0.0,-4.8306,-4.8306,-4.8306,-4.8636,-4.937,-4.9517,-5.0233,-5.161,-5.2546,-5.3096,-5.3206,-5.3206,-5.3206,-5.3206,-5.3206,-5.3206,-5.3206,0.0,0.0,-5.3206,-5.3206,-5.3206,-5.3206,-5.3206,-5.3206,-5.3206,-5.3206,-5.3206,-5.3206,-5.3206,-5.3206,-5.3206,-5.3206,-5.3206,-5.3206,-5.3206,-5.3206,-5.3206,-5.3206,-5.3206,-5.3206,-5.3206,-5.3206,-5.3206,-5.3206,-5.3206,-5.3206,-5.3206,-5.3206,-5.3206,-5.3206,-5.3206,-5.3206,-5.3206,-5.3206,-5.2968,-5.2289,-5.1499,-5.0692,-4.9884,-4.9022,-4.8453,-4.8324,-4.8306,-4.8306,-4.8306,-4.8306,-4.8306,-4.8306,-4.8306,-4.8306,-4.8306,-4.8306,-4.8477,-4.8897,-4.9234,-4.9416,-4.9416,-4.9746,-4.9746,-4.9416,-4.9416,-4.9475,-3.909,-3.8952,-3.8707,-3.8707,-3.8707,-3.8707,-3.8707,0.0,0.0,0.0,0.0,0.0,0.0,0.0,0.0,0.0,0.0,0.0,0.0,0.0,0.0,0.0,0.0,0.0,0.0,0.0,0.0,0.0,0.0,-4.8306,-4.8306,-4.8306,-4.8361,-4.8508,-4.9205,-4.9701,-4.9958,-5.1426,-5.2527,-5.3206,-5.3206,-5.3206,-5.3206,-5.3206,-5.3206,-5.3206,0.0,-5.3206,-5.3206,-5.3206,-5.3206,-5.3206,-5.3206,-5.3206,-5.3206,-5.3206,-5.3206,-5.3206,-5.3206,-5.3206,-5.3206,-5.3206,-5.3206,-5.3206,-5.3206,-5.3206,-5.3206,-5.3206,-5.3206,-5.3206,-5.3206,-5.3206,-5.3206,-5.3206,-5.3206,-5.3206,-5.3206,-5.3206,-5.3206,-5.3206,-5.3206,-5.3206,-5.3206,-5.3206,-5.317,-5.3041,-5.2325,-5.1518,-5.0729,-4.9884,-4.9114,-4.8379,-4.8306,-4.8306,-4.8306,-4.8306,-4.8306,-4.8306,-4.8306,-4.8306,-4.8306,-4.8306,-4.8477,-4.8897,-4.8963,-4.8978,-4.8978,-4.9043,-4.9043,-4.8978,-4.8978,-4.9356,-3.9036,-3.8894,-3.8707,-3.8707,-3.8707,-3.8707,-3.8707,0.0,0.0,0.0,0.0,0.0,0.0,0.0,0.0,0.0,0.0,0.0,0.0,0.0,0.0,0.0,0.0,0.0,0.0,0.0,0.0,0.0,0.0,0.0,-4.8306,-4.8306,-4.8306,-4.8306,-4.8691,-4.9114,-4.9591,-5.0325,-5.1096,-5.1922,-5.2344,-5.2546,-5.2564,-5.3004,-5.3206,-5.3206,0.0,-5.3206,-5.3206,-5.3206,-5.3206,-5.3206,-5.3206,-5.3206,-5.3206,-5.3206,-5.3206,-5.3206,-5.3206,-5.3206,-5.3206,-5.3206,-5.3206,-5.3206,-5.3206,-5.3206,-5.3206,-5.3206,-5.3206,-5.3206,-5.3206,-5.3206,-5.3206,-5.3206,-5.3206,-5.3206,-5.3206,-5.3206,-5.3206,-5.3206,-5.3206,-5.3206,-5.3206,-5.3206,-5.3206,-5.3206,-5.2509,-5.1701,-5.0894,-5.0086,-4.926,-4.8398,-4.8306,-4.8306,-4.8306,-4.8306,-4.8306,-4.8306,-4.8306,-4.8306,-4.8306,-4.8306,-4.8402,-4.8568,-4.8779,-4.8813,-4.8568,-4.8813,-4.8779,-4.8568,-4.8813,-4.9108,-3.8961,-3.8873,-3.8707,-3.8707,0.0,-3.8707,-3.8707,0.0,0.0,0.0,0.0,0.0,0.0,0.0,0.0,0.0,0.0,0.0,0.0,0.0,0.0,0.0,0.0,0.0,0.0,0.0,0.0,0.0,0.0,0.0,-4.8306,-4.8306,-4.8306,-4.8306,-4.8306,-4.8618,-4.9279,-4.9297,-4.9793,-5.082,-5.1426,-5.172,-5.1738,-5.2362,-5.2656,-5.2656,-5.2656,-5.2747,-5.2931,-5.2931,-5.3041,-5.3206,-5.3206,-5.3206,-5.3206,-5.3206,-5.3206,-5.3206,-5.3206,-5.3206,-5.3206,-5.3206,-5.3206,-5.3206,-5.3206,-5.3206,-5.3206,-5.3206,-5.3206,-5.3206,-5.3206,-5.3206,-5.3206,-5.3206,-5.3206,-5.3206,-5.3206,-5.3206,-5.3206,-5.3206,-5.3206,-5.3206,-5.3206,-5.3206,-5.3206,-5.3206,-5.2674,-5.1922,-5.093,-5.0251,-4.9462,-4.8416,-4.8306,-4.8306,-4.8306,-4.8306,-4.8306,-4.8306,-4.8306,-4.8306,-4.8306,-4.8306,-4.8306,-4.8306,-4.8604,-4.8604,-4.8306,-4.8604,-4.8604,-4.8306,-4.8709,-4.8963,-3.8719,-3.8719,-3.8707,-3.8707,-3.8707,0.0,-3.8707,-3.8707,0.0,-3.8707,0.0,0.0,0.0,0.0,0.0,0.0,0.0,0.0,0.0,0.0,0.0,0.0,0.0,0.0,0.0,0.0,0.0,0.0,0.0,0.0,-4.8306,-4.8306,-4.8306,-4.8306,-4.8306,-4.8343,-4.8398,-4.8398,-4.9205,-5.0802,-5.0857,-5.0894,-5.0894,-5.0949,-5.0967,-5.0967,-5.0967,-5.1408,-5.2087,-5.2087,-5.2527,-5.3206,-5.3206,-5.3206,-5.3206,-5.3206,-5.3206,-5.3206,-5.3206,-5.3206,-5.3206,-5.3206,-5.3206,-5.3206,-5.3206,-5.3206,-5.3206,-5.3206,-5.3206,-5.3206,-5.3206,-5.3206,-5.3206,-5.3206,-5.3206,-5.3206,-5.3206,-5.3206,-5.3206,-5.3206,-5.3206,-5.3206,-5.3206,-5.3206,-5.3206,-5.3206,-5.317,-5.2564,-5.1004,-5.0747,-5.0086,-4.8471,-4.8306,-4.8306,-4.8306,-4.8306,-4.8306,-4.8306,-4.8306,-4.8306,-4.8306,-4.8306,-4.8306,-4.8306,-4.8344,-4.8344,-4.8306,-4.8344,-4.8344,-4.8306,-4.8709,-4.9108,-3.8707,-3.8707,-3.8707,-3.8707,-3.8707,0.0,0.0,-3.8707,-3.8707,-3.8707,-3.8707,0.0,0.0,0.0,0.0,0.0,0.0,0.0,0.0,0.0,0.0,0.0,0.0,0.0,0.0,0.0,0.0,0.0,0.0,0.0,-4.8306,-4.8306,-4.8306,-4.8306,-4.8306,-4.8306,-4.8306,-4.8306,-4.8618,-4.926,-4.9793,-5.005,-5.0068,-5.0563,-5.0802,-5.0802,-5.0802,-5.0967,-5.1242,-5.1242,-5.1426,-5.172,-5.172,-5.2013,-5.2454,-5.2454,-5.2766,-5.3206,-5.3206,-5.3206,-5.3206,-5.3206,-5.3206,-5.3206,-5.3206,-5.3206,-5.3206,-5.3206,-5.3206,-5.3206,-5.3206,-5.3206,-5.3206,-5.3206,-5.3206,-5.3206,-5.3206,-5.3206,-5.3206,-5.3206,-5.3206,-5.3206,-5.3206,-5.3206,-5.3206,-5.3206,-5.3206,-5.2637,-5.1022,-5.0802,-5.016,-4.8489,-4.8306,-4.8306,-4.8306,-4.8306,-4.8306,-4.8306,-4.8306,-4.8306,-4.8306,-4.8306,-4.8306,-4.8306,-4.8306,-4.8306,-4.8306,-4.8306,-4.8421,-4.8692,-4.9094,-4.9475,-3.8707,-3.8707,-3.8707,0.0,0.0,0.0,-3.8707,-3.8707,-3.8707,-3.8707,-3.8707,0.0,0.0,0.0,0.0,0.0,0.0,0.0,0.0,0.0,0.0,0.0,0.0,0.0,0.0,0.0,0.0,0.0,0.0,0.0,0.0,-4.8306,-4.8306,-4.8306,-4.8306,-4.8306,-4.8306,-4.8306,-4.8306,-4.8324,-4.8893,-4.9187,-4.9205,-4.9756,-5.0013,-5.0013,-5.0013,-5.0178,-5.0417,-5.0417,-5.0563,-5.0802,-5.0802,-5.1132,-5.161,-5.161,-5.1977,-5.2454,-5.2454,-5.2454,-5.2491,-5.2747,-5.2821,-5.2876,-5.3133,-5.3206,-5.3206,-5.3206,-5.3206,-5.3206,-5.3206,-5.3206,-5.3206,-5.3206,-5.3206,-5.3206,-5.3206,-5.3206,-5.3206,-5.3206,-5.3206,-5.3206,-5.3206,-5.3206,-5.3206,-5.3206,-5.3206,-5.2637,-5.1022,-5.0802,-5.016,-4.8489,-4.8306,-4.8306,-4.8306,-4.8306,-4.8306,-4.8306,-4.8306,-4.8306,-4.8306,-4.8306,-4.8306,-4.8306,-4.8306,-4.8306,-4.8306,-4.8306,-4.8513,-4.8897,-4.9326,-4.9664,-3.8707,-3.8707,0.0,0.0,0.0,0.0,-3.8707,-3.8707,-3.8707,-3.8707,0.0,-3.8707,-3.8707,0.0,0.0,0.0,0.0,0.0,0.0,0.0,0.0,0.0,0.0,0.0,0.0,0.0,0.0,0.0,0.0,0.0,0.0,-4.8306,-4.8306,-4.8306,-4.8306,-4.8306,-4.8306,-4.8306,-4.8306,-4.8306,-4.8306,-4.8306,-4.8306,-4.8306,-4.8306,-4.8306,-4.8306,-4.8783,-4.9572,-4.9572,-5.005,-5.0784,-5.0784,-5.0784,-5.0802,-5.0802,-5.0802,-5.0802,-5.0802,-5.0802,-5.093,-5.172,-5.1977,-5.2142,-5.2949,-5.3188,-5.3206,-5.3206,-5.3206,-5.3206,-5.3206,-5.3206,-5.3206,-5.3206,-5.3206,-5.3206,-5.3206,-5.3206,-5.3206,-5.3206,-5.3206,-5.3206,-5.3206,-5.3206,-5.3206,-5.3206,-5.3206,-5.2619,-5.1004,-5.0784,-5.0141,-4.8489,-4.8306,-4.8306,-4.8306,-4.8306,-4.8306,-4.8306,-4.8306,-4.8306,-4.8306,-4.8306,-4.8306,-4.8306,-4.8306,-4.8306,-4.8306,-4.8306,-4.8513,-4.8897,-4.9295,-4.9504,-3.8707,-3.8707,0.0,-3.8707,0.0,0.0,0.0,-3.8707,0.0,0.0,0.0,-3.8707,-3.8707,0.0,0.0,0.0,0.0,0.0,0.0,0.0,0.0,0.0,0.0,0.0,0.0,0.0,0.0,0.0,0.0,0.0,0.0,-4.7994,-4.8306,-4.8306,-4.8306,-4.8306,-4.8306,-4.8306,-4.8306,-4.8306,-4.8306,-4.8306,-4.8306,-4.8306,-4.8306,-4.8306,-4.8306,-4.8453,-4.8691,-4.8691,-4.8838,-4.904,-4.904,-4.9426,-4.9958,-4.9958,-5.0306,-5.0802,-5.0802,-5.0802,-5.0839,-5.1077,-5.1151,-5.1206,-5.1444,-5.1903,-5.2362,-5.2362,-5.2766,-5.3206,-5.3206,-5.3206,-5.3206,-5.3206,-5.3206,-5.3206,-5.3206,-5.3206,-5.3206,-5.3206,-5.3206,-5.3206,-5.3206,-5.3206,-5.3206,-5.3206,-5.2729,-5.1775,-5.016,-4.9426,-4.8857,-4.8361,-4.8306,-4.8306,-4.8306,-4.8306,-4.8306,-4.8306,-4.8306,-4.8306,-4.8306,-4.8306,-4.8306,-4.8306,-4.8306,-4.8306,-4.8306,-4.8306,-4.8513,-4.8897,-4.9011,-4.9386,-3.8707,0.0,0.0,-3.8707,-3.8707,-3.8707,-3.8707,0.0,0.0,0.0,0.0,-3.8707,-3.8707,-3.8707,0.0,0.0,0.0,0.0,0.0,0.0,0.0,0.0,0.0,0.0,0.0,0.0,0.0,0.0,0.0,0.0,0.0,-4.7076,-4.7498,-4.7829,-4.7829,-4.7994,-4.8306,-4.8306,-4.8306,-4.8306,-4.8306,-4.8306,-4.8306,-4.8306,-4.8306,-4.8306,-4.8306,-4.8306,-4.8306,-4.8306,-4.8306,-4.8306,-4.8306,-4.8618,-4.9077,-4.9077,-4.9389,-4.9811,-4.9811,-4.9811,-4.9866,-5.0215,-5.0306,-5.038,-5.071,-5.1132,-5.1518,-5.1518,-5.1867,-5.2252,-5.2252,-5.2491,-5.2803,-5.3133,-5.3206,-5.3206,-5.3206,-5.3206,-5.3206,-5.3206,-5.3206,-5.3206,-5.3206,-5.3206,-5.3096,-5.2766,-5.1775,-5.0692,-4.9701,-4.8838,-4.8306,-4.8306,-4.8306,-4.8306,-4.8306,-4.8306,-4.8306,-4.8306,-4.8306,-4.8306,-4.8306,-4.8306,-4.8306,-4.8306,-4.8306,-4.8306,-4.8306,-4.8306,-4.8513,-4.8897,-4.8897,-4.9265,-3.8707,0.0,0.0,-3.8707,-3.8707,0.0,-3.8707,-3.8707,-3.8707,-3.8707,0.0,-3.8707,-3.8707,0.0,0.0,0.0,0.0,0.0,0.0,0.0,0.0,0.0,0.0,0.0,0.0,0.0,0.0,0.0,0.0,0.0,0.0,-4.5865,-4.625,-4.6985,-4.7003,-4.7352,-4.8086,-4.8086,-4.8086,-4.8086,-4.8086,-4.8122,-4.8196,-4.8269,-4.8306,-4.8306,-4.8306,-4.8306,-4.8306,-4.8306,-4.8306,-4.8306,-4.8306,-4.8306,-4.8306,-4.8306,-4.8306,-4.8306,-4.8306,-4.8306,-4.8434,-4.9205,-4.9462,-4.9609,-5.0343,-5.0637,-5.0692,-5.0692,-5.0747,-5.0802,-5.0802,-5.1334,-5.2068,-5.2821,-5.3096,-5.3206,-5.3206,-5.3206,-5.3188,-5.3115,-5.3096,-5.3078,-5.3004,-5.2986,-5.2711,-5.1885,-5.0527,-4.9554,-4.9481,-4.8783,-4.8306,-4.8306,-4.8306,-4.8306,-4.8306,-4.8306,-4.8306,-4.8306,-4.8306,-4.8306,-4.8306,-4.8306,-4.8306,-4.8306,-4.8306,-4.8306,-4.8306,-4.8306,-4.8477,-4.8847,-4.8847,-4.9075,-3.8707,-3.8707,0.0,0.0,-3.8707,-3.8707,-3.8707,-3.8707,-3.8707,-3.8707,-3.8707,-3.8707,0.0,0.0,0.0,0.0,0.0,0.0,0.0,0.0,0.0,0.0,0.0,0.0,0.0,0.0,0.0,0.0,0.0,0.0,-4.4947,-4.5571,-4.5975,-4.6159,-4.6159,-4.625,-4.6416,-4.6416,-4.6416,0.0,-4.6416,-4.6746,-4.7388,-4.8012,-4.8306,-4.8306,-4.8306,-4.8306,-4.8306,-4.8306,-4.8306,-4.8306,-4.8306,-4.8306,-4.8306,-4.8306,-4.8306,-4.8306,-4.8306,-4.8306,-4.8343,-4.8526,-4.8581,-4.8618,-4.8802,-4.9315,-4.9848,-4.9848,-5.0306,-5.0802,-5.0802,-5.093,-5.1096,-5.1279,-5.2289,-5.3206,-5.3206,-5.3206,-5.3023,-5.238,-5.2252,-5.205,-5.1426,-5.1316,-5.1041,-5.0233,-4.9811,-4.9334,-4.8673,-4.8416,-4.8306,-4.8306,-4.8306,-4.8306,-4.8306,-4.8306,-4.8306,-4.8306,-4.8306,-4.8306,-4.8306,-4.8306,-4.8306,-4.8306,-4.8306,-4.8306,-4.8306,-4.8306,-4.8326,-4.8421,-4.8421,-4.8813,0.0,0.0,0.0,-3.8707,0.0,0.0,-3.8707,-3.8707,-3.8707,-3.8707,-3.8707,0.0,0.0,0.0,0.0,0.0,0.0,0.0,0.0,0.0,0.0,0.0,0.0,0.0,0.0,0.0,0.0,0.0,0.0,-4.4121,-4.4121,-4.4507,-4.4929,-4.5314,-4.5333,-4.5516,-4.5902,-4.5902,-4.5902,-4.5902,-4.5902,-4.6122,-4.6581,-4.7774,-4.8306,-4.8306,-4.8306,-4.8306,-4.8306,-4.8306,-4.8306,-4.8306,-4.8306,-4.8306,-4.8306,-4.8306,-4.8306,-4.8306,-4.8306,-4.8306,-4.8306,-4.8306,-4.8306,-4.8306,-4.8306,-4.8618,-4.8967,-4.8967,-4.9279,-4.9609,-4.9609,-4.9903,-5.0215,-5.0215,-5.1151,-5.205,-5.205,-5.205,-5.194,-5.1499,-5.1426,-5.1279,-5.0875,-5.0472,-5.0068,-4.9646,-4.9224,-4.8802,-4.8361,-4.8306,-4.8306,-4.8306,-4.8306,-4.8306,-4.8306,-4.8306,-4.8306,-4.8306,-4.8306,-4.8306,-4.8306,-4.8306,-4.8306,-4.8306,-4.8306,-4.8306,-4.8306,-4.8306,-4.8306,-4.8306,-4.8477,-4.8915,0.0,0.0,-3.8707,-3.8707,-3.8707,0.0,-3.8707,-3.8707,-3.8707,-3.8707,0.0,0.0,0.0,0.0,0.0,0.0,0.0,0.0,0.0,0.0,0.0,0.0,0.0,0.0,0.0,0.0,0.0,0.0,0.0,-4.3497,-4.3497,-4.3497,-4.3809,-4.447,-4.4488,-4.4819,-4.548,-4.548,-4.548,-4.548,-4.5626,-4.5681,-4.5736,-4.7223,-4.7884,-4.7884,-4.7884,-4.7976,-4.8104,-4.8104,-4.8177,-4.8306,-4.8306,-4.8306,-4.8306,-4.8306,-4.8306,-4.8306,-4.8306,-4.8306,-4.8306,-4.8306,-4.8306,-4.8306,-4.8306,-4.8306,-4.8306,-4.8306,-4.8306,-4.8306,-4.8306,-4.8838,-4.937,-4.937,-4.9866,-5.0453,-5.0747,-5.0802,-5.0765,-5.0618,-5.0472,-5.038,-5.038,-4.9811,-4.937,-4.937,-4.8765,-4.8306,-4.8306,-4.8306,-4.8306,-4.8306,-4.8306,-4.8306,-4.8306,-4.8306,-4.8306,-4.8306,-4.8306,-4.8306,-4.8306,-4.8306,-4.8306,-4.8306,-4.8306,-4.8306,-4.8306,-4.8306,-4.8306,-4.8306,-4.8621,-4.9062,0.0,0.0,-3.8707,0.0,-3.8707,-3.8707,0.0,0.0,0.0,0.0,0.0,0.0,0.0,0.0,0.0,0.0,0.0,0.0,0.0,0.0,0.0,0.0,0.0,0.0,0.0,0.0,0.0,0.0,-4.3497,-4.3497,-4.3497,-4.3497,-4.3534,-4.3644,-4.3644,-4.3699,-4.3809,-4.3809,-4.3809,-4.3828,-4.4525,-4.4874,-4.4892,-4.581,-4.6214,-4.6214,-4.6214,-4.6617,-4.7278,-4.7278,-4.7682,-4.8306,-4.8306,-4.8306,-4.8306,-4.8306,-4.8306,-4.8306,-4.8306,-4.8306,-4.8306,-4.8306,-4.8306,-4.8306,-4.8306,-4.8306,-4.8306,-4.8306,-4.8306,-4.8306,-4.8306,-4.8398,-4.8471,-4.8471,-4.8563,-4.904,-5.049,-5.0802,-5.0582,-4.9884,-4.915,-4.8636,-4.8636,-4.8545,-4.8471,-4.8471,-4.8379,-4.8306,-4.8306,-4.8306,-4.8306,-4.8306,-4.8306,-4.8306,-4.8306,-4.8306,-4.8306,-4.8306,-4.8306,-4.8306,-4.8306,-4.8306,-4.8306,-4.8306,-4.8306,-4.8306,-4.8306,-4.8306,-4.8306,-4.8306,-4.8364,-4.8779,-3.8707,-3.8707,-3.8707,0.0,-3.8707,-3.8707,0.0,0.0,0.0,0.0,0.0,0.0,0.0,0.0,0.0,0.0,0.0,0.0,0.0,0.0,0.0,0.0,0.0,0.0,0.0,0.0,0.0,0.0,-4.324,-4.3497,-4.3497,-4.3497,-4.3497,-4.3497,-4.3497,-4.3497,-4.3497,-4.3497,-4.3497,-4.3497,-4.3864,-4.403,-4.403,-4.4378,-4.5039,-4.5902,-4.5902,-4.6104,-4.6434,-4.6434,-4.6636,-4.7003,-4.7462,-4.7645,-4.77,-4.8141,-4.8306,-4.8306,-4.8306,-4.8306,-4.8306,-4.8306,-4.8306,-4.8306,-4.8306,-4.8306,-4.8306,-4.8306,-4.8306,-4.8306,-4.8306,-4.8306,-4.8306,-4.8306,-4.8306,-4.8508,-4.9242,-4.9407,-4.9297,-4.893,-4.8563,-4.8306,-4.8306,-4.8306,-4.8306,-4.8306,-4.8306,-4.8306,-4.8306,-4.8306,-4.8306,-4.8306,-4.8306,-4.8306,-4.8306,-4.8306,-4.8306,-4.8306,-4.8306,-4.8306,-4.8306,-4.8306,-4.8306,-4.8306,-4.8306,-4.8306,-4.8306,-4.8306,-4.8306,-4.8306,-4.855,-4.893,0.0,0.0,-3.8707,-3.8707,-3.8707,0.0,0.0,0.0,0.0,0.0,0.0,0.0,0.0,0.0,0.0,0.0,0.0,0.0,0.0,0.0,0.0,0.0,0.0,0.0,0.0,0.0,0.0,0.0,-4.2543,-4.2892,-4.2892,-4.2892,-4.2983,-4.3185,-4.3185,-4.3277,-4.3497,-4.3497,-4.3497,-4.3497,-4.3497,-4.3497,-4.3497,-4.3497,-4.414,-4.5278,-4.5278,-4.5406,-4.5608,-4.5608,-4.5718,-4.5957,-4.6562,-4.6819,-4.6911,-4.77,-4.8012,-4.8031,-4.8233,-4.8306,-4.8306,-4.8306,-4.8306,-4.8306,-4.8306,-4.8306,-4.8306,-4.8306,-4.8306,-4.8306,-4.8306,-4.8306,-4.8306,-4.8306,-4.8306,-4.8306,-4.8306,-4.8306,-4.8306,-4.8306,-4.8306,-4.8306,-4.8306,-4.8306,-4.8306,-4.8306,-4.8306,-4.8306,-4.8306,-4.8306,-4.8306,-4.8306,-4.8306,-4.8306,-4.8306,-4.8306,-4.8306,-4.8306,-4.8306,-4.8306,-4.8306,-4.8306,-4.8306,-4.8306,-4.8306,-4.8306,-4.8306,-4.8306,-4.8306,-4.8306,-4.8604,-4.8963,0.0,-3.8707,0.0,-3.8707,0.0,0.0,0.0,0.0,0.0,0.0,0.0,0.0,0.0,0.0,0.0,0.0,0.0,0.0,0.0,0.0,0.0,0.0,0.0,0.0,0.0,0.0,0.0,0.0,-4.1203,-4.124,-4.124,-4.124,-4.1589,-4.2341,-4.2359,-4.2727,-4.3479,-4.3497,-4.3497,-4.3497,-4.3497,-4.3497,-4.3497,-4.3497,-4.3534,-4.3608,-4.3608,-4.4066,-4.4764,-4.4764,-4.5223,-4.5902,-4.5957,-4.5957,-4.6067,-4.6874,-4.7186,-4.7297,-4.8049,-4.8306,-4.8306,-4.8306,-4.8306,-4.8306,-4.8306,-4.8306,-4.8306,-4.8306,-4.8306,-4.8306,-4.8306,-4.8306,-4.8306,-4.8306,-4.8306,-4.8306,-4.8306,-4.8306,-4.8306,-4.8306,-4.8306,-4.8306,-4.8306,-4.8306,-4.8306,-4.8306,-4.8306,-4.8306,-4.8306,-4.8306,-4.8306,-4.8306,-4.8306,-4.8306,-4.8306,-4.8306,-4.8306,-4.8306,-4.8306,-4.8306,-4.8306,-4.8306,-4.8306,-4.8306,-4.8306,-4.8306,-4.8306,-4.8306,-4.8306,-4.8306,-4.8344,-4.855,0.0,0.0,0.0,-3.8707,0.0,0.0,0.0,0.0,0.0,0.0,0.0,0.0,0.0,0.0,0.0,0.0,0.0,0.0,0.0,0.0,0.0,0.0,0.0,0.0,0.0,0.0,0.0,0.0,0.0,-4.1111,-4.1111,-4.1111,-4.124,-4.1534,-4.1534,-4.168,-4.1974,-4.1974,-4.2213,-4.2727,-4.2727,-4.3002,-4.3497,-4.3497,-4.3497,-4.3497,-4.3497,-4.3644,-4.392,-4.392,-4.4103,-4.4397,-4.4929,-4.5131,-4.5241,-4.603,-4.6342,-4.6452,-4.726,-4.7535,-4.7627,-4.8141,-4.8306,-4.8306,-4.8306,-4.8306,-4.8306,-4.8306,-4.8306,-4.8306,-4.8306,-4.8306,-4.8306,-4.8306,-4.8306,-4.8306,-4.8306,-4.8306,-4.8306,-4.8306,-4.8306,-4.8306,-4.8306,-4.8306,-4.8306,-4.8306,-4.8306,-4.8306,-4.8306,-4.8306,-4.8306,-4.8306,-4.8306,-4.8306,-4.8306,-4.8306,-4.8306,-4.8306,-4.8306,-4.8306,-4.8306,-4.8306,-4.8306,-4.8306,-4.8306,-4.8306,-4.8306,-4.8306,-4.8306,-4.8306,-4.8306,-4.8513,-3.8707,0.0,0.0,0.0,0.0,-3.8707,0.0,0.0,0.0,0.0,0.0,0.0,0.0,0.0,0.0,0.0,0.0,0.0,0.0,0.0,0.0,0.0,0.0,0.0,0.0,0.0,0.0,0.0,0.0,0.0,-4.0304,-4.0304,-4.0432,-4.0689,-4.0965,-4.1111,-4.1111,-4.1111,-4.1387,-4.1901,-4.1901,-4.2176,-4.269,-4.2965,-4.3094,-4.3112,-4.3369,-4.3497,-4.3497,-4.3497,-4.3497,-4.3534,-4.4085,-4.4305,-4.4397,-4.5204,-4.5498,-4.5608,-4.6434,-4.6893,-4.7205,-4.7737,-4.8086,-4.8306,-4.8306,-4.8306,-4.8306,-4.8306,-4.8306,-4.8306,-4.8306,-4.8306,-4.8306,-4.8306,-4.8306,-4.8306,-4.8306,-4.8306,-4.8306,-4.8306,-4.8306,-4.8306,-4.8306,-4.8306,-4.8306,-4.8306,-4.8306,-4.8306,-4.8306,-4.8306,-4.8306,-4.8306,-4.8306,-4.8306,-4.8306,-4.8306,-4.8306,-4.8306,-4.8306,-4.8306,-4.8306,-4.8306,-4.8306,-4.8306,-4.8306,-4.8306,-4.8306,-4.8306,-4.8306,-4.8306,-4.8306,-4.8513,0.0,0.0,0.0,0.0,0.0,0.0,-3.8707,0.0,0.0,0.0,0.0,0.0,0.0,0.0,0.0,0.0,0.0,0.0,0.0,0.0,0.0,0.0,0.0,0.0,0.0,0.0,0.0,0.0,-3.8707,-3.8707,-3.8707,-3.8707,-3.9056,-3.9827,-4.0616,-4.1038,-4.1038,-4.1038,-4.1056,-4.1075,-4.1075,-4.1093,-4.1148,-4.1919,-4.2268,-4.2304,-4.3112,-4.3442,-4.3461,-4.3479,-4.3497,-4.3497,-4.3497,-4.3497,-4.3589,-4.4378,-4.4672,-4.4782,-4.559,-4.6379,-4.704,-4.7076,-4.7627,-4.8269,-4.8269,-4.8288,-4.8306,-4.8306,-4.8306,-4.8306,-4.8306,-4.8306,-4.8306,-4.8306,-4.8306,-4.8306,-4.8306,-4.8306,-4.8306,-4.8306,-4.8306,-4.8306,-4.8306,-4.8306,-4.8306,-4.8306,-4.8306,-4.8306,-4.8306,-4.8306,-4.8306,-4.8306,-4.8306,-4.8306,-4.8306,-4.8306,-4.8306,-4.8306,-4.8306,-4.8306,-4.8306,-4.8306,-4.8306,-4.8306,-4.8306,-4.8306,-4.8306,-4.8306,-4.8306,-4.8306,-4.8306,-4.8513,-3.8707,0.0,0.0,0.0,0.0,0.0,0.0,0.0,0.0,0.0,0.0,0.0,0.0,0.0,0.0,0.0,0.0,0.0,0.0,0.0,0.0,0.0,0.0,0.0,0.0,0.0,0.0,0.0,-3.8707,-3.8707,-3.8707,-3.8707,-3.8799,-3.9019,-3.9258,-3.9368,-3.9368,-3.9368,-3.9662,-4.023,-4.023,-4.0543,-4.113,-4.135,-4.1442,-4.1497,-4.2286,-4.2635,-4.2671,-4.3259,-4.3497,-4.3497,-4.3497,-4.3497,-4.3516,-4.3736,-4.3828,-4.3938,-4.4745,-4.5186,-4.548,-4.6049,-4.6783,-4.7443,-4.7443,-4.7847,-4.8306,-4.8306,-4.8306,-4.8306,-4.8306,-4.8306,-4.8306,-4.8306,-4.8306,-4.8306,-4.8306,-4.8306,-4.8306,-4.8306,-4.8306,-4.8306,-4.8306,-4.8306,-4.8306,-4.8306,-4.8306,-4.8306,-4.8306,-4.8306,-4.8306,-4.8306,-4.8306,-4.8306,-4.8306,-4.8306,-4.8306,-4.8306,-4.8306,-4.8306,-4.8306,-4.8306,-4.8306,-4.8306,-4.8306,-4.8306,-4.8306,-4.8306,-4.8306,-4.8306,-4.8306,-4.8513,0.0,0.0,0.0,0.0,0.0,0.0,-3.8707,-3.8707,-3.8707,0.0,0.0,0.0,0.0,0.0,0.0,0.0,0.0,0.0,0.0,0.0,0.0,0.0,0.0,0.0,0.0,-3.8707,-3.8707,-3.8707,-3.8707,-3.8707,-3.8707,-3.8707,-3.8707,-3.8707,-3.8707,-3.8707,-3.8707,-3.8707,-3.8946,-3.9405,-3.9405,-3.9643,-4.012,-4.0451,-4.0598,-4.0653,-4.146,-4.1992,-4.2341,-4.28,-4.3185,-4.3497,-4.3497,-4.3497,-4.3497,-4.3497,-4.3497,-4.3552,-4.403,-4.4415,-4.4782,-4.5259,-4.5938,-4.6673,-4.7021,-4.7443,-4.7884,-4.8214,-4.8306,-4.8306,-4.8306,-4.8306,-4.8306,-4.8306,-4.8306,-4.8306,-4.8306,-4.8306,-4.8306,-4.8306,-4.8306,-4.8306,-4.8306,-4.8306,-4.8306,-4.8306,-4.8306,-4.8306,-4.8306,-4.8306,-4.8306,-4.8306,-4.8306,-4.8306,-4.8306,-4.8306,-4.8306,-4.8306,-4.8306,-4.8306,-4.8306,-4.8306,-4.8306,-4.8306,-4.8306,-4.8306,-4.8306,-4.8306,-4.8306,-4.8306,-4.8306,-4.8421,0.0,0.0,0.0,0.0,0.0,0.0,-3.8707,-3.8707,-3.8707,-3.8707,-3.8707,0.0,0.0,0.0,0.0,0.0,0.0,0.0,0.0,0.0,0.0,0.0,0.0,0.0,-3.8707,-3.8707,-3.8707,-3.8707,-3.8707,-3.8707,-3.8707,-3.8707,-3.8707,-3.8707,-3.8707,-3.8707,-3.8707,-3.8707,-3.8707,-3.8707,-3.8707,-3.8707,-3.8726,-3.9441,-3.9772,-3.9808,-4.0616,-4.1368,-4.2047,-4.2139,-4.269,-4.3497,-4.3497,-4.3497,-4.3497,-4.3497,-4.3497,-4.3497,-4.3497,-4.3975,-4.458,-4.458,-4.5112,-4.5902,-4.6636,-4.6911,-4.715,-4.7957,-4.8233,-4.8306,-4.8306,-4.8306,-4.8306,-4.8306,-4.8306,-4.8306,-4.8306,-4.8306,-4.8306,-4.8306,-4.8306,-4.8306,-4.8306,-4.8306,-4.8306,-4.8306,-4.8306,-4.8306,-4.8306,-4.8306,-4.8306,-4.8306,-4.8306,-4.8306,-4.8306,-4.8306,-4.8306,-4.8306,-4.8306,-4.8306,-4.8306,-4.8306,-4.8306,-4.8306,-4.8306,-4.8306,-4.8306,-4.8306,-4.8306,-4.8306,-4.8306,-4.8306,0.0,0.0,0.0,0.0,0.0,0.0,-3.8707,-3.8707,-3.8707,0.0,-3.8707,0.0,0.0,0.0,0.0,0.0,0.0,0.0,0.0,0.0,0.0,0.0,0.0,0.0,-3.8707,-3.8707,-3.8707,-3.8707,-3.8707,-3.8707,-3.8707,-3.8707,-3.8707,-3.8707,-3.8707,-3.8707,-3.8707,-3.8707,-3.8707,-3.8707,-3.8707,-3.8707,-3.8707,-3.8854,-3.8927,-3.8982,-3.9772,-4.0212,-4.0414,-4.1075,-4.2194,-4.3497,-4.3497,-4.3497,-4.3497,-4.3497,-4.3497,-4.3497,-4.3497,-4.3589,-4.3718,-4.3718,-4.4287,-4.4966,-4.5131,-4.5626,-4.6305,-4.7131,-4.781,-4.8306,-4.8306,-4.8306,-4.8306,-4.8306,-4.8306,-4.8306,-4.8306,-4.8306,-4.8306,-4.8306,-4.8306,-4.8306,-4.8306,-4.8306,-4.8306,-4.8306,-4.8306,-4.8306,-4.8306,-4.8306,-4.8306,-4.8306,-4.8306,-4.8306,-4.8306,-4.8306,-4.8306,-4.8306,-4.8306,-4.8306,-4.8306,-4.8306,-4.8306,-4.8306,-4.8306,-4.8306,-4.8306,-4.8306,-4.8306,-4.8306,-4.8306,-4.8306,0.0,0.0,0.0,-3.8707,0.0,0.0,0.0,-3.8707,-3.8707,-3.8707,-3.8707,-3.8707,-3.8707,0.0,0.0,0.0,0.0,0.0,0.0,0.0,0.0,0.0,0.0,0.0,-3.8707,-3.8707,-3.8707,-3.8707,-3.8707,-3.8707,-3.8707,-3.8707,-3.8707,-3.8707,-3.8707,-3.8707,-3.8707,-3.8707,-3.8707,-3.8707,-3.8707,-3.8707,-3.8707,-3.8707,-3.8546,-3.8336,-3.8999,-3.9369,-3.9553,-4.0207,-4.1222,-4.2341,-4.2745,-4.3149,-4.3497,-4.3497,-4.3497,-4.3497,-4.3497,-4.3497,-4.3497,-4.3497,-4.3754,-4.4176,-4.458,-4.5259,-4.5975,-4.6397,-4.7095,-4.7719,-4.7719,-4.8012,-4.8306,-4.8306,-4.8306,-4.8306,-4.8306,-4.8306,-4.8306,-4.8306,-4.8306,-4.8306,-4.8306,-4.8306,-4.8306,-4.8306,-4.8306,-4.8306,-4.8306,-4.8306,-4.8306,-4.8306,-4.8306,-4.8306,-4.8306,-4.8306,-4.8306,-4.8306,-4.8306,-4.8306,-4.8306,-4.8306,-4.8306,-4.8306,-4.8306,-4.8306,-4.8306,-4.8306,-4.8306,-4.8306,-4.8306,-4.8306,0.0,0.0,0.0,0.0,0.0,-3.8707,0.0,0.0,0.0,0.0,0.0,0.0,0.0,0.0,0.0,0.0,0.0,0.0,0.0,0.0,0.0,0.0,0.0,0.0,-3.8707,-3.8707,-3.8707,-3.8707,-3.8707,-3.8707,-3.8707,-3.8707,-3.8707,-3.8707,-3.8707,-3.8707,-3.8707,-3.8707,-3.8707,-3.8707,-3.8707,-3.8658,-3.8546,-3.8658,-3.835,-3.779,-3.8318,-3.8631,-3.8779,-3.9179,-3.9908,-4.0815,-4.1886,-4.269,-4.3277,-4.3424,-4.3497,-4.3497,-4.3497,-4.3497,-4.3497,-4.3497,-4.3497,-4.3608,-4.4268,-4.5039,-4.5663,-4.5663,-4.625,-4.6874,-4.6874,-4.748,-4.8086,-4.8086,-4.8196,-4.8306,-4.8306,-4.8306,-4.8306,-4.8306,-4.8306,-4.8306,-4.8306,-4.8306,-4.8306,-4.8306,-4.8306,-4.8306,-4.8306,-4.8306,-4.8306,-4.8306,-4.8306,-4.8306,-4.8306,-4.8306,-4.8306,-4.8306,-4.8306,-4.8306,-4.8306,-4.8306,-4.8306,-4.8306,-4.8306,-4.8306,-4.8306,-4.8306,-4.8306,-4.8306,-4.8306,-4.8306,0.0,0.0,0.0,0.0,-3.8707,0.0,0.0,0.0,-3.8707,-3.8707,0.0,0.0,0.0,0.0,0.0,0.0,0.0,0.0,0.0,0.0,0.0,0.0,0.0,0.0,0.0,-3.8707,-3.8707,-3.8707,-3.8707,-3.8707,-3.8707,-3.8707,-3.8707,-3.8707,-3.8707,-3.8707,-3.8707,-3.8707,-3.8707,-3.8707,-3.8707,-3.8465,-3.8032,-3.8496,-3.8168,-3.7285,-3.779,-3.7774,-3.7427,-3.7502,-3.8223,-3.9514,-4.1528,-4.2359,-4.2525,-4.3222,-4.3497,-4.3497,-4.3497,-4.3497,-4.3497,-4.3497,-4.3497,-4.3516,-4.3608,-4.4195,-4.4856,-4.4856,-4.5424,-4.6049,-4.6049,-4.6636,-4.726,-4.726,-4.7792,-4.8306,-4.8306,-4.8306,-4.8306,-4.8306,-4.8306,-4.8306,-4.8306,-4.8306,-4.8306,-4.8306,-4.8306,-4.8306,-4.8306,-4.8306,-4.8306,-4.8306,-4.8306,-4.8306,-4.8306,-4.8306,-4.8306,-4.8306,-4.8306,-4.8306,-4.8306,-4.8306,-4.8306,-4.8306,-4.8306,-4.8306,-4.8306,-4.8306,-4.8306,-4.8306,-4.8306,-4.8306,0.0,0.0,0.0,0.0,0.0,0.0,-3.8627,0.0,-3.8707,0.0,0.0,0.0,0.0,0.0,0.0,0.0,-3.8707,0.0,0.0,0.0,0.0,0.0,0.0,0.0,0.0,0.0,0.0,0.0,-3.8707,-3.8707,-3.8707,-3.8707,-3.8707,-3.8707,-3.8707,-3.8707,-3.8707,-3.8707,-3.8707,-3.8707,-3.8707,-3.8578,-3.835,-3.8267,-3.7861,-3.721,-3.7396,-3.721,-3.6764,-3.7058,-3.7518,-3.8132,-3.9517,-4.0961,-4.2396,-4.3185,-4.3497,-4.3497,-4.3497,-4.3497,-4.3497,-4.3497,-4.3497,-4.3497,-4.3497,-4.3736,-4.3993,-4.3993,-4.458,-4.5204,-4.5204,-4.581,-4.6416,-4.6416,-4.7021,-4.7609,-4.7609,-4.7976,-4.8306,-4.8306,-4.8306,-4.8306,-4.8306,-4.8306,-4.8306,-4.8306,-4.8306,-4.8306,-4.8306,-4.8306,-4.8306,-4.8306,-4.8306,-4.8306,-4.8306,-4.8306,-4.8306,-4.8306,-4.8306,-4.8306,-4.8306,-4.8306,-4.8306,-4.8306,-4.8306,-4.8306,-4.8306,-4.8306,-4.8306,-4.8306,-4.8306,-4.8306,-3.805,0.0,0.0,0.0,0.0,0.0,0.0,0.0,0.0,0.0,0.0,0.0,0.0,0.0,0.0,0.0,0.0,-3.8707,0.0,0.0,0.0,0.0,0.0,0.0,0.0,0.0,0.0,-3.8707,-3.8707,-3.8707,-3.8707,-3.8707,-3.8707,-3.8707,-3.8707,-3.8627,-3.8465,-3.8465,-3.8433,-3.8285,-3.8433,-3.835,-3.8068,-3.7946,-3.7488,-3.6746,-3.6921,-3.6684,-3.6224,-3.6603,-3.6825,-3.7069,-3.7884,-3.9437,-4.1358,-4.2538,-4.3173,-4.3497,-4.3497,-4.3497,-4.3497,-4.3497,-4.3497,-4.3497,-4.3497,-4.3497,-4.3497,-4.3497,-4.392,-4.4378,-4.4378,-4.4966,-4.5571,-4.5571,-4.6195,-4.6783,-4.6783,-4.7407,-4.7976,-4.7976,-4.8159,-4.8306,-4.8306,-4.8306,-4.8306,-4.8306,-4.8306,-4.8306,-4.8306,-4.8306,-4.8306,-4.8306,-4.8306,-4.8306,-4.8306,-4.8306,-4.8306,-4.8306,-4.8306,-4.8306,-4.8306,-4.8306,-4.8306,-4.8306,-4.8306,-4.8306,-4.8306,-4.8306,-4.8306,-4.8306,-4.8306,-4.8306,0.0,0.0,0.0,-3.779,0.0,0.0,0.0,0.0,-3.8707,0.0,0.0,0.0,0.0,0.0,0.0,0.0,0.0,0.0,0.0,0.0,0.0,0.0,0.0,0.0,0.0,0.0,-3.8707,-3.8707,-3.8707,-3.8707,-3.8707,-3.8707,-3.8707,-3.8707,-3.8707,-3.8465,-3.7946,-3.7946,-3.7685,-3.7248,-3.772,-3.7433,-3.6498,-3.7452,-3.7061,-3.5694,-3.6224,-3.6139,-3.5622,-3.565,-3.5985,-3.6502,-3.7314,-3.8018,-3.8762,-4.0815,-4.2377,-4.3497,-4.3497,-4.3497,-4.3497,-4.3497,-4.3497,-4.3497,-4.3497,-4.3497,-4.3497,-4.3497,-4.3516,-4.3534,-4.3534,-4.414,-4.4745,-4.4745,-4.5351,-4.5938,-4.5938,-4.6581,-4.715,-4.715,-4.7774,-4.8306,-4.8306,-4.8306,-4.8306,-4.8306,-4.8306,-4.8306,-4.8306,-4.8306,-4.8306,-4.8306,-4.8306,-4.8306,-4.8306,-4.8306,-4.8306,-4.8306,-4.8306,-4.8306,-4.8306,-4.8306,-4.8306,-4.8306,-4.8306,-4.8306,-4.8306,-4.8306,-4.8306,-4.8306,-4.8306,-4.8306,0.0,0.0,-3.6803,-3.7323,0.0,0.0,0.0,0.0,0.0,0.0,0.0,0.0,0.0,0.0,0.0,0.0,0.0,0.0,0.0,0.0,0.0,0.0,0.0,0.0,0.0,0.0,0.0,-3.8707,-3.8707,-3.8707,-3.8707,-3.8707,-3.8707,-3.8707,-3.8707,-3.8433,-3.7911,-3.7893,-3.7649,-3.719,-3.736,-3.7248,-3.6921,-3.6904,-3.6626,-3.6139,-3.5941,-3.5783,-3.5622,-3.5622,-3.5694,-3.5888,-3.6171,-3.6939,-3.8117,-4.0219,-4.1246,-4.1764,-4.2665,-4.3214,-4.3497,-4.3497,-4.3497,-4.3497,-4.3497,-4.3497,-4.3497,-4.3497,-4.3497,-4.3497,-4.3497,-4.3699,-4.3901,-4.3901,-4.4525,-4.5112,-4.5112,-4.5736,-4.6305,-4.6305,-4.6526,-4.6874,-4.7425,-4.7517,-4.77,-4.8233,-4.8306,-4.8306,-4.8306,-4.8306,-4.8306,-4.8306,-4.8306,-4.8306,-4.8306,-4.8306,-4.8306,-4.8306,-4.8306,-4.8306,-4.8306,-4.8306,-4.8306,-4.8306,-4.8306,-4.8306,-4.8306,-4.8306,-4.8306,-4.8306,-4.8306,-4.8306,-3.6522,-3.6374,0.0,-3.6803,-3.6661,0.0,-3.747,0.0,-3.7773,0.0,0.0,0.0,0.0,0.0,0.0,0.0,0.0,0.0,0.0,-3.8707,0.0,0.0,0.0,0.0,0.0,0.0,-3.8707,-3.8707,-3.8496,-3.8433,0.0,0.0,-3.8168,-3.8168,-3.8318,-3.8083,-3.7379,-3.7578,-3.7305,-3.6626,-3.6825,-3.6843,-3.6643,-3.6457,-3.6308,-3.6097,-3.5739,-3.5622,-3.5622,-3.5622,-3.5622,-3.5622,-3.5622,-3.6144,-3.7129,-3.894,-4.0082,-4.0872,-4.1976,-4.2752,-4.3214,-4.3214,-4.3321,-4.3497,-4.3497,-4.3497,-4.3552,-4.3846,-4.3718,-4.3552,-4.3846,-4.3699,-4.3497,-4.3497,-4.3901,-4.4268,-4.4268,-4.4911,-4.548,-4.548,-4.57,-4.6067,-4.6581,-4.6673,-4.7058,-4.8141,-4.8306,-4.8306,-4.8306,-4.8306,-4.8306,-4.8306,-4.8306,-4.8306,-4.8306,-4.8306,-4.8306,-4.8306,-4.8306,-4.8306,-4.8306,-4.8306,-4.8453,-4.8765,-4.8471,-4.8453,-4.8728,-4.8453,-4.8306,-4.8306,-4.8306,-4.8306]}]]